[[{"header":{"parameterUnit":"m.s-1","parameterCategory":1,"la1":30.6,"la2":28.766,"lo1":-90.7593,"lo2":-88.6598,"dy":0.0162,"dx":0.0183,"nx":116,"ny":114,"refTime":"2024-03-19T18:00:00:Z","depth":0,"parameterNumber":2,"parameterNumberName":"U-component_of_WINDS"},"data":[0.0,0.0,0.0,0.0,0.0,0.0,0.0,0.0,0.0,0.0,0.0,0.0,0.0,0.0,0.0,0.0,0.0,0.0,0.0,0.0,0.0,0.0,0.0,0.0,0.0,0.0,0.0,0.0,0.0,0.0,0.0,0.0,0.0,0.0,0.0,0.0,0.0,0.0,0.0,0.0,0.0,0.0,0.0,0.0,0.0,0.0,0.0,0.0,0.0,0.0,0.0,0.0,0.0,0.0,0.0,0.0,0.0,0.0,0.0,0.0,0.0,0.0,0.0,0.0,0.0,0.0,0.0,0.0,0.0,0.0,0.0,0.0,0.0,0.0,0.0,0.0,0.0,0.0,0.0,0.0,0.0,0.0,0.0,0.0,0.0,0.0,0.0,0.0,0.0,0.0,0.0,0.0,0.0,0.0,0.0,0.0,0.0,0.0,0.0,0.0,0.0,0.0,0.0,0.0,0.0,0.0,0.0,0.0,0.0,0.0,0.0,0.0,0.0,0.0,0.0,0.0,0.0,0.0,0.0,0.0,0.0,0.0,0.0,0.0,0.0,0.0,0.0,0.0,0.0,0.0,0.0,0.0,0.0,0.0,0.0,0.0,0.0,0.0,0.0,0.0,0.0,0.0,0.0,0.0,0.0,0.0,0.0,0.0,0.0,0.0,0.0,0.0,0.0,0.0,0.0,0.0,0.0,0.0,0.0,0.0,0.0,0.0,0.0,0.0,0.0,0.0,0.0,0.0,0.0,0.0,0.0,0.0,0.0,0.0,0.0,0.0,0.0,0.0,0.0,0.0,0.0,0.0,0.0,0.0,0.0,0.0,0.0,0.0,0.0,0.0,0.0,0.0,0.0,0.0,0.0,0.0,0.0,0.0,0.0,0.0,0.0,0.0,0.0,0.0,0.0,0.0,0.0,0.0,0.0,0.0,0.0,0.0,0.0,0.0,0.0,0.0,0.0,0.0,0.0,0.0,0.0,0.0,0.0,0.0,0.0,0.0,0.0,0.0,0.0,0.0,0.0,0.0,0.0,0.0,0.0,0.0,0.0,0.0,0.0,0.0,0.0,0.0,0.0,0.0,0.0,0.0,0.0,0.0,0.0,0.0,0.0,0.0,0.0,0.0,0.0,0.0,0.0,0.0,0.0,0.0,0.0,0.0,0.0,0.0,0.0,0.0,0.0,0.0,0.0,0.0,0.0,0.0,0.0,0.0,0.0,0.0,0.0,0.0,0.0,0.0,0.0,0.0,0.0,0.0,0.0,0.0,0.0,0.0,0.0,0.0,0.0,0.0,0.0,0.0,0.0,0.0,0.0,0.0,0.0,0.0,0.0,0.0,0.0,0.0,0.0,0.0,0.0,0.0,0.0,0.0,0.0,0.0,0.0,0.0,0.0,0.0,0.0,0.0,0.0,0.0,0.0,0.0,0.0,0.0,0.0,0.0,0.0,0.0,0.0,0.0,0.0,0.0,0.0,0.0,0.0,0.0,0.0,0.0,0.0,0.0,0.0,0.0,0.0,0.0,0.0,0.0,0.0,0.0,0.0,0.0,0.0,0.0,0.0,0.0,0.0,0.0,0.0,0.0,0.0,0.0,0.0,0.0,0.0,0.0,0.0,0.0,0.0,0.0,0.0,0.0,0.0,0.0,0.0,0.0,0.0,0.0,0.0,0.0,0.0,0.0,0.0,0.0,0.0,0.0,0.0,0.0,0.0,0.0,0.0,0.0,0.0,0.0,0.0,0.0,0.0,0.0,0.0,0.0,0.0,0.0,0.0,0.0,0.0,0.0,0.0,0.0,0.0,0.0,0.0,0.0,0.0,0.0,0.0,0.0,0.0,0.0,0.0,0.0,0.0,0.0,0.0,0.0,0.0,0.0,0.0,0.0,0.0,0.0,0.0,0.0,0.0,0.0,0.0,0.0,0.0,0.0,0.0,0.0,0.0,0.0,0.0,0.0,0.0,0.0,0.0,0.0,0.0,0.0,0.0,0.0,0.0,0.0,0.0,0.0,0.0,0.0,0.0,0.0,0.0,0.0,0.0,0.0,0.0,0.0,0.0,0.0,0.0,0.0,0.0,0.0,0.0,0.0,0.0,0.0,0.0,0.0,0.0,0.0,0.0,0.0,0.0,0.0,0.0,0.0,0.0,0.0,0.0,0.0,0.0,0.0,0.0,0.0,0.0,0.0,0.0,0.0,0.0,0.0,0.0,0.0,0.0,0.0,0.0,0.0,0.0,0.0,0.0,0.0,0.0,0.0,0.0,0.0,0.0,0.0,0.0,0.0,0.0,0.0,0.0,0.0,0.0,0.0,0.0,0.0,0.0,0.0,0.0,0.0,0.0,0.0,0.0,0.0,0.0,0.0,0.0,0.0,0.0,0.0,0.0,0.0,0.0,0.0,0.0,0.0,0.0,0.0,0.0,0.0,0.0,0.0,0.0,0.0,0.0,0.0,0.0,0.0,0.0,0.0,0.0,0.0,0.0,0.0,0.0,0.0,0.0,0.0,0.0,0.0,0.0,0.0,0.0,0.0,0.0,0.0,0.0,0.0,0.0,0.0,0.0,0.0,0.0,0.0,0.0,0.0,0.0,0.0,0.0,0.0,0.0,0.0,0.0,0.0,0.0,0.0,0.0,0.0,0.0,0.0,0.0,0.0,0.0,0.0,0.0,0.0,0.0,0.0,0.0,0.0,0.0,0.0,0.0,0.0,0.0,0.0,0.0,0.0,0.0,0.0,0.0,0.0,0.0,0.0,0.0,0.0,0.0,0.0,0.0,0.0,0.0,0.0,0.0,0.0,0.0,0.0,0.0,0.0,0.0,0.0,0.0,0.0,0.0,0.0,0.0,0.0,0.0,0.0,0.0,0.0,0.0,0.0,0.0,0.0,0.0,0.0,0.0,0.0,0.0,0.0,0.0,0.0,0.0,0.0,0.0,0.0,0.0,0.0,0.0,0.0,0.0,0.0,0.0,0.0,0.0,0.0,0.0,0.0,0.0,0.0,0.0,0.0,0.0,0.0,0.0,0.0,0.0,0.0,0.0,0.0,0.0,0.0,0.0,0.0,0.0,0.0,0.0,0.0,0.0,0.0,0.0,0.0,0.0,0.0,0.0,0.0,0.0,0.0,0.0,0.0,0.0,0.0,0.0,0.0,0.0,0.0,0.0,0.0,0.0,0.0,0.0,0.0,0.0,0.0,0.0,0.0,0.0,0.0,0.0,0.0,0.0,0.0,0.0,0.0,0.0,0.0,0.0,0.0,0.0,0.0,0.0,0.0,0.0,0.0,0.0,0.0,0.0,0.0,0.0,0.0,0.0,0.0,0.0,0.0,0.0,0.0,0.0,0.0,0.0,0.0,0.0,0.0,0.0,0.0,0.0,0.0,0.0,0.0,0.0,0.0,0.0,0.0,0.0,0.0,0.0,0.0,0.0,0.0,0.0,0.0,0.0,0.0,0.0,0.0,0.0,0.0,0.0,0.0,0.0,0.0,0.0,0.0,0.0,0.0,0.0,0.0,0.0,0.0,0.0,0.0,0.0,0.0,0.0,0.0,0.0,0.0,0.0,0.0,0.0,0.0,0.0,0.0,0.0,0.0,0.0,0.0,0.0,0.0,0.0,0.0,0.0,0.0,0.0,0.0,0.0,0.0,0.0,0.0,0.0,0.0,0.0,0.0,0.0,0.0,0.0,0.0,0.0,0.0,0.0,0.0,0.0,0.0,0.0,0.0,0.0,0.0,0.0,0.0,0.0,0.0,0.0,0.0,0.0,0.0,0.0,0.0,0.0,0.0,0.0,0.0,0.0,0.0,0.0,0.0,0.0,0.0,0.0,0.0,0.0,0.0,0.0,0.0,0.0,0.0,0.0,0.0,0.0,0.0,0.0,0.0,0.0,0.0,0.0,0.0,0.0,0.0,0.0,0.0,0.0,0.0,0.0,0.0,0.0,0.0,0.0,0.0,0.0,0.0,0.0,0.0,0.0,0.0,0.0,0.0,0.0,0.0,0.0,0.0,0.0,0.0,0.0,0.0,0.0,0.0,0.0,0.0,0.0,0.0,0.0,0.0,0.0,0.0,0.0,0.0,0.0,0.0,0.0,0.0,0.0,0.0,0.0,0.0,0.0,0.0,0.0,0.0,0.0,0.0,0.0,0.0,0.0,0.0,0.0,0.0,0.0,0.0,0.0,0.0,0.0,0.0,0.0,0.0,0.0,0.0,0.0,0.0,0.0,0.0,0.0,0.0,0.0,0.0,0.0,0.0,0.0,0.0,0.0,0.0,0.0,0.0,0.0,0.0,0.0,0.0,0.0,0.0,0.0,0.0,0.0,0.0,0.0,0.0,0.0,0.0,0.0,0.0,0.0,0.0,0.0,0.0,0.0,0.0,0.0,0.0,0.0,0.0,0.0,0.0,0.0,0.0,0.0,0.0,0.0,0.0,0.0,0.0,0.0,0.0,0.0,0.0,0.0,0.0,0.0,0.0,0.0,0.0,0.0,0.0,0.0,0.0,0.0,0.0,0.0,0.0,0.0,0.0,0.0,0.0,0.0,0.0,0.0,0.0,0.0,0.0,0.0,0.0,0.0,0.0,0.0,0.0,0.0,0.0,0.0,0.0,0.0,0.0,0.0,0.0,0.0,0.0,0.0,0.0,0.0,0.0,0.0,0.0,0.0,0.0,0.0,0.0,0.0,0.0,0.0,0.0,0.0,0.0,0.0,0.0,0.0,0.0,0.0,0.0,0.0,0.0,0.0,0.0,0.0,0.0,0.0,0.0,0.0,0.0,0.0,0.0,0.0,0.0,0.0,0.0,0.0,0.0,0.0,0.0,0.0,0.0,0.0,0.0,0.0,0.0,0.0,0.0,0.0,0.0,0.0,0.0,0.0,0.0,0.0,0.0,0.0,0.0,0.0,0.0,0.0,0.0,0.0,0.0,0.0,0.0,0.0,0.0,0.0,0.0,0.0,0.0,0.0,0.0,0.0,0.0,0.0,0.0,0.0,0.0,0.0,0.0,0.0,0.0,0.0,0.0,0.0,0.0,0.0,0.0,0.0,0.0,0.0,0.0,0.0,0.0,0.0,0.0,0.0,0.0,0.0,0.0,0.0,0.0,0.0,0.0,0.0,0.0,0.0,0.0,0.0,0.0,0.0,0.0,0.0,0.0,0.0,0.0,0.0,0.0,0.0,0.0,0.0,0.0,0.0,0.0,0.0,0.0,0.0,0.0,0.0,0.0,0.0,0.0,0.0,0.0,0.0,0.0,0.0,0.0,0.0,0.0,0.0,0.0,0.0,0.0,0.0,0.0,0.0,0.0,0.0,0.0,0.0,0.0,0.0,0.0,0.0,0.0,0.0,0.0,0.0,0.0,0.0,0.0,0.0,0.0,0.0,0.0,0.0,0.0,0.0,0.0,0.0,0.0,0.0,0.0,0.0,0.0,0.0,0.0,0.0,0.0,0.0,0.0,0.0,0.0,0.0,0.0,0.0,0.0,0.0,0.0,0.0,0.0,0.0,0.0,0.0,0.0,0.0,0.0,0.0,0.0,0.0,0.0,0.0,0.0,0.0,0.0,0.0,0.0,0.0,0.0,0.0,0.0,0.0,0.0,0.0,0.0,0.0,0.0,0.0,0.0,0.0,0.0,0.0,0.0,0.0,0.0,0.0,0.0,0.0,0.0,0.0,0.0,0.0,0.0,0.0,0.0,0.0,0.0,0.0,0.0,0.0,0.0,0.0,0.0,0.0,0.0,0.0,0.0,0.0,0.0,0.0,0.0,0.0,0.0,0.0,0.0,0.0,0.0,0.0,0.0,0.0,0.0,0.0,0.0,0.0,0.0,0.0,0.0,0.0,0.0,0.0,0.0,0.0,0.0,0.0,0.0,0.0,0.0,0.0,0.0,0.0,0.0,0.0,0.0,0.0,0.0,0.0,0.0,0.0,0.0,0.0,0.0,0.0,0.0,0.0,0.0,0.0,0.0,0.0,0.0,0.0,0.0,0.0,0.0,0.0,0.0,0.0,0.0,0.0,0.0,0.0,0.0,0.0,0.0,0.0,0.0,0.0,0.0,0.0,0.0,0.0,0.0,0.0,0.0,0.0,0.0,0.0,0.0,1.146,0.0,0.0,0.0,0.0,0.0,0.0,0.0,0.0,0.0,0.0,0.0,0.0,0.0,0.0,0.0,0.0,0.0,0.0,0.0,0.0,0.0,0.0,0.0,0.0,0.0,0.0,0.0,0.4008,0.4034,0.4395,0.447,0.4642,0.4938,0.4991,0.5008,0.4995,0.4844,0.4836,0.4989,0.4957,0.5389,0.6233,0.6353,0.6257,0.603,0.0,0.0,0.0,0.0,0.0,0.0,0.0,0.0,0.0,0.0,0.0,0.0,0.0,0.0,0.0,0.0,0.0,0.0,0.0,0.0,0.0,0.0,0.0,0.0,0.0,0.0,0.0,0.0,0.0,0.0,0.0,0.0,0.0,0.0,0.0,0.0,0.0,0.0,0.0,0.0,0.0,0.0,0.0,0.0,0.0,0.0,0.0,0.0,0.0,0.0,0.0,0.0,0.0,0.0,0.0,0.0,0.0,0.0,0.0,0.0,0.0,0.0,0.0,0.0,0.0,0.0,0.0,0.0,0.0,0.0,0.0,1.2191,0.0,0.0,0.0,0.0,0.0,0.0,0.0,0.0,0.0,0.0,0.0,0.0,0.0,0.0,0.0,0.0,0.0,0.0,0.0,0.0,0.0,0.0,0.0,0.2967,0.2559,0.349,0.3255,0.3301,0.3888,0.3992,0.4267,0.4792,0.4814,0.4834,0.4918,0.4578,0.469,0.5298,0.5707,0.6324,0.7116,0.8343,0.8761,0.848,0.0,0.0,0.0,0.0,0.0,0.0,0.0,0.0,0.0,0.0,0.0,0.0,0.0,0.0,0.0,0.0,0.0,0.0,0.0,0.0,0.0,0.0,0.0,0.0,0.0,0.0,0.0,0.0,0.0,0.0,0.0,0.0,0.0,0.0,0.0,0.0,0.0,0.0,0.0,0.0,0.0,0.0,0.0,0.0,0.0,0.0,0.0,0.0,0.0,0.0,0.0,0.0,0.0,0.0,0.0,0.0,0.0,0.0,0.0,0.0,0.0,0.0,0.0,0.0,0.0,0.0,1.6902,1.6902,1.7219,1.7664,1.4915,1.3912,1.4223,0.0,0.0,0.0,0.0,0.0,0.0,0.0,0.0,0.0,0.0,0.0,0.0,0.0,0.0,0.0,0.0,0.0,0.0,0.0,0.0,0.0,0.0,0.3083,0.3119,0.2701,0.278,0.3068,0.3622,0.3708,0.3962,0.4439,0.4194,0.4216,0.4561,0.4173,0.428,0.4869,0.7488,0.8991,0.9499,1.1542,1.2519,1.2411,0.9518,0.0,0.0,0.0,0.0,0.0,0.0,0.0,0.0,0.0,0.0,0.0,0.0,0.0,0.0,0.0,0.0,0.0,0.0,0.0,0.0,0.0,0.0,0.0,0.0,0.0,0.0,0.0,0.0,0.0,0.0,0.0,0.0,0.0,0.0,0.0,0.0,0.0,0.0,0.0,0.0,0.0,0.0,0.0,1.2104,1.2992,0.0,0.0,0.0,0.0,0.0,0.0,0.0,0.0,0.0,0.0,0.0,0.0,0.0,0.0,1.4889,1.5792,1.6555,1.7214,1.74,1.7552,1.7659,1.7659,1.771,1.7777,1.7525,0.0,1.5644,1.5846,0.0,0.0,0.0,0.0,0.0,0.0,0.0,0.0,0.0,0.0,0.0,0.0,0.0,0.0,0.0,0.0,0.0,0.0,0.0,0.0,0.0,0.2348,0.2267,0.2434,0.2425,0.2612,0.3122,0.3318,0.3625,0.4096,0.3938,0.3932,0.4107,0.3973,0.4654,0.6216,0.8422,0.9946,1.0792,1.2395,1.3048,1.2837,1.2321,1.1606,1.0752,1.0763,0.0,0.0,0.0,0.0,0.0,0.0,0.0,0.0,0.0,0.0,0.0,0.0,0.0,0.0,0.0,0.0,0.0,0.0,0.0,0.0,0.0,0.0,0.0,0.0,0.0,0.0,0.0,0.0,0.0,0.0,0.0,0.0,0.0,0.0,0.0,0.0,0.0,0.0,0.0,1.219,1.3099,1.3244,1.3595,1.3695,0.0,0.0,0.0,0.0,0.0,0.0,0.0,0.0,0.0,1.4538,1.5661,1.6446,1.6804,1.7535,1.8007,1.8087,1.8926,1.9308,1.9325,1.9741,2.009,2.0314,1.9974,1.9222,1.8141,1.7399,1.6711,1.6168,0.0,0.0,0.0,0.0,0.0,1.7197,0.0,0.0,0.0,0.0,0.0,0.0,0.0,0.0,0.0,0.0,0.0,0.0,0.2342,0.1914,0.1813,0.2258,0.2198,0.2333,0.2772,0.3014,0.3356,0.3812,0.3729,0.3731,0.3869,0.4465,0.5694,0.7575,0.9468,1.0973,1.2071,1.3252,1.3774,1.3834,1.5067,1.44,1.2403,1.2881,1.2156,0.0,0.0,0.0,0.0,0.0,0.0,0.0,0.0,0.0,0.0,0.0,0.0,0.0,0.0,0.0,0.0,0.0,0.0,0.0,0.0,0.0,0.0,0.0,0.0,0.0,0.0,0.0,0.0,0.0,0.0,0.0,0.0,0.0,0.0,0.0,0.0,0.0,0.0,1.2987,1.3552,1.3208,1.4084,1.4356,0.0,0.0,0.0,0.0,0.0,0.0,1.5145,1.6261,1.6948,1.7025,1.7629,1.8057,1.8327,1.8885,1.9131,1.9159,2.0266,2.0776,2.0792,2.147,2.1899,2.2101,2.1674,2.1143,2.0458,1.9006,1.8164,1.7789,1.7726,1.7607,0.0,1.8412,1.872,1.8922,0.0,0.0,0.0,0.0,0.0,0.0,0.0,0.0,0.0,0.0,0.0,0.3236,0.1815,0.2342,0.2589,0.2062,0.2181,0.2444,0.2771,0.2924,0.3191,0.3605,0.3425,0.3571,0.4071,0.6077,0.753,0.8344,1.1057,1.2844,1.3794,1.5089,1.6247,1.7249,1.7267,1.602,1.3829,1.2928,1.2554,1.2431,0.0,0.0,0.0,0.0,0.0,0.0,0.0,0.0,0.0,0.0,0.0,0.0,0.0,0.0,0.0,0.0,0.0,0.0,0.0,0.0,0.0,0.0,0.0,0.0,0.0,0.0,0.0,0.0,0.0,0.0,0.0,0.0,0.0,0.0,0.0,0.0,0.0,0.0,0.0,1.2832,1.4327,0.0,0.0,0.0,0.0,1.5457,1.6187,1.6931,1.7586,1.7687,1.7903,1.821,1.8241,1.8768,1.9776,1.9824,2.0374,2.1417,2.15,2.1532,2.1562,2.2044,2.2032,2.1658,2.2073,2.2226,2.2073,2.0811,1.9411,1.8187,1.9447,1.9471,1.893,1.9999,2.0374,2.0503,0.0,0.0,0.0,0.0,0.0,0.0,0.0,0.0,0.2638,0.2121,0.2302,0.2133,0.1189,0.1708,0.2209,0.2423,0.227,0.229,0.2589,0.2606,0.2778,0.3133,0.3162,0.3682,0.4791,0.6308,0.7682,0.8842,1.1298,1.299,1.398,1.5092,1.5978,1.6612,1.6879,1.6716,1.6172,1.5896,1.4863,1.3354,1.2842,1.1987,0.0,0.0,0.0,0.0,0.0,0.0,0.0,0.0,0.0,0.0,0.0,0.0,0.0,0.0,0.0,0.0,0.0,0.0,0.0,0.0,0.0,0.0,0.0,0.0,0.0,0.0,0.0,0.0,0.0,0.0,0.0,0.0,0.0,0.0,0.0,0.0,0.0,1.503,1.6357,0.0,0.0,1.7052,1.7479,1.705,1.8149,1.8741,1.8521,1.9452,1.9907,1.9707,2.0172,2.0489,2.0607,2.0607,2.0655,2.0765,2.0765,2.0765,2.0765,2.1244,2.1507,2.1628,2.2106,2.231,2.231,2.232,2.1516,2.031,2.0484,2.0503,2.0586,2.1762,2.2311,2.2691,0.0,0.0,0.0,0.0,0.0,0.0,0.0,0.0,0.2416,0.0864,0.1289,0.1457,0.0734,0.1474,0.1983,0.1809,0.2307,0.2451,0.2108,0.2227,0.251,0.3007,0.3384,0.4069,0.5153,0.6695,0.8073,0.9262,1.1272,1.2768,1.375,1.4396,1.5133,1.5905,1.6201,1.6779,1.76,1.7864,1.677,1.4813,1.4198,1.3651,1.2978,0.0,0.0,0.0,0.0,0.0,0.0,0.0,0.0,0.0,0.0,0.0,0.0,0.0,0.0,0.0,0.0,0.0,0.0,0.0,0.0,0.0,0.0,0.0,0.0,0.0,0.0,0.0,0.0,0.0,0.0,0.0,0.0,0.0,0.0,0.0,1.616,1.6361,1.7747,1.8383,1.7602,1.8596,1.908,1.8566,1.9705,2.0314,2.0061,2.1008,2.1295,2.0681,2.1154,2.1118,2.0581,2.0565,2.0465,2.0314,2.0314,2.0314,2.0314,2.091,2.1275,2.1446,2.23,2.2682,2.2733,2.346,2.3272,2.2485,2.2275,2.2347,2.2673,2.3565,2.4052,2.4379,0.0,0.0,0.0,0.0,0.0,0.0,0.0,0.3454,0.2174,0.0808,0.1263,0.1389,0.0469,0.1703,0.1918,0.0145,0.2147,0.2849,0.1388,0.1788,0.2443,0.3272,0.4096,0.4702,0.5132,0.7326,0.8819,0.9554,1.1067,1.2262,1.3137,1.3211,1.4044,1.5481,1.5391,1.6281,1.7895,1.8422,1.8028,1.6899,1.4813,1.5044,1.6272,0.0,0.0,0.0,0.0,0.0,0.0,0.0,0.0,0.0,0.0,0.0,0.0,0.0,0.0,0.0,0.0,0.0,0.0,0.0,0.0,0.0,0.0,0.0,0.0,0.0,0.0,0.0,0.0,0.0,0.0,0.0,0.0,0.0,1.5114,1.6096,1.6817,1.6718,1.8319,1.8816,1.7277,1.8893,2.0044,2.0044,2.0788,2.1532,2.2276,2.231,2.1915,2.1039,2.0991,2.0565,1.9726,1.969,1.9909,2.028,2.0296,2.0311,2.0345,2.1245,2.1433,2.1167,2.2745,2.3427,2.3477,2.4222,2.454,2.4571,2.4878,2.4977,2.5034,2.5384,2.5526,2.557,0.0,0.0,0.0,0.0,0.0,0.0,0.0,0.3108,0.1839,0.126,0.0615,0.0024,-0.0496,0.0243,0.0566,0.0199,0.0487,0.0775,0.0982,0.1551,0.2361,0.3392,0.4359,0.5223,0.5942,0.7098,0.7937,0.8454,1.0635,1.186,1.216,1.3598,1.4519,1.4914,1.4822,1.5422,1.6639,1.7151,1.7948,1.8773,1.822,1.7725,1.717,0.0,0.0,0.0,0.0,0.0,0.0,0.0,0.0,0.0,0.0,0.0,0.0,0.0,0.0,0.0,0.0,0.0,0.0,0.0,0.0,0.0,0.0,0.0,0.0,0.0,0.0,0.0,0.0,0.0,0.0,0.0,0.0,1.692,1.6507,1.7508,1.8442,1.8922,1.9625,2.002,1.9917,2.0672,2.1151,2.1151,2.167,2.209,2.2293,2.231,2.1915,2.1039,2.0991,2.0565,1.9726,1.969,1.9747,1.9889,2.0352,2.0593,2.0645,2.2062,2.2629,2.2577,2.3712,2.4188,2.4239,2.4983,2.5304,2.5236,2.4802,2.479,2.5046,2.5438,2.6271,2.7288,0.0,0.0,0.0,0.0,0.0,0.0,0.0,0.2969,0.1703,0.1432,-0.0,-0.1127,-0.1481,-0.1279,-0.1113,-0.1026,-0.1226,-0.0988,-0.0086,0.1192,0.2291,0.0,0.0,0.5194,0.578,0.6831,0.7584,0.7976,0.9756,1.0724,1.0899,1.2178,1.3071,1.348,1.3697,1.4417,1.5531,1.6267,1.7514,1.903,1.935,1.9703,1.9835,1.8056,1.7285,1.7017,1.5955,1.5293,1.4786,1.4005,0.0,0.0,0.0,0.0,0.0,0.0,0.0,0.0,0.0,0.0,0.0,0.0,0.0,0.0,0.0,0.0,0.0,0.0,0.0,0.0,0.0,0.0,0.0,0.0,1.7375,1.8266,1.7968,1.8686,1.9464,1.9988,2.0215,2.0416,2.0682,2.1118,2.143,2.1582,2.1853,2.2106,2.2282,2.231,2.2019,2.1423,2.1311,2.1099,2.0837,2.0527,2.0527,2.0816,2.1031,2.1126,2.1165,2.2499,2.3119,0.0,2.4429,2.4949,2.5017,2.5761,2.6065,0.0,0.0,0.0,0.0,0.0,2.6891,2.7707,0.0,0.0,0.0,0.0,0.0,0.0,0.0,0.2997,0.172,0.1292,-0.0538,-0.1953,-0.2351,-0.2547,-0.2662,-0.2664,-0.2701,-0.2248,-0.1231,0.0813,0.0,0.2684,0.3941,0.4772,0.5109,0.6456,0.7382,0.7765,0.8594,0.9217,0.9668,1.0082,1.0802,1.1715,1.2337,1.3165,1.4244,1.5271,1.6499,1.7833,1.8499,2.0508,2.2711,1.9757,1.9752,2.1045,1.889,1.7556,1.6713,1.6014,0.0,0.0,0.0,0.0,0.0,0.0,0.0,0.0,0.0,0.0,0.0,0.0,0.0,0.0,0.0,0.0,0.0,0.0,0.0,0.0,0.0,0.0,0.0,0.0,1.8561,1.9518,1.9353,1.9735,2.0114,2.0218,2.0212,2.0212,2.0212,2.0665,2.1119,2.1544,2.1667,2.1913,2.2375,0.0,0.0,0.0,0.0,2.1972,2.2381,2.1755,2.1755,2.2397,2.2,2.1799,2.1854,2.2801,2.3271,2.341,2.4979,2.5662,2.5778,2.642,2.6691,2.6691,2.6691,2.6691,2.6758,2.721,2.7348,0.0,0.0,0.0,0.0,0.0,0.0,0.0,0.0,0.3244,0.1806,0.0454,-0.093,-0.196,-0.2367,-0.2442,-0.2459,-0.2465,-0.2601,-0.2012,-0.0364,0.0,0.1597,0.2648,0.3259,0.4068,0.5069,0.5592,0.6248,0.7012,0.7989,0.8803,0.9481,1.0302,1.0797,1.1015,1.1107,1.134,1.1612,1.273,1.3708,1.4585,1.5428,1.7802,2.0824,2.0746,2.0512,2.0191,2.008,2.0049,1.9881,1.9048,1.8749,1.8423,1.6754,0.0,0.0,0.0,0.0,0.0,0.0,0.0,0.0,0.0,0.0,0.0,0.0,0.0,0.0,0.0,0.0,0.0,0.0,0.0,0.0,1.861,1.9844,2.0496,2.0146,2.0627,2.0725,1.9919,1.9818,1.9818,1.9818,2.0193,2.0668,2.1318,2.207,2.2621,2.284,2.3227,0.0,2.2263,2.2627,2.2674,2.2397,2.2257,2.2257,2.2397,0.0,0.0,2.2544,2.3665,2.4382,2.4836,2.5573,2.6132,2.6488,2.664,2.6691,2.6691,2.6691,2.6691,2.6791,2.7517,2.7765,2.7968,0.0,0.0,0.0,0.0,0.0,0.0,0.0,0.228,0.178,0.0337,-0.1075,-0.2001,-0.2142,-0.2153,-0.2125,-0.2101,-0.2188,-0.1872,0.0,0.0085,0.1002,0.176,0.2851,0.3727,0.4339,0.5218,0.5854,0.6299,0.6923,0.7452,0.7816,0.8391,0.8881,0.9231,0.9563,0.9923,1.0265,1.0839,1.1509,1.2181,1.2612,1.3962,1.5999,1.8399,1.9571,1.9992,2.0251,2.0138,1.9819,1.9538,1.915,1.8605,1.747,1.6265,1.4973,0.0,0.0,0.0,0.0,0.0,0.0,0.0,0.0,0.0,0.0,0.0,0.0,0.0,0.0,1.6252,0.0,0.0,1.8815,1.9192,2.0287,2.0821,2.0115,2.0289,2.0309,1.9756,1.969,1.9824,2.0168,2.0388,2.0864,2.1728,2.2228,2.2649,2.2976,2.3208,2.3175,2.2809,2.297,2.331,2.379,2.3421,2.357,2.4216,2.4053,2.3949,2.3965,2.483,2.5335,2.5615,2.6139,2.647,2.6691,2.6691,2.6691,2.6691,2.6691,2.6691,2.6774,2.7396,2.7835,2.831,0.0,0.0,0.0,0.0,0.0,0.0,0.0,0.1008,0.1305,0.0026,-0.1251,-0.2015,-0.1947,-0.1884,-0.1838,-0.1795,-0.1803,-0.1812,0.0,-0.0571,0.0325,0.071,0.214,0.3141,0.3687,0.4857,0.552,0.5535,0.5906,0.6147,0.6261,0.6498,0.6897,0.7452,0.8047,0.8619,0.9113,0.9113,0.9438,0.9974,0.9906,1.0332,1.1261,1.4422,1.6902,1.8759,1.9497,1.8863,1.7686,1.8079,1.7642,1.6867,1.6504,1.6383,1.5937,1.3782,1.3336,0.0,0.0,0.0,0.0,0.0,0.0,0.0,0.0,0.0,1.4572,1.5802,1.6689,1.7449,1.8245,1.9459,2.0143,1.9508,2.0531,2.0987,1.9867,1.9794,1.9839,1.9741,1.969,1.9899,2.0453,2.0632,2.1114,2.2095,2.2401,2.2676,2.3079,2.3317,2.3421,2.3345,2.3415,2.3952,2.5051,2.4563,2.4788,2.5689,2.5259,2.4989,2.491,2.5449,2.5742,2.5888,2.6587,2.6996,2.7131,2.6979,2.6911,2.6894,2.6759,2.6691,2.6775,2.7319,2.7878,2.8578,0.0,0.0,0.0,0.0,0.0,0.0,0.0,0.0,-0.0233,-0.1562,-0.1795,-0.1902,-0.2063,-0.1871,-0.1743,-0.1792,-0.1801,0.0,-0.1809,-0.1149,-0.0508,0.0086,0.0309,0.1504,0.3926,0.4242,0.4455,0.4649,0.5275,0.5892,0.6548,0.6573,0.6637,0.6691,0.6799,0.6902,0.695,0.695,0.7176,0.746,0.7193,0.8063,0.9549,0.965,1.1445,1.4374,1.7481,1.6367,1.3544,1.4127,1.4257,1.4246,1.478,1.5027,1.4866,1.37,0.0,1.2764,1.1758,1.1561,0.0,1.3338,1.3133,1.3546,0.0,0.0,1.6622,1.7261,1.8292,1.9023,1.8795,1.9563,2.0221,2.0172,2.0999,2.1203,1.9891,2.0213,2.0378,1.975,1.969,1.972,1.9794,2.0363,2.0991,2.1714,2.2716,2.3339,2.351,2.4453,2.4508,2.3603,2.4484,2.4791,2.4511,2.487,2.4909,2.4592,2.4511,2.4225,2.3794,2.4348,2.4831,2.5368,2.6981,2.8078,2.867,2.7977,2.7689,2.7621,2.6962,2.6691,2.6843,2.7872,2.8345,2.8734,0.0,0.0,0.0,0.0,0.0,0.0,0.0,0.0,0.0,-0.1982,-0.213,-0.2053,-0.194,-0.1757,-0.1639,-0.1625,-0.1738,0.0,-0.181,-0.1227,-0.0648,-0.0041,-0.0,0.0528,0.1649,0.2588,0.3512,0.4522,0.4802,0.5081,0.536,0.536,0.536,0.5356,0.5391,0.5378,0.5433,0.6242,0.6699,0.6718,0.5753,0.5826,0.6322,0.4872,0.4889,0.6059,0.9173,0.9693,0.0,0.0,1.0152,1.0461,1.2503,1.296,1.2735,1.2649,1.2748,0.0,1.2356,0.0,0.0,0.0,1.4705,1.5566,1.7749,1.7715,1.7568,1.8696,1.934,1.9707,1.9657,2.0302,2.0654,0.0,2.0595,2.0797,1.9824,1.9929,2.0004,1.972,1.9406,1.9516,2.0206,2.0543,2.1141,2.2188,2.2733,2.3156,2.3565,2.4032,2.4199,2.4074,2.4511,2.495,2.5335,2.5259,2.5259,2.5335,2.5012,2.4752,2.4552,2.5105,2.5826,2.6766,2.7967,2.8687,2.8958,2.8636,2.8501,2.8467,2.8146,2.8027,2.8046,2.8066,2.8357,2.9025,0.0,0.0,0.0,0.0,0.0,0.0,0.0,0.0,0.0,0.0,-0.1875,-0.1965,-0.1816,-0.17,-0.1604,-0.1555,0.0,0.0,0.0,-0.124,-0.062,-0.004,-0.0,-0.0,-0.0,0.1037,0.2138,0.3249,0.3644,0.3869,0.3866,0.3466,0.3241,0.3241,0.3274,0.3267,0.3322,0.4336,0.4791,0.4677,0.3657,0.3239,0.3013,0.1349,0.0047,-0.0501,0.2517,0.3864,0.0,0.0,0.5568,0.6098,0.8823,0.9797,1.0069,1.0773,1.158,1.229,1.2501,0.0,0.0,1.4947,1.5779,1.6858,1.8003,1.8124,1.834,1.9594,1.9941,1.997,1.9947,2.0466,0.0,1.942,1.9944,2.0264,1.9582,1.9479,1.9479,1.9479,1.9006,1.908,2.0085,2.036,2.0941,2.2054,2.2473,2.2877,2.3325,2.3661,2.3921,2.4184,2.4471,2.4855,2.5335,2.5259,2.5335,2.5577,2.5297,2.5221,2.5221,2.5975,2.6978,2.818,2.8958,2.9414,2.9583,2.9381,2.9296,2.9262,2.9059,2.9011,2.8941,2.8586,2.8805,2.9527,0.0,0.0,0.0,0.0,0.0,0.0,0.0,0.0,0.0,0.0,0.0,0.0,0.0,-0.1732,-0.1696,0.0,0.0,0.0,0.0,-0.1247,-0.0646,-0.0042,-0.0,-0.0,-0.0,0.0051,0.0104,0.0112,0.1562,0.2287,0.2232,0.0833,0.0111,0.0111,0.0111,0.011,0.0166,0.0166,0.0221,0.0221,0.0166,-0.0,-0.0199,-0.0444,-0.1843,-0.3237,0.0106,0.0,0.0,-0.0094,0.0438,0.126,0.3234,0.5197,0.0,0.7931,0.9491,1.1033,0.0,0.0,1.3794,1.5231,1.5861,1.6659,1.8711,1.9119,1.919,1.9622,2.0039,2.0008,1.9103,1.9503,1.9538,1.8361,1.9166,1.9695,1.9017,1.893,1.893,1.893,1.8458,1.8341,0.0,1.9536,2.0152,2.0729,2.1964,2.2724,2.2739,2.3779,2.4142,2.3638,2.4617,2.4712,2.3681,2.4712,2.495,2.4471,2.495,2.5221,2.5237,2.6515,2.7761,2.8991,2.9753,3.048,3.1072,3.0362,3.0074,3.0006,2.9262,2.9011,2.9059,2.9786,3.0057,3.0234,0.0,0.0,0.0,0.0,0.0,0.0,0.0,0.0,0.0,0.0,0.0,0.0,0.0,0.0,0.0,0.0,0.0,0.0,0.0,-0.1418,-0.1232,-0.0618,-0.0761,-0.0974,-0.1187,-0.0992,-0.0991,-0.1199,-0.0711,-0.0457,-0.0468,-0.0988,-0.1846,-0.3028,-0.3937,-0.4362,-0.4391,-0.4368,-0.4193,-0.3831,-0.343,-0.35,-0.3792,-0.3749,-0.4004,-0.4232,0.0,0.0,0.0,-0.191,-0.1683,-0.1072,0.1319,0.0,0.3699,0.6502,0.865,1.0255,0.0,0.0,1.4099,1.5087,1.6048,1.7042,1.8221,1.843,1.8446,1.8499,1.8527,1.8431,1.7981,1.7874,1.7821,1.7796,1.7956,1.8179,1.8355,1.838,1.838,1.838,1.8224,0.0,0.0,0.0,0.0,2.0601,2.1182,2.186,2.2652,2.3462,2.3948,2.4116,2.4471,2.4672,2.4657,2.4672,2.4592,2.4389,2.4225,2.4511,2.5253,2.6638,2.7927,2.9096,3.0294,3.097,3.1173,3.092,3.0835,3.0801,3.0548,3.0446,3.048,3.0734,3.0835,3.093,0.0,0.0,0.0,0.0,0.0,0.0,0.0,0.0,0.0,0.0,0.0,0.0,0.0,0.0,0.0,0.0,0.0,0.0,0.0,0.0,-0.1436,-0.134,-0.1369,-0.1549,-0.1866,-0.1763,-0.1937,-0.2352,-0.2378,-0.231,-0.2125,-0.2401,-0.3122,-0.4297,-0.533,-0.5883,-0.5969,-0.5952,-0.577,-0.5429,-0.502,-0.5043,-0.534,-0.5216,-0.4903,0.0,0.0,0.0,-0.2704,-0.2555,-0.2388,-0.1883,0.0442,0.1838,0.3152,0.5818,0.7828,0.9463,1.0618,1.2141,1.3795,1.5246,1.6087,1.6851,1.7891,1.7809,1.7493,1.7418,1.7206,1.6866,1.6355,1.6068,1.6016,1.6428,1.6675,1.701,1.7554,1.7975,1.8235,1.8154,1.8136,0.0,0.0,0.0,0.0,2.0273,2.0889,2.1507,2.2308,2.3131,2.3752,2.4116,2.4307,2.4471,2.4632,2.4471,2.4511,2.4712,2.4681,2.5073,2.5795,2.6973,2.7931,2.8653,3.0159,3.0649,3.0446,3.097,3.1038,3.0835,3.1089,3.119,3.119,3.119,3.119,3.123,0.0,0.0,0.0,0.0,0.0,0.0,0.0,0.0,0.0,0.0,0.0,0.0,0.0,0.0,0.0,0.0,0.0,0.0,0.0,0.0,0.0,-0.2019,-0.1763,-0.1731,-0.2006,-0.2323,-0.2783,-0.3381,-0.3472,-0.3261,-0.278,-0.3479,-0.3809,-0.3857,-0.4252,-0.4647,-0.4952,-0.4902,-0.4884,-0.4853,-0.485,-0.4871,-0.4928,-0.4884,0.0,0.0,0.0,0.0,0.0,0.0,0.0,0.0,0.0,0.2752,0.4894,0.583,0.7054,0.8612,1.1035,1.1916,1.2893,1.5617,1.594,1.6003,1.7558,1.7167,1.6422,1.6374,1.5969,1.5333,0.0,0.0,1.4249,1.4446,1.5337,1.6191,1.6664,1.7703,1.8379,0.0,0.0,0.0,0.0,0.0,0.0,1.9723,0.0,2.1727,2.1689,2.2921,2.3595,2.3595,2.4074,2.4116,2.3595,2.4116,2.4632,2.5144,2.6087,2.6539,2.6607,2.7365,2.7771,2.7924,2.9428,2.9702,2.9144,3.0598,3.0734,3.0125,3.0852,3.114,3.114,3.1089,3.1106,3.114,0.0,0.0,0.0,0.0,0.0,0.0,0.0,0.0,0.0,0.0,0.0,0.0,0.0,0.0,0.0,0.0,0.0,0.0,0.0,0.0,0.0,0.0,0.0,0.0,0.0,0.0,0.0,0.0,-0.3393,-0.352,-0.3662,-0.387,-0.4013,-0.4209,-0.4784,-0.5216,-0.5458,-0.6002,-0.6076,-0.5815,0.0,-0.5345,-0.5283,0.0,0.0,0.0,0.0,0.0,0.0,0.0,0.0,0.0,0.0,0.3453,0.4003,0.5624,0.7085,0.8606,1.0648,1.1883,1.302,1.4514,1.5257,1.5612,1.5652,1.5482,1.5119,1.4475,1.3861,1.3361,0.0,0.0,0.0,1.3924,1.4488,0.0,1.5625,1.6714,0.0,0.0,0.0,1.8898,1.9189,1.9894,0.0,0.0,2.1338,2.183,2.1714,2.289,2.3595,2.3595,2.3709,2.3767,2.3595,2.3767,2.3879,2.3991,2.4266,2.4617,2.5028,2.6138,2.7213,2.8173,2.9517,2.9989,2.9888,3.0818,3.0429,2.9347,3.0091,3.0378,3.0311,2.9753,2.9905,3.0378,0.0,0.0,0.0,0.0,0.0,0.0,0.0,0.0,0.0,0.0,0.0,0.0,0.0,0.0,0.0,0.0,0.0,0.0,0.0,0.0,0.0,0.0,0.0,0.0,0.0,0.0,0.0,0.0,0.0,0.0,-0.3205,-0.335,-0.3476,-0.36,-0.4348,-0.4802,-0.5022,-0.5555,0.0,0.0,0.0,0.0,0.0,0.0,0.0,0.0,0.0,0.0,0.0,0.0,0.0,-0.0323,0.1667,0.294,0.3946,0.5111,0.0,0.7764,0.9769,1.1042,1.2171,1.354,1.4462,1.4937,1.4444,1.4169,1.3802,1.3023,1.2404,0.0,0.0,0.0,0.0,0.0,0.0,0.0,1.4996,1.623,1.7178,0.0,1.8302,0.0,1.9738,2.0408,2.0904,0.0,2.1813,2.2236,2.2147,2.3079,2.3595,2.3595,2.3595,2.3595,2.3595,2.3837,2.3948,2.3964,2.443,2.4816,2.5105,2.6059,2.6858,2.7601,0.0,2.911,2.9161,2.9922,2.9922,2.9482,2.9583,2.982,3.0023,2.9262,2.9465,3.0108,0.0,0.0,0.0,0.0,0.0,0.0,0.0,0.0,0.0,0.0,0.0,0.0,0.0,0.0,0.0,0.0,0.0,0.0,0.0,0.0,0.0,0.0,0.0,0.0,0.0,0.0,0.0,0.0,0.0,0.0,0.0,0.0,0.0,0.0,0.0,0.0,0.0,0.0,0.0,0.0,0.0,0.0,0.0,0.0,0.0,0.0,0.0,0.0,0.0,0.0,-0.0367,-0.0297,-0.0079,0.1826,0.4039,0.4558,0.5379,0.6617,0.8757,0.9822,1.0806,1.2534,1.36,1.4074,1.3569,1.3104,1.257,1.1759,0.0,1.0858,1.044,0.0,1.1391,1.1664,0.0,1.4118,1.4622,1.602,1.7156,1.7768,1.8389,1.923,2.0547,2.0759,2.1077,2.1649,2.23,2.2702,2.2691,2.3268,2.3595,2.3595,2.3595,2.3595,2.3595,2.4074,2.4266,2.4307,2.5259,2.5689,2.5689,2.6245,2.6555,2.6689,0.0,0.0,2.8027,2.8704,2.9364,2.9888,2.9127,2.9296,2.9854,2.8991,2.9228,2.9956,0.0,0.0,0.0,0.0,0.0,0.0,0.0,0.0,0.0,0.0,0.0172,0.0,0.0,0.0,0.0,0.0,0.0,0.0,0.0,0.0,0.0,0.0,0.0,0.0,0.0,0.0,0.0,0.0,0.0,0.0,0.0,0.0,0.0,0.0,0.0,0.0,0.0,0.0,0.0,0.0,0.0,0.0,0.0,0.0,0.0,0.0,0.0,0.0,0.0,0.0,-0.024,-0.0079,-0.0,0.1163,0.2817,0.4317,0.5325,0.6322,0.8289,0.9073,0.9722,1.1436,1.2483,1.2926,1.2421,1.2256,0.0,0.0,0.0,0.9391,0.9618,0.9991,0.0,1.1548,0.0,0.0,0.0,0.0,1.6504,0.0,0.0,0.0,0.0,0.0,0.0,0.0,0.0,0.0,2.2685,2.3274,2.3595,2.3595,2.3595,2.3595,2.3595,2.3681,2.3767,2.3767,2.3921,2.4032,2.4032,2.5012,2.581,2.6416,0.0,0.0,2.8789,2.8924,2.9059,2.9093,2.8332,2.8501,2.9008,2.7604,2.7977,2.9178,0.0,0.0,0.0,0.0,0.0,0.0,0.0,0.1674,0.1975,0.1082,0.0559,0.0195,0.0019,0.0,0.0,0.0,0.0,0.0,0.0,0.0,0.0,0.0,0.0,0.0,0.0,0.0,0.0,0.0,0.0,0.0,0.0,0.0,0.0,0.0,0.0,0.0,0.0,0.0,0.0,0.0,0.0,0.0,0.0,0.0,0.0,0.0,0.0,0.0,0.0,0.0,0.0454,0.0829,0.0181,0.1001,0.2523,0.414,0.4979,0.562,0.7083,0.8154,0.908,1.0208,1.1133,1.1665,1.0992,0.0,0.0,0.0,0.0,0.9333,0.9433,0.0,0.0,0.0,0.0,0.0,0.0,0.0,0.0,0.0,0.0,0.0,0.0,0.0,0.0,0.0,0.0,0.0,2.3143,2.3465,2.3595,2.3595,2.3595,2.3595,2.3595,2.3879,2.4032,2.4032,2.4307,2.4592,2.4871,2.5373,2.5942,2.6545,0.0,0.0,2.8349,2.7943,2.8264,2.8907,2.8129,2.8298,2.889,2.8163,2.8602,2.9567,0.0,0.0,0.0,0.0,0.0,0.0,0.0,0.1907,0.195,0.141,0.1075,0.0683,0.0163,0.0044,0.0,0.0,0.0,0.0,0.0,0.0,0.0,0.0,0.0,0.0,0.0,0.0,0.0,0.0,0.0,0.0,0.0,0.0,0.0,0.0,0.0,0.0,0.0,0.0,0.0,0.0,0.0,0.0,0.0,0.0,0.0,0.0,0.0,0.0,0.0,0.0,0.1067,0.1627,0.0674,0.1523,0.3059,0.4138,0.4769,0.5317,0.591,0.7163,0.8483,0.8945,0.9882,1.0527,0.993,0.9583,0.0,0.0,0.9333,0.9333,0.9096,0.0,0.0,0.0,0.0,0.0,0.0,0.0,0.0,0.0,0.0,0.0,0.0,0.0,0.0,0.0,0.0,0.0,0.0,2.3595,2.3595,2.3595,2.3475,2.34,2.34,2.3834,2.4107,2.4172,2.4753,2.5297,2.5852,2.5961,2.6191,2.6556,0.0,0.0,0.0,2.6996,2.7604,2.889,2.7943,2.8146,2.8958,2.8789,2.9313,3.0091,0.0,0.0,0.0,0.0,0.0,0.0,0.0,0.1639,0.1536,0.1173,0.1709,0.1706,0.0581,0.0184,0.0,0.0,0.0,0.0,0.0,0.0,0.0,0.0,0.0,0.0,0.0,0.0,0.0,0.0,0.0,0.0,0.0,0.0,0.0,0.0,0.0,0.0,0.0,0.0,0.0,0.0,0.0,0.0,0.0,0.0,0.0,0.0,0.0,0.0,0.0,0.0,0.0,0.1693,0.1646,0.3089,0.4771,0.4341,0.0,0.0,0.5196,0.6134,0.7377,0.7915,0.8817,0.9573,0.9745,0.0,0.0,0.8318,0.8304,0.8314,0.7997,0.8317,0.0,0.0,0.0,0.0,0.0,0.0,0.0,0.0,0.0,0.0,0.0,0.0,0.0,0.0,0.0,0.0,0.0,2.3595,2.3595,2.3595,2.3056,2.2798,2.2798,2.284,2.3097,2.3514,2.4175,2.4736,2.5297,2.5779,2.5997,2.6085,0.0,0.0,0.0,2.6996,2.7604,2.8839,2.7368,2.7689,2.889,2.8197,2.8856,3.0006,0.0,0.0,0.0,0.0,0.0,0.0,0.1003,0.1388,0.1513,0.1254,0.1324,0.1302,0.1072,0.0529,0.0133,0.0011,0.0,0.0,0.0,0.0,0.0,0.0,0.0,0.0,0.0,0.0,0.0,0.0,0.0,0.0,0.0,0.0,0.0,0.0,0.0,0.0,0.0,0.0,0.0,0.0,0.0,0.0,0.0,0.0,0.0,0.0,0.0,0.0,0.0,0.0,0.0,0.0,0.2203,0.3364,0.0,0.0,0.4877,0.521,0.5377,0.5885,0.6495,0.7136,0.755,0.8021,0.8667,0.0,0.8087,0.7871,0.7927,0.7937,0.7782,0.8117,0.8661,0.0,0.0,0.0,0.0,0.0,0.0,0.0,0.0,0.0,0.0,0.0,0.0,0.0,0.0,0.0,0.0,2.3474,2.3412,2.3412,2.3513,2.3343,2.2863,2.3601,2.4053,2.4273,2.451,2.5159,2.6087,2.6033,2.6156,2.6436,0.0,0.0,0.0,2.6826,2.7046,2.7638,2.7943,2.8486,2.9096,2.9634,3.0243,3.0717,0.0,0.0,0.0,0.0,0.0,0.013,0.0505,0.1154,0.1547,0.141,0.1237,0.1263,0.1628,0.1202,0.0652,0.0053,0.0,0.0,0.0,0.0,0.0,0.0,0.0,0.0,0.0,0.0,0.0,0.0,0.0,0.0,0.0,0.0,0.0,0.0,0.0,0.0,0.0,0.0,0.0,0.0,0.0,0.0,0.0,0.0,0.0,0.0,0.0,0.0,0.0,0.0,0.0,0.0,0.0,0.0,0.0,0.0,0.4785,0.5123,0.5536,0.5945,0.6458,0.7104,0.7195,0.7392,0.0,0.0,0.748,0.7656,0.7782,0.7792,0.7666,0.7989,0.8444,0.905,0.0,1.036,0.0,0.0,0.0,0.0,0.0,0.0,0.0,0.0,0.0,0.0,0.0,0.0,0.0,2.3224,2.3055,2.3111,2.3224,2.3006,2.2497,2.3474,2.4143,2.456,2.4707,2.5478,2.6691,2.6367,2.6401,0.0,0.0,0.0,0.0,2.6691,2.6691,2.6826,2.8129,2.8789,2.9127,3.0412,3.0869,3.0835,0.0,0.0,0.0,0.0,0.0,0.0,0.0006,0.0917,0.1597,0.1595,0.1766,0.1993,0.2257,0.2284,0.1665,0.0131,0.0,0.0,0.0,0.0,0.0,0.0,0.0,0.0,0.0,0.0,0.0,0.0,0.0,0.0,0.0,0.0,0.0,0.0,0.0,0.0,0.0,0.0,0.0,0.0,0.0,0.0,0.0,0.0,0.0,0.0,0.0,0.0,0.0,0.0,0.0,0.0,0.0,0.0,0.3791,0.0,0.4835,0.6047,0.5444,0.6376,0.7588,0.7987,0.8078,0.822,0.0,0.0,0.7765,0.7715,0.7801,0.7811,0.7539,0.7608,0.8108,0.9299,0.9599,0.0,0.0,0.0,0.0,0.0,0.0,0.0,0.0,0.0,0.0,0.0,0.0,0.0,0.0,0.0,2.2424,2.2694,2.1797,2.1352,2.1301,2.1774,2.2668,2.3935,2.4527,2.5478,2.6691,2.6691,0.0,0.0,0.0,0.0,0.0,2.6691,2.6691,2.6776,2.7537,2.8298,2.9076,2.9837,3.0125,3.0023,0.0,0.0,0.0,0.0,0.0,0.0,0.0,0.0292,0.0769,0.151,0.1775,0.1881,0.1822,0.1816,0.133,0.0109,-0.0,0.0,0.0,0.0,0.0,0.0,0.0,0.0,0.0,0.0,0.0,0.1716,0.0,0.0,0.0,0.0,0.0,0.0,0.0,0.0,0.0,0.0,0.0,0.0,0.0,0.0,0.0,0.0,0.0,0.0,0.0,0.0,0.0,0.0,0.0,0.0,0.0,0.0,0.0,0.4072,0.4488,0.506,0.5562,0.5698,0.5815,0.6445,0.6436,0.6504,0.7448,0.0,0.7051,0.7306,0.7403,0.7432,0.748,0.7549,0.7998,0.9299,0.9698,0.0,0.0,0.0,0.0,0.0,0.0,0.0,0.0,0.0,0.0,0.0,0.0,0.0,0.0,0.0,2.2499,2.2883,2.2476,2.2183,2.1991,2.264,2.3145,2.3566,2.4271,2.5075,2.5981,2.6471,0.0,0.0,0.0,0.0,0.0,2.6691,2.6691,2.6776,2.752,2.7977,2.8281,2.9059,2.9347,2.9333,0.0,0.0,0.0,0.0,0.0,0.0,0.0,0.0,0.0243,0.0911,0.1459,0.1735,0.1611,0.1596,0.1405,0.0911,0.0336,0.0,0.0,0.0,0.0,0.0,0.0,0.0,0.0,0.0,0.1662,0.227,0.2335,0.2697,0.0,0.0,0.0,0.0,0.0,0.0,0.0,0.0,0.0,0.0,0.0,0.0,0.135,0.0,0.0,0.0,0.0,0.0,0.0,0.0,0.0,0.0,0.0,0.0,0.0,0.0,0.4793,0.5019,0.0,0.5655,0.5598,0.6251,0.6142,0.0,0.0,0.0,0.7014,0.7521,0.7656,0.7744,0.7956,0.7984,0.8345,0.9414,0.9992,0.0,0.0,0.0,0.0,0.0,0.0,0.0,0.0,0.0,0.0,0.0,0.0,0.0,0.0,0.0,2.2207,2.2822,2.2459,2.2195,2.2049,2.2664,2.3122,2.341,2.3849,2.4458,2.5203,0.0,0.0,0.0,0.0,0.0,0.0,2.6285,2.6437,2.6776,2.752,2.7877,2.81,2.8759,2.8987,2.9041,0.0,0.0,0.0,0.0,0.0,0.0,0.0,0.0,0.0,0.0,0.0869,0.1489,0.1484,0.1485,0.171,0.2253,0.0,0.0,0.0,0.0,0.0,0.0,0.0,0.0,0.0,0.2175,0.2141,0.2766,0.2978,0.3411,0.4047,0.4096,0.0,0.0,0.0,0.0,0.0,0.0,0.0,0.0,0.0,0.1528,0.0,0.0,0.0,0.0,0.0,0.0,0.0,0.0,0.0,0.0,0.0,0.0,0.0,0.0,0.0,0.0,0.0,0.6085,0.657,0.7075,0.6924,0.6819,0.0,0.0,0.0,0.0,0.0,0.8595,0.8834,0.8866,0.904,0.9722,0.0,0.0,0.0,0.0,0.0,0.0,0.0,0.0,0.0,0.0,0.0,0.0,0.0,0.0,0.0,0.0,0.0,2.2556,2.196,2.1658,2.1658,2.2077,2.2649,2.3325,2.3376,2.3748,2.4438,0.0,0.0,0.0,0.0,0.0,0.0,2.5609,2.6031,2.6759,2.7469,2.7964,2.8366,2.8748,2.8884,2.8988,0.0,0.0,0.0,0.0,0.0,0.0,0.0,0.0,0.0,0.0,0.0219,0.0374,0.0371,0.0378,0.0894,0.0,0.0,0.0,0.0,0.0,0.0,0.0,0.0,0.0,0.0,0.2526,0.2549,0.3471,0.3717,0.4385,0.5426,0.534,0.4966,0.4334,0.3936,0.0,0.0,0.0,0.0,0.0,0.1754,0.1823,0.0,0.0,0.0,0.0,0.364,0.4044,0.0,0.0,0.0,0.0,0.0,0.0,0.0,0.0,0.6136,0.6152,0.6162,0.0,0.6069,0.6199,0.6159,0.6328,0.0,0.0,0.0,0.0,0.0,0.0,0.0,0.0,0.0,0.0,0.0,0.0,0.0,0.0,0.0,0.0,0.0,0.0,0.0,0.0,0.0,0.0,0.0,0.0,0.0,0.0,0.0,2.2588,2.2312,2.2135,2.2135,2.2237,2.2395,2.2581,2.3122,2.3477,2.3663,0.0,0.0,0.0,0.0,0.0,2.5609,2.5609,2.6031,2.6708,2.6894,2.7195,2.7566,2.7644,2.7906,2.8209,0.0,0.0,0.0,0.0,0.0,0.0,0.0,0.0,0.0,0.0,0.0,0.0,0.0,0.0,0.0,0.0,0.0,0.0,0.0,0.0,0.0,0.0,0.0,0.0,0.0,0.2709,0.2892,0.4117,0.4218,0.496,0.6271,0.6311,0.5896,0.5082,0.4308,0.0,0.0,0.0,0.0,0.0,0.2338,0.0,0.0,0.0,0.0,0.0,0.3959,0.4435,0.0,0.5571,0.5998,0.6159,0.0,0.0,0.0,0.0,0.6553,0.6617,0.6583,0.6529,0.6462,0.6379,0.6649,0.7044,0.7576,0.0,0.0,0.0,0.0,0.0,0.0,0.0,0.0,0.0,0.0,0.0,0.0,0.0,0.0,0.0,0.0,0.0,0.0,0.0,0.0,0.0,0.0,0.0,0.0,0.0,0.0,0.0,2.2353,2.231,2.231,2.231,2.231,2.231,2.2699,2.2902,2.2919,0.0,0.0,0.0,0.0,0.0,2.4644,2.5321,2.5845,2.6267,2.677,2.721,2.7577,2.7577,2.7936,2.8458,0.0,0.0,0.0,0.0,0.0,0.0,0.0,0.0,0.0,0.0,0.0,0.0,0.0,0.0,0.0,0.0,0.0,0.0,0.0,0.0,0.0,0.0,0.0,0.0,0.3694,0.2895,0.318,0.4621,0.4608,0.5293,0.6639,0.7028,0.6701,0.569,0.4615,0.0,0.0,0.0,0.0,0.0,0.3018,0.0,0.0,0.0,0.0,0.0,0.0,0.0,0.0,0.617,0.6625,0.6757,0.6765,0.0,0.0,0.0,0.0,0.0,0.7026,0.7353,0.7629,0.7186,0.7662,0.828,0.8454,0.0,0.0,0.0,0.0,0.0,0.0,0.0,0.0,0.0,0.0,0.0,0.0,0.0,0.0,0.0,0.0,0.0,0.0,0.0,0.0,0.0,0.0,0.0,0.0,0.0,0.0,0.0,2.231,2.231,2.231,2.231,2.231,2.231,2.231,2.231,2.231,2.231,0.0,0.0,0.0,0.0,2.3566,2.4839,2.5402,2.5635,2.6713,2.7372,2.7766,2.7901,2.8404,2.9062,0.0,0.0,0.0,0.0,0.0,0.0,0.0,0.0,0.0,0.0,0.0,0.0,0.0,0.0,0.0,0.0,0.0,0.0,0.0,0.0,0.0,0.0,0.0,0.4104,0.4584,0.3424,0.3438,0.4685,0.4959,0.5502,0.629,0.7315,0.7277,0.6324,0.5587,0.4822,0.0,0.0,0.0,0.3649,0.0,0.0,0.0,0.0,0.0,0.0,0.0,0.0,0.0,0.6285,0.6798,0.696,0.7026,0.0,0.0,0.0,0.0,0.0,0.7499,0.8798,0.9801,0.8305,0.8401,0.9016,0.0,0.0,0.0,0.0,0.0,0.0,0.0,0.0,0.0,0.0,0.0,0.0,0.0,0.0,0.0,0.0,0.0,0.0,0.0,0.0,0.0,0.0,0.0,0.0,0.0,0.0,0.0,0.0,0.0,2.231,2.231,2.231,2.231,2.231,2.231,2.231,2.231,2.231,2.231,0.0,0.0,2.3204,2.3833,2.4074,2.454,2.5178,2.6026,2.6615,2.7067,2.7986,2.8608,2.9012,0.0,0.0,0.0,0.0,0.0,0.0,0.0,0.0,0.0,0.0,0.0,0.0,0.0,0.0,0.0,0.0,0.0,0.0,0.0,0.0,0.0,0.0,0.3707,0.4593,0.4803,0.3985,0.4235,0.562,0.5741,0.5997,0.6367,0.6891,0.6987,0.6699,0.6096,0.5327,0.4464,0.437,0.4247,0.4121,0.0,0.0,0.0,0.0,0.0,0.0,0.0,0.0,0.0,0.0,0.7036,0.7379,0.7453,0.0,0.0,0.0,0.0,0.0,0.7739,0.8918,0.9979,0.9249,1.0226,0.0,0.0,0.0,0.0,0.0,0.0,0.0,0.0,0.0,0.0,0.0,0.0,0.0,0.0,0.0,0.0,0.0,0.0,0.0,0.0,0.0,0.0,0.0,0.0,0.0,0.0,0.0,0.0,0.0,0.0,0.0,2.2527,2.236,2.231,2.231,2.231,2.2388,2.25,2.2377,2.248,2.279,0.0,2.3424,2.3578,2.441,2.4707,2.4707,2.5694,2.6472,2.7161,2.83,2.8839,2.8994,0.0,0.0,0.0,0.0,0.0,0.0,0.0,0.0,0.0,0.0,0.0,0.0,0.0,0.0,0.0,0.0,0.0,0.0,0.0,0.0,0.424,0.3226,0.4314,0.4993,0.513,0.4617,0.5003,0.6381,0.6187,0.6321,0.676,0.6622,0.6716,0.6964,0.6403,0.5643,0.4769,0.4702,0.4594,0.4467,0.0,0.0,0.0,0.0,0.0,0.0,0.0,0.0,0.0,0.0,0.0,0.0,0.0,0.0,0.0,0.7695,0.7855,0.8027,0.7913,0.8844,0.9896,1.0134,0.0,0.0,0.0,0.0,0.0,0.0,0.0,0.0,0.0,0.0,0.0,0.0,0.0,0.0,0.0,0.0,0.0,0.0,0.0,0.0,0.0,0.0,0.0,0.0,0.0,0.0,0.0,0.0,0.0,0.0,0.0,0.0,2.2822,2.2607,2.2453,2.2371,2.2371,2.2554,2.2822,2.2607,2.2747,2.3224,2.3664,2.3668,2.3412,2.4591,2.4708,2.4277,2.5321,2.6278,2.7151,2.81,2.8576,2.8723,0.0,0.0,0.0,0.0,0.0,0.0,0.0,0.0,0.0,0.0,0.0,0.0,0.0,0.0,0.0,0.0,0.0,0.0,0.0,0.0,0.3516,0.3739,0.437,0.5152,0.6075,0.5396,0.545,0.6311,0.5746,0.6168,0.7506,0.7004,0.6966,0.7236,0.6572,0.5804,0.4982,0.4903,0.4794,0.4662,0.4594,0.0,0.0,0.0,0.0,0.0,0.0,0.0,0.0,0.0,0.0,0.0,0.0,0.0,0.7971,0.7898,0.8037,0.8187,0.8178,0.9187,1.039,1.0971,0.0,0.0,0.0,0.0,0.0,0.0,0.0,0.0,0.0,0.0,0.0,0.0,0.0,0.0,0.0,0.0,0.0,0.0,0.0,0.0,0.0,0.0,0.0,0.0,0.0,0.0,0.0,0.0,0.0,0.0,0.0,0.0,2.3165,2.3141,2.2972,2.2669,2.2669,2.2848,2.3165,2.3141,2.3159,2.323,2.3553,2.3703,2.3671,2.3797,2.3815,2.3833,2.4667,2.5659,2.6643,2.6738,2.7255,2.7879,0.0,0.0,0.0,0.0,0.0,0.0,0.0,0.0,0.0,0.0,0.0,0.0,0.0,0.0,0.0,0.0,0.0,0.0,0.0,0.0,0.4037,0.4399,0.4636,0.4984,0.5449,0.5714,0.6065,0.649,0.6053,0.6493,0.7716,0.7213,0.7122,0.733,0.6653,0.6181,0.5826,0.5222,0.5255,0.5632,0.4979,0.4651,0.0,0.0,0.0,0.0,0.0,0.0,0.0,0.0,0.6965,0.7643,0.804,0.8152,0.8125,0.8096,0.8205,0.8327,0.8314,0.9827,1.1299,1.0831,0.0,0.0,0.0,0.0,0.0,0.0,0.0,0.0,0.0,0.0,0.0,0.0,0.0,0.0,0.0,0.0,0.0,0.0,0.0,0.0,0.0,0.0,0.0,0.0,0.0,0.0,0.0,0.0,0.0,0.0,0.0,0.0,0.0,2.3282,2.3236,2.3323,2.3117,2.3189,2.3482,2.33,2.3414,2.3816,2.3753,2.3816,2.4016,2.4016,2.4016,2.4089,2.491,2.5466,2.5897,2.6429,2.6796,2.7053,0.0,0.0,0.0,0.0,0.0,0.0,0.0,0.0,0.0,0.0,0.0,0.0,0.0,0.0,0.0,0.0,0.0,0.0,0.0,0.0,0.4293,0.4624,0.4667,0.4709,0.4779,0.57,0.6215,0.6284,0.5965,0.6424,0.7571,0.703,0.7167,0.7848,0.7126,0.6814,0.6754,0.5832,0.5773,0.6218,0.5247,0.4826,0.0,0.0,0.0,0.0,0.0,0.0,0.0,0.0,0.6815,0.7517,0.8208,0.838,0.8325,0.8298,0.8536,0.8842,0.8984,1.0333,1.165,0.0,0.0,0.0,0.0,0.0,0.0,0.0,0.0,0.0,0.0,0.0,0.0,0.0,0.0,0.0,0.0,0.0,0.0,0.0,0.0,0.0,0.0,0.0,0.0,0.0,0.0,0.0,0.0,0.0,0.0,0.0,0.0,0.0,0.0,2.3649,2.3631,2.3855,2.3628,2.3649,2.3837,2.361,2.3774,2.419,2.3976,2.3996,2.419,2.419,2.419,2.4245,2.4795,2.5035,2.5089,2.564,2.6007,2.6227,0.0,0.0,0.0,0.0,0.0,0.0,0.0,0.0,0.0,0.0,0.0,0.0,0.0,0.0,0.0,0.0,0.0,0.0,0.0,0.4411,0.4097,0.4289,0.4363,0.4362,0.4289,0.5331,0.5793,0.5596,0.5337,0.586,0.7094,0.6427,0.7119,0.8863,0.8061,0.771,0.7646,0.6772,0.6386,0.6246,0.5375,0.4995,0.4903,0.0,0.0,0.0,0.0,0.0,0.0,0.0,0.6975,0.7693,0.8319,0.8542,0.8592,0.8533,0.9069,0.9798,1.0272,1.0607,1.127,0.0,0.0,0.0,0.0,0.0,0.0,0.0,0.0,0.0,0.0,0.0,0.0,0.0,0.0,0.0,0.0,0.0,0.0,0.0,0.0,0.0,0.0,0.0,0.0,0.0,0.0,0.0,0.0,0.0,0.0,0.0,0.0,0.0,0.0,2.4171,2.4171,2.419,2.419,2.419,2.419,2.419,2.419,2.419,2.419,2.419,2.419,2.419,2.419,2.419,2.419,2.419,2.419,2.419,2.4685,2.5403,0.0,0.0,0.0,0.0,0.0,0.0,0.0,0.0,0.0,0.0,0.0,0.0,0.0,0.0,0.0,0.0,0.0,0.0,0.0,0.4493,0.4212,0.4366,0.4123,0.3948,0.3881,0.4146,0.4635,0.5395,0.631,0.6842,0.7038,0.7505,0.8136,0.8863,0.0,0.7993,0.8562,0.7681,0.7656,0.8122,0.7199,0.6796,0.6645,0.0,0.0,0.0,0.0,0.0,0.0,0.0,0.0,0.0,0.8253,0.8616,0.8608,0.8624,0.8776,0.9082,0.9798,1.0994,0.0,0.0,0.0,0.0,0.0,0.0,0.0,0.0,0.0,0.0,0.0,0.0,0.0,0.0,0.0,0.0,0.0,0.0,0.0,0.0,0.0,0.0,0.0,0.0,0.0,0.0,0.0,0.0,0.0,0.0,0.0,0.0,0.0,0.0,0.0,0.0,2.2795,2.3364,2.3364,2.3657,2.419,2.419,2.419,2.419,2.419,2.419,2.419,2.419,2.419,2.419,2.419,2.419,2.419,2.419,2.4355,2.4557,0.0,0.0,0.0,0.0,0.0,0.0,0.0,0.0,0.0,0.0,0.1188,0.2028,0.0,0.0,0.0,0.0,0.0,0.0,0.0,0.0,0.4403,0.4478,0.4113,0.395,0.4021,0.4052,0.4388,0.5013,0.5746,0.6395,0.7019,0.7695,0.8485,0.9292,0.0,0.8637,0.943,0.8221,0.8201,0.892,0.798,0.7576,0.7436,0.0,0.0,0.0,0.0,0.0,0.0,0.0,0.0,0.0,0.8321,0.876,0.8779,0.9093,0.9139,0.9402,1.0676,0.0,0.0,0.0,0.0,0.0,0.0,0.0,0.0,0.0,0.0,0.0,0.0,0.0,0.0,0.0,0.0,0.0,0.0,0.0,0.0,0.0,0.0,0.0,0.0,0.0,0.0,0.0,0.0,0.0,0.0,0.0,0.0,0.0,0.0,0.0,0.0,0.0,0.0,2.2538,2.285,2.3254,2.3731,2.4043,2.419,2.419,2.419,2.419,2.419,2.419,2.419,2.419,2.419,2.419,2.419,2.419,2.4266,2.4321,0.0,0.0,0.0231,0.0231,0.0,0.0,0.0,0.0,0.0,0.0,0.3037,0.4933,0.0,0.0,0.0,0.0,0.0,0.0,0.0,0.0,0.4629,0.4625,0.4302,0.4234,0.4486,0.4639,0.4672,0.4557,0.4379,0.5223,0.0,0.0,0.8344,0.9852,0.0,0.9447,1.0073,0.8492,0.8312,0.9032,0.8104,0.7763,0.7719,0.6711,0.0,0.0,0.0,0.0,0.0,0.0,0.0,0.0,0.8442,0.8852,0.8942,0.9609,0.9853,1.0333,0.0,0.0,0.0,0.0,0.0,0.0,0.0,0.0,0.0,0.0,0.0,0.0,0.0,0.0,0.0,0.0,0.0,0.0,0.0,0.0,0.0,0.0,0.0,0.0,0.0,0.0,0.0,0.0,0.0,0.0,0.0,0.0,0.0,0.0,0.0,0.0,0.0,0.0,0.0,0.0,2.2501,2.2942,2.3033,2.3823,2.419,2.419,2.419,2.419,2.419,2.419,2.419,2.419,2.4209,2.4228,2.4228,2.4247,2.4375,2.4528,0.0,0.0,0.1967,0.1967,0.0,0.0,0.0,0.0,0.0,0.0,0.0,0.0,0.0,0.0,0.0,0.0,0.0,0.0,0.0,0.0,0.4753,0.4755,0.4495,0.4335,0.4336,0.4225,0.4211,0.4284,0.5269,0.0,0.0,0.0,0.0,0.9006,0.0,0.9687,0.925,0.8879,0.9216,0.9936,0.9002,0.9031,0.9461,0.7899,0.7265,0.0,0.0,0.0,0.0,0.0,0.0,0.0,0.8398,0.8596,0.8194,0.8959,0.9569,1.0194,0.0,0.0,0.0,0.0,0.0,0.0,0.0,0.0,0.0,0.0,0.0,0.0,0.0,0.0,0.0,0.0,0.0,0.0,0.0,0.0,0.0,0.0,0.0,0.0,0.0,0.0,0.0,0.0,0.0,0.0,0.0,0.0,0.0,0.0,0.0,0.0,1.9856,1.9856,2.0152,0.0,2.1639,2.2391,2.3033,2.3823,2.419,2.419,2.419,2.419,2.419,2.419,2.419,2.4209,2.4375,2.4445,2.4444,2.4607,2.47,2.4731,0.0,0.0,0.0,0.0,0.0,0.0,0.0,0.0,0.0,0.0,0.0,0.0,0.0,0.0,0.0,0.0,0.5099,0.5093,0.5097,0.4978,0.4859,0.4809,0.463,0.4504,0.4437,0.4311,0.4281,0.4346,0.0,0.0,0.0,0.0,0.0,0.9325,0.0,0.9364,0.9,0.9004,0.9252,0.9659,0.9569,0.9538,0.9436,0.8102,0.7317,0.6747,0.5347,0.0,0.0,0.0,0.0,0.0,0.0,0.0,0.861,0.9321,0.9514,0.9835,0.0,0.0,0.0,0.0,0.0,0.0,0.0,0.0,0.0,0.0,0.0,0.0,0.0,0.0,0.0,0.0,0.0,0.0,0.0,0.0,0.0,0.0,0.0,0.0,0.0,0.0,0.0,0.0,0.0,0.0,0.0,0.0,0.0,0.0,0.0,0.0,1.9305,1.9305,1.951,1.995,2.1198,2.2409,2.3584,2.4006,2.419,2.419,2.419,2.419,2.419,2.419,2.4266,2.4357,2.4461,2.4561,2.4654,2.476,2.4842,2.4891,0.0,0.0,0.0,0.0,0.0,0.0,0.0,0.0,0.0,0.0,0.0,0.0,0.0,0.0,0.5078,0.0,0.0,0.0,0.51,0.5045,0.4952,0.4824,0.4767,0.4696,0.4634,0.4567,0.4539,0.0,0.0,0.0,0.0,0.0,0.0,0.9762,0.0,0.9007,0.8778,0.8945,0.8997,0.9067,0.9716,0.9647,0.9038,0.8174,0.7386,0.6617,0.5699,0.5802,0.6477,0.7186,0.0,0.0,0.0,0.0,0.9146,0.9784,0.9589,0.9577,0.0,0.0,0.0,0.0,0.0,0.0,0.0,0.0,0.0,0.0,0.0,0.0,0.0,0.0,0.0,0.0,0.0,0.0,0.0,0.0,0.0,0.0,0.0,0.0,0.0,0.0,0.0,0.0,0.0,0.0,0.0,0.0,0.0,0.0,0.0,1.8482,1.9305,1.9305,1.9305,1.9323,2.0849,2.2336,2.3786,2.3786,2.3933,2.419,2.4043,2.408,2.4266,2.4266,2.4375,2.4543,2.4575,2.4682,2.4828,2.4869,2.4962,2.5046,0.0,0.0,0.0,0.0,0.0,0.0,0.0,0.0,0.0,0.0,0.4962,0.4942,0.0,0.5016,0.5043,0.5097,0.5095,0.5107,0.5105,0.0,0.0,0.4891,0.487,0.4846,0.4773,0.4715,0.4675,0.0,0.0,0.0,0.0,0.0,0.0,0.8913,0.0,0.0,0.7929,0.8669,0.9003,0.9002,0.9115,0.9538,1.002,0.9141,0.87,0.8444,0.7556,0.7299,0.7503,0.8178,0.8007,0.0,0.0,0.0,0.0,0.9193,0.9678,1.0027,0.0,0.0,0.0,0.0,0.0,0.0,0.0,0.0,0.0,0.0,0.0,0.0,0.0,0.0,0.0,0.0,0.0,0.0,0.0,0.0,0.0,0.0,0.0,0.0,0.0,0.0,0.0,0.0,0.0,0.0,0.0,0.0,1.7275,1.8078,1.8096,0.0,1.9305,1.9305,1.9305,1.9323,2.0225,2.118,2.2133,2.2133,2.2868,2.4153,2.3474,2.3657,2.4461,2.4461,2.4575,2.4775,2.4885,2.4949,2.4986,2.5171,2.5243,2.5264,0.0,0.0,0.0,0.0,0.0,0.0,0.0,0.0,0.0,0.0,0.0,0.4935,0.4991,0.5027,0.5069,0.5102,0.5094,0.5098,0.511,0.5076,0.5031,0.4955,0.4959,0.4924,0.4852,0.4835,0.4789,0.0,0.0,0.0,0.0,0.7414,0.8184,0.0,0.0,0.0,0.0,0.9114,0.9129,0.8358,0.9296,0.9899,1.0146,0.9316,0.8965,0.8789,0.7906,0.7922,0.836,0.863,0.875,0.892,0.9532,0.0,0.0,0.0,0.0,0.0,0.0,0.0,0.0,0.0,0.0,0.0,0.0,0.0,0.0,0.0,0.0,0.0,0.0,0.0,0.0,0.0,0.0,0.0,0.0,0.0,0.0,0.0,0.0,0.0,0.0,0.0,0.0,0.0,0.0,0.0,0.0,1.579,1.612,1.7385,1.7422,0.0,1.9305,1.9305,1.9528,1.9987,2.0319,2.096,2.1784,2.129,2.1763,2.2953,2.2584,2.3012,2.3945,2.3945,2.4322,2.493,2.4974,2.5077,2.5173,2.5264,2.5303,2.5303,0.0,0.0,0.0,0.0,0.0,0.0,0.0,0.0,0.0,0.0,0.0,0.4881,0.4972,0.0,0.0,0.0,0.5093,0.5093,0.5092,0.5091,0.5088,0.5028,0.5026,0.5004,0.4925,0.4931,0.0,0.0,0.0,0.0,0.7004,0.7119,0.7982,0.0,1.0014,0.0,0.0,0.0,0.0,0.8183,0.9813,1.0491,1.0476,0.0,0.9991,1.0049,0.8944,0.0,0.0,0.0,0.0,0.0,0.0,0.0,0.0,0.0,0.0,0.0,0.0,0.0,0.0,0.0,0.0,0.0,0.0,0.0,0.0,0.0,0.0,0.0,0.0,0.0,0.0,0.0,0.0,0.0,0.0,0.0,0.0,0.0,0.0,0.0,0.0,0.0,0.0,0.0,0.0,0.0,1.5417,1.4829,1.5239,1.6853,1.6908,1.766,1.9271,1.935,1.9678,2.027,2.0314,2.0646,2.1226,2.0609,2.0738,2.1451,2.163,2.2416,2.358,2.358,2.4157,2.5077,2.5077,2.5163,2.5303,2.5303,2.5303,2.5303,0.0,0.0,0.0,0.0,0.0,0.0,0.0,0.0,0.0,0.0,0.0,0.4767,0.4884,0.49,0.4954,0.5091,0.5107,0.5093,0.5095,0.5093,0.5103,0.509,0.5087,0.0,0.4991,0.0,0.0,0.0,0.0,0.0,0.6173,0.6237,0.6754,0.7717,0.9444,0.9278,0.7812,0.0,0.0,0.0,1.0617,1.1318,1.1493,0.0,0.0,0.0,0.0,0.0,0.0,0.0,0.0,0.0,0.0,0.0,0.0,0.0,0.0,0.0,0.0,0.0,0.0,0.0,0.0,0.0,0.0,0.0,0.0,0.0,0.0,0.0,0.0,0.0,0.0,0.0,0.0,0.0,0.0,0.0,0.0,0.0,0.0,0.0,0.0,0.0,0.0,0.0,0.0,0.0,1.4598,1.4524,1.5239,1.6853,1.6908,1.766,1.9271,1.9499,1.962,1.9657,1.9788,1.9795,1.9713,1.9807,1.9861,1.9955,2.0597,2.1969,2.3774,2.3774,2.4391,2.5274,2.5274,2.5284,2.5303,2.5303,2.5303,2.5303,0.0,0.0,0.0,0.0,0.0,0.0,0.0,0.0,0.0,0.0,0.0,0.0,0.0,0.4919,0.4979,0.5024,0.5079,0.5095,0.5094,0.5098,0.5095,0.5104,0.51,0.0,0.0,0.0,0.0,0.0,0.0,0.5283,0.6098,0.6126,0.6316,0.6754,0.86,0.8791,0.7812,0.9495,0.0,0.0,1.0721,1.1737,1.2297,0.0,0.0,0.0,0.0,0.0,0.0,0.0,0.0,0.0,0.0,0.0,0.0,0.0,0.0,0.0,0.0,0.0,0.0,0.0,0.0,0.0,0.0,0.0,0.0,0.0,0.0,0.0,0.0,0.0,0.0,0.0,0.0,0.0,0.0,0.0,0.0,0.0,0.0,0.0,0.0,0.0,0.0,0.0,0.0,0.0,1.5288,1.527,1.5766,1.6872,1.7403,1.8264,1.9481,1.9656,1.9726,1.9726,1.9786,1.9767,1.9726,1.9786,1.9847,1.9933,2.0183,2.1067,2.2317,2.2317,2.2863,2.3755,2.4312,2.4524,2.4582,2.512,2.5303,2.5303,0.0,0.0,0.0,0.0,0.0,0.0,0.0,0.0,0.0,0.0,0.0,0.0,0.0,0.0,0.4983,0.5034,0.5313,0.5388,0.5123,0.5094,0.5098,0.5096,0.5094,0.0,0.0,0.0,0.0,0.0,0.0,0.0,0.0,0.568,0.585,0.625,0.7519,0.7944,0.0,0.0,0.0,0.9553,0.0,1.181,1.2347,0.0,0.0,0.0,0.0,0.0,0.0,0.0,0.0,0.0,0.0,0.0,0.0,0.0,0.0,0.0,0.0,0.0,0.0,0.0,0.0,0.0,0.0,0.0,0.0,0.0,0.0,0.0,0.0,0.0,0.0,0.0,0.0,0.0,0.0,0.0,0.0,0.0,0.0,0.0,0.0,0.0,0.0,0.0,0.0,0.0,1.5771,1.6029,1.6565,1.7383,1.8244,1.8992,1.9656,1.979,1.9869,1.9869,1.9931,1.9931,1.9869,1.9931,1.9982,1.9993,2.0069,2.0629,2.1504,2.1504,2.2004,2.2889,2.3764,2.411,2.4206,2.5005,2.5303,2.5303,0.0,0.0,0.0,0.0,0.0,0.0,0.0,0.0,0.0,0.0,0.0,0.0,0.0,0.0,0.0,0.5183,0.5877,0.5962,0.5183,0.5108,0.5093,0.5098,0.5097,0.0,0.0,0.0,0.0,0.0,0.0,0.0,0.0,0.0,0.5289,0.6158,0.6226,0.679,0.7745,0.0,0.9493,1.0385,0.0,1.158,1.1663,0.0,0.0,0.0,1.3745,1.4218,0.0,0.0,0.0,0.0,0.0,0.0,0.0,0.0,0.0,0.0,0.0,0.0,0.0,0.0,0.0,0.0,0.0,0.0,0.0,0.0,0.0,0.0,0.0,0.0,0.0,0.0,0.0,0.0,0.0,0.0,0.0,0.0,0.0,0.0,0.0,0.0,0.0,0.0,0.0,1.6064,1.597,1.6791,1.7601,1.8423,1.9336,1.9821,1.9821,1.9943,2.0012,2.0012,2.0205,2.0197,2.0022,2.0205,2.0197,2.0022,2.0225,2.0735,2.1466,2.1466,2.1966,2.2812,2.3687,2.4033,2.4168,2.4966,2.5284,2.5303,0.0,0.0,0.0,0.0,0.0,0.0,0.0,0.0,0.0,0.0,0.0,0.0,0.0,0.0,0.8239,0.7546,0.6756,0.6228,0.6048,0.5445,0.5102,0.5099,0.511,0.5096,0.0,0.0,0.0,0.0,0.0,0.0,0.0,0.0,0.0,0.0,0.5356,0.6212,0.7695,0.8611,0.0,0.0,1.1831,1.2386,0.0,0.0,0.0,0.0,0.0,1.6842,0.0,0.0,1.403,1.1628,0.0,0.0,0.0,0.0,0.0,0.0,0.9949,0.0,0.0,0.0,0.0,0.0,0.0,0.0,0.0,0.0,0.0,0.0,0.0,0.0,0.0,0.0,0.0,0.0,0.0,0.0,0.0,0.0,0.0,0.0,0.0,0.0,0.0,0.0,0.0,1.6611,1.7778,1.8079,1.8576,1.9393,1.9766,1.9934,1.9934,2.0134,2.0225,2.0225,2.0277,2.0277,2.0233,2.0277,2.0277,2.0233,2.0277,2.0427,2.0639,2.0639,2.0773,2.1081,2.1908,2.2601,2.3263,2.412,2.4793,2.5303,0.0,0.0,0.0,0.0,0.0,0.0,0.0,0.0,0.0,0.0,0.0,0.0,0.0,0.0,0.0,0.911,0.8043,0.7253,0.6915,0.6082,0.5756,0.6127,0.5817,0.5818,0.6182,0.0,0.0,0.0,0.0,0.0,0.0,0.0,0.0,0.0,0.5682,0.6696,0.0,0.0,0.0,0.0,1.1813,0.0,0.0,1.5006,1.5811,0.0,0.0,0.0,1.6357,1.6554,1.4614,0.0,0.0,0.0,0.0,0.0,0.0,0.0,0.0,0.0,0.0,0.0,0.0,0.0,1.1422,1.2354,0.0,0.0,0.0,0.0,0.0,0.0,0.0,0.0,0.0,0.0,0.0,0.0,0.0,0.0,0.0,0.0,0.0,0.0,0.0,0.0,1.7072,1.747,1.9104,1.9249,1.9497,1.9871,2.0041,2.0124,2.0124,2.0241,2.0312,2.0312,2.0312,2.0312,2.0312,2.0312,2.0312,2.0312,2.0312,2.0312,2.0312,2.0331,2.0331,2.0389,2.1224,2.1848,2.2406,2.3274,2.4139,2.4793,0.0,0.0,0.4499,0.4499,0.4846,0.0,0.0,0.0,0.0,0.0,0.0,0.0,0.0,0.0,0.0,0.0,0.9308,0.8542,0.7777,0.6908,0.6771,0.7556,0.6913,0.6879,0.7667,0.6943,0.0,0.0,0.0,0.0,0.0,0.0,0.0,0.0,0.6768,0.7766,0.0,0.0,0.0,1.037,1.1324,1.1673,0.0,0.0,1.4335,0.0,1.5586,1.6282,1.6267,1.6701,1.5362,0.0,0.0,0.0,0.0,0.0,1.1714,0.0,0.0,0.0,0.0,0.0,0.0,0.0,1.2659,1.2988,1.3456,0.0,0.0,0.0,0.0,0.0,0.0,0.0,0.0,0.0,0.0,0.0,0.0,0.0,0.0,0.0,0.0,0.0,0.0,1.6269,1.727,1.8486,1.9955,2.0197,2.0225,2.0031,2.0205,2.0312,2.0312,2.0312,2.0312,2.0312,2.0312,2.0312,2.0312,2.0312,2.0312,2.0312,2.0312,2.03,2.0323,2.0377,2.0366,2.0381,2.1155,2.154,2.171,2.2476,2.3321,2.3964,0.4191,0.4365,0.4499,0.4499,0.0,0.0,0.0,0.0,0.0,0.0,0.0,0.0,0.0,0.0,0.0,0.0,0.9174,0.8611,0.8494,0.7677,0.728,0.7502,0.7364,0.7397,0.762,0.7512,0.0,0.0,0.0,0.0,0.0,0.0,0.0,0.0,0.7418,0.8007,0.0,0.0,0.0,1.025,1.0446,0.0,1.2675,1.4507,1.543,1.5901,1.6953,1.6875,1.6168,0.0,1.4807,1.4267,0.0,0.0,0.0,0.0,0.0,0.0,0.0,0.0,0.0,0.0,0.0,0.0,1.1278,1.1436,1.1627,0.0,0.0,0.0,0.0,0.0,0.0,0.0,0.0,0.0,0.0,0.0,0.0,0.0,0.0,0.0,0.0,0.0,1.5405,1.64,1.7881,1.9169,2.0184,2.0277,2.0277,2.0241,2.0277,2.0312,2.0312,2.0312,2.0312,2.0312,2.0312,2.0312,2.0312,2.0312,2.0312,2.0312,2.0312,2.034,2.0386,2.0455,2.0444,2.0395,2.057,2.1055,2.1691,2.1875,2.248,2.3215,0.4335,0.5616,0.6723,0.6828,0.0,0.0,0.0,0.0,0.0,0.0,0.0,0.0,0.0,0.0,0.0,0.0,0.0,0.0,0.0,0.0,0.8141,0.8674,0.8342,0.8345,0.8792,0.8466,0.8491,0.0,0.0,0.0,0.0,0.0,0.0,0.0,0.0,0.0,0.0,0.0,0.9724,1.0896,1.1323,0.0,1.2555,1.4951,1.5811,1.5861,1.6659,1.6322,1.5583,1.6153,1.5314,0.0,0.0,1.5879,1.4914,0.0,1.4334,1.4479,0.0,0.0,0.0,1.1568,0.0,0.0,0.0,1.27,1.3005,0.0,0.0,0.0,0.0,0.0,0.0,0.0,0.0,0.0,0.0,0.0,0.0,0.0,0.0,0.0,0.0,0.0,1.6667,1.7676,1.8927,1.9831,2.0292,2.0312,2.0312,2.0312,2.0312,2.0312,2.0312,2.0312,2.0312,2.0312,2.0312,2.0312,2.0312,2.0331,2.035,2.035,2.0389,2.0429,2.0462,2.053,2.0525,2.0504,2.0461,2.0723,2.1102,2.1094,2.1647,2.2332,0.5318,0.7265,0.8968,0.9159,0.0,0.0,0.0,0.0,0.0,0.0,0.0,0.0,0.0,0.0,0.0,0.0,0.0,0.0,0.0,0.0,0.0,1.0087,0.9406,0.9315,1.0004,0.9442,0.9475,1.0207,0.0,0.0,0.0,0.0,0.0,0.0,0.0,0.0,0.0,0.0,0.0,1.166,0.0,1.2751,1.2572,1.5072,1.5581,1.5083,1.5749,1.5414,1.4956,1.6899,0.0,1.4512,1.7674,1.7368,0.0,0.0,0.0,0.0,0.0,0.0,0.0,0.0,0.0,1.3767,0.0,0.0,0.0,1.4487,0.0,0.0,0.0,0.0,0.0,0.0,0.0,0.0,0.0,0.0,0.0,0.0,0.0,0.0,0.0,0.0,1.7516,1.8657,1.9246,1.9765,2.0265,2.0312,2.0312,2.0312,2.0312,2.0312,2.0312,2.0312,2.0312,2.0331,2.0331,2.0327,2.0325,2.0383,2.0407,2.0427,2.0485,2.0504,2.0512,2.0592,2.0598,2.0584,2.0533,2.0527,2.0526,2.0527,2.0953,2.1479,0.84,0.8671,0.8968,0.9159,0.0,0.0,0.0,0.0,0.0,0.0,0.0,0.0,0.0,0.0,0.0,0.0,0.0,0.0,1.2789,0.0,0.0,0.0,1.0131,0.9806,1.0086,1.0012,1.0035,1.0207,0.0,0.0,0.0,0.0,0.0,0.0,1.0047,0.0,0.0,0.0,1.1738,0.0,1.3386,1.3872,0.0,1.4152,1.4577,1.4992,1.4907,1.473,1.4669,0.0,1.5813,1.5591,0.0,1.6734,0.0,0.0,0.0,0.0,0.0,0.0,0.0,0.0,1.3273,0.0,0.0,0.0,1.1993,1.266,0.0,0.0,0.0,0.0,0.0,0.0,0.0,0.0,0.0,0.0,0.0,0.0,0.0,0.0,0.0,0.0,0.0,1.7715,1.7226,1.7853,2.0169,2.0312,2.0312,2.0312,2.0312,2.0312,2.0312,2.0312,2.0331,2.0389,2.0389,2.0398,2.039,2.0409,2.0421,2.0485,2.0504,2.0523,2.0593,2.0603,2.0601,2.0602,2.0586,2.0586,2.0586,2.0583,2.0641,2.0719,0.8891,0.8891,0.9033,0.9421,0.0,0.0,0.0,0.0,0.0,0.0,0.0,0.0,0.0,0.0,0.0,0.0,0.0,1.3622,0.0,0.0,0.0,0.0,0.0,0.0,1.0565,1.0678,1.0564,1.0207,1.0205,0.0,0.0,0.0,0.0,0.0,1.1227,0.0,1.2767,0.0,0.0,0.0,0.0,0.0,0.0,1.4932,1.4839,1.4909,1.4677,1.4556,1.4611,0.0,1.5447,0.0,0.0,0.0,0.0,0.0,0.0,0.0,0.0,0.0,0.0,0.0,0.0,0.0,0.0,0.0,1.3468,0.0,0.0,0.0,0.0,0.0,0.0,0.0,0.0,0.0,0.0,0.0,0.0,0.0,0.0,0.0,0.0,0.0,0.0,0.0,0.0,1.8535,2.0208,2.0197,2.0188,2.0304,2.0312,2.0312,2.0312,1.9845,1.9873,2.0388,1.9933,1.9976,2.0437,1.9971,2.0051,2.0529,2.002,2.012,2.0594,2.0601,2.0293,1.9902,2.0391,2.0605,2.0605,2.0605,2.0605,2.0605,0.8891,0.0,0.0,0.0,0.0,0.0,0.0,0.0,0.0,0.0,0.0,0.0,1.636,1.4756,0.0,0.0,0.0,1.537,0.0,0.0,1.2266,0.0,0.0,0.0,0.0,0.0,1.0914,1.0457,1.0287,0.0,0.0,0.0,0.0,0.0,0.0,1.3095,1.4147,0.0,0.0,1.6043,1.6614,1.6841,1.6758,1.6092,1.557,1.517,1.515,1.5111,1.5127,1.5677,1.5528,0.0,1.7098,0.0,0.0,0.0,0.0,0.0,1.5359,0.0,0.0,0.0,0.0,0.0,0.0,0.0,0.0,0.0,0.0,0.0,0.0,0.0,0.0,0.0,0.0,0.0,0.0,0.0,0.0,0.0,0.0,0.0,0.0,0.0,0.0,0.0,0.0,0.0,2.0148,2.0078,2.0087,2.0285,2.0312,2.0315,2.0327,1.9776,1.9806,2.0447,1.9862,1.979,2.015,1.9573,1.9648,2.0215,1.957,1.9785,2.0605,2.0605,2.0234,1.9727,2.0352,2.0605,2.0605,2.0605,2.0605,2.0605,0.8891,0.8891,0.0,0.0,0.0,0.0,0.0,0.0,0.0,0.0,0.0,0.0,0.0,0.0,0.0,0.0,0.0,1.5925,1.6658,0.0,1.3999,0.0,0.0,1.2365,0.0,0.0,0.0,1.1069,0.0,0.0,0.0,0.0,0.0,0.0,0.0,1.3221,1.5326,1.6465,1.7245,1.7721,1.776,1.7727,1.7624,0.0,1.6682,1.5949,1.6594,0.0,0.0,1.645,1.6381,0.0,0.0,0.0,0.0,0.0,0.0,0.0,0.0,0.0,0.0,1.5072,0.0,0.0,0.0,0.0,1.3872,0.0,0.0,0.0,0.0,0.0,0.0,0.0,0.0,0.0,0.0,0.0,0.0,0.0,0.0,0.0,0.0,0.0,0.0,0.0,0.0,0.0,1.9879,1.9993,2.0087,2.0285,2.0312,2.0321,2.0402,2.045,2.0507,2.0586,2.0566,2.0136,1.9335,1.9316,1.9316,1.9336,1.9316,1.9785,2.0605,2.0605,2.0586,2.0566,2.0586,2.0605,2.0605,2.0605,2.0605,2.0605,0.8891,0.0,0.0,0.0,0.0,0.0,0.0,1.2226,0.0,0.0,0.0,0.0,0.0,0.0,1.3396,0.0,0.0,1.6129,1.7377,1.5536,0.0,0.0,0.0,1.3396,0.0,0.0,0.0,0.0,0.0,0.0,0.0,0.0,0.0,0.0,0.0,1.4908,0.0,0.0,0.0,0.0,0.0,1.7886,1.7456,0.0,0.0,1.682,1.6842,1.6692,0.0,1.6747,1.6554,1.6323,1.6749,1.6833,1.6753,1.6783,1.6544,0.0,0.0,0.0,1.6898,1.5833,0.0,0.0,0.0,0.0,0.0,0.0,0.0,0.0,0.0,0.0,0.0,0.0,0.0,0.0,0.0,0.0,0.0,0.0,0.0,0.0,0.0,0.0,0.0,0.0,0.0,0.0,0.0,1.9869,1.9933,2.0106,2.0271,2.0386,2.0406,1.9932,2.0004,2.0586,2.0019,1.959,1.9277,1.8691,1.875,1.9277,1.8691,1.9258,2.0605,2.0605,2.0254,1.9805,2.0371,2.0254,1.9805,2.0391,2.0605,2.0605,1.0267,0.0,0.0,0.0,0.0,0.0,0.0,0.0,0.0,0.0,1.37,0.0,1.3396,0.0,1.3396,0.0,1.4277,1.5443,1.6931,1.6291,0.0,1.6047,1.509,0.0,0.0,0.0,0.0,0.0,0.0,1.2566,0.0,0.0,0.0,0.0,0.0,0.0,0.0,0.0,1.871,0.0,0.0,1.7216,0.0,0.0,1.6556,1.7033,0.0,1.7454,1.7116,1.6989,1.6858,1.6835,1.7271,1.7103,1.6896,1.761,1.7169,1.6599,1.7168,1.7592,0.0,1.6465,1.687,0.0,1.5103,0.0,0.0,0.0,0.0,0.0,0.0,0.0,0.0,0.0,0.0,0.0,0.0,1.1851,0.0,0.0,0.0,0.0,0.0,0.0,0.0,0.0,0.0,0.0,0.0,0.0,1.9943,2.0106,2.0299,2.0405,2.0406,1.9971,2.0039,2.0586,2.0039,1.9434,1.8828,1.8262,1.8301,1.8809,1.8242,1.8984,2.0605,2.0605,2.0273,1.9824,2.0371,2.0254,1.9824,2.0391,2.0605,2.0605,1.257,1.3295,0.0,0.0,1.182,0.0,0.0,0.0,1.3767,0.0,1.3396,1.3396,1.3396,1.3363,1.3346,1.3396,1.3346,0.0,1.5392,1.6898,0.0,0.0,1.6047,1.6053,1.6785,0.0,0.0,0.0,0.0,0.0,0.0,0.0,0.0,0.0,1.5297,0.0,1.7757,1.7607,1.8497,1.9954,1.9824,1.5872,1.0468,1.4042,0.0,1.6572,1.8249,1.848,1.7897,1.7112,1.7277,1.7676,1.6936,1.7202,1.7905,1.8378,1.855,1.8519,1.8203,1.8126,1.7877,1.6955,0.0,0.0,0.0,0.0,1.518,0.0,0.0,0.0,0.0,0.0,0.0,0.0,0.0,0.0,0.0,0.0,0.0,0.0,0.0,0.0,0.0,0.0,0.0,0.0,0.0,0.0,0.0,0.0,0.0,2.0277,2.0361,2.0405,2.0406,2.0539,2.0605,2.0605,2.0605,1.9687,1.8008,1.8008,1.8008,1.8008,1.8008,1.8984,2.0605,2.0605,2.0605,2.0605,2.0605,2.0605,2.0605,2.0605,2.0605,2.0605,1.0169,1.1855,1.3208,0.0,1.2967,1.3396,0.0,0.0,0.0,0.0,1.3396,1.3396,1.3396,1.2687,1.2533,1.3329,1.2668,0.0,0.0,0.0,0.0,1.6699,1.6004,1.5993,1.6785,1.5367,0.0,1.4628,0.0,0.0,1.426,0.0,0.0,0.0,0.0,0.0,1.7185,1.7016,1.7909,1.9485,1.9448,1.5551,0.0,0.0,1.5517,1.539,1.3233,1.308,1.4292,1.6718,1.7657,1.7676,1.6936,1.7202,1.7759,1.7552,1.7877,1.8318,1.8449,1.8322,1.8016,1.7382,1.7064,1.6712,0.0,0.0,0.0,0.0,0.0,0.0,0.0,0.0,0.0,0.0,0.0,0.0,0.0,0.0,0.0,0.0,0.0,0.0,0.0,0.0,0.0,0.0,0.0,0.0,0.0,0.0,0.0,2.005,2.0291,2.0405,2.0406,2.0539,2.0605,2.0605,2.0605,1.9687,1.8008,1.8008,1.8008,1.8008,1.8008,1.8984,2.0605,2.0605,2.0605,2.0605,2.0605,2.0605,2.0605,2.0605,2.0605,2.0605,1.1078,0.0,0.0,1.3396,0.0,0.0,1.3396,0.0,0.0,1.5138,1.4812,0.0,1.5249,1.3225,1.203,1.2649,1.2154,0.0,0.0,0.0,0.0,1.5359,1.5712,1.6114,1.6559,1.587,0.0,1.5332,0.0,0.0,1.4511,0.0,0.0,0.0,0.0,1.5842,0.0,1.7234,1.6517,1.5356,1.8184,0.0,0.0,0.8941,1.1474,1.5054,1.2466,1.1241,1.146,1.5248,1.6881,1.7185,1.6441,1.6492,1.6876,1.706,1.7379,1.7835,1.8439,1.8489,1.8266,1.7848,1.7646,1.7233,1.618,1.6236,1.6183,0.0,0.0,0.0,0.0,0.0,0.0,0.0,0.0,0.0,0.0,0.0,0.0,0.0,0.0,0.0,0.0,0.0,0.0,0.0,0.0,0.0,0.0,0.0,0.0,1.9588,2.0488,2.0795,2.0441,2.0939,2.0977,2.0605,2.0577,1.9841,1.851,1.8529,1.8513,1.848,1.8534,1.9316,2.0566,2.0586,2.0596,2.0591,2.0601,2.0586,2.0566,2.0586,2.0605,2.0605,0.0,0.0,0.0,0.0,0.0,0.0,0.0,1.365,0.0,1.6898,0.0,1.5837,1.6914,1.3879,1.1805,1.1805,0.0,1.1918,1.2215,1.2396,1.2868,1.3663,1.5266,1.6225,1.6357,1.6289,0.0,0.0,0.0,0.0,0.0,0.0,0.0,0.0,0.0,0.0,0.0,1.765,1.4336,0.0,1.4529,1.3427,0.7806,0.2149,0.5571,1.3312,1.2727,1.1211,1.0043,1.3752,1.568,1.6428,1.568,1.5511,1.5773,1.6659,1.6889,1.712,1.8081,1.835,1.8309,1.8052,1.8076,1.7776,1.6311,1.6533,1.6727,1.5683,1.5014,1.5178,0.0,0.0,0.0,0.0,0.0,0.0,0.0,0.0,0.0,0.0,0.0,0.0,0.0,0.0,0.0,0.0,0.0,0.0,0.0,0.0,0.0,0.0,2.0739,0.0,2.0504,0.0,2.1347,2.0599,2.0538,2.0035,1.9193,1.9185,1.9156,1.9119,1.922,1.9742,2.0487,2.0546,2.0572,2.0578,2.057,2.0544,2.0487,2.0546,2.0565,2.0585,0.0,0.0,0.0,0.0,0.0,1.4226,1.6661,1.4952,1.3599,1.4108,1.3678,0.0,1.2886,1.2212,1.1805,1.1805,1.1805,0.0,0.0,0.0,0.0,1.3653,1.4734,1.5743,1.6683,1.6236,1.5733,0.0,0.0,0.0,0.0,0.0,0.0,0.0,0.0,0.0,1.6695,1.678,0.0,0.18,0.292,0.27,0.158,0.0441,0.113,0.3151,0.663,0.9912,1.2905,1.4817,1.5612,1.5663,1.4936,1.5122,1.5632,1.5807,1.586,1.6033,1.6806,1.7031,1.701,1.6969,1.7424,1.7793,1.7495,1.7545,1.7507,1.7027,1.6629,1.6539,1.7106,0.0,0.0,0.0,0.0,0.0,0.0,0.0,0.0,0.0,0.0,0.0,0.0,0.0,0.0,0.0,0.0,0.0,0.0,0.0,0.0,0.0,0.0,0.0,0.0,0.0,0.0,2.0527,2.0504,2.0007,1.912,1.9116,1.9107,1.9091,1.9115,1.9618,2.0416,2.0435,2.0434,2.043,2.0443,2.0429,2.0416,2.0435,2.0435,2.0444,0.0,0.0,0.0,0.0,0.0,0.0,0.0,1.5551,0.0,1.4646,1.4476,1.4228,1.3905,1.2628,1.1805,1.1805,1.1205,1.1089,1.1747,1.1805,1.2072,1.2687,1.359,0.0,1.5476,1.5935,1.5834,1.5147,0.0,0.0,0.0,0.0,0.0,0.0,0.0,1.5955,0.0,0.0,0.0,0.8248,0.2359,0.0,0.0,0.0,0.0,0.0896,0.773,1.1553,1.3566,1.4665,1.5037,1.4969,1.4596,1.4479,1.453,1.4919,1.5037,1.5189,1.5917,1.614,1.6224,1.6597,1.6987,1.732,1.771,1.7811,1.7704,1.7368,1.7293,1.7359,1.748,1.764,0.0,0.0,0.0,0.0,0.0,0.0,0.0,0.0,0.0,0.0,0.0,0.0,0.0,0.0,0.0,0.0,0.0,0.0,0.0,0.0,0.0,0.0,0.0,0.0,0.0,2.0504,2.0465,2.0188,1.9711,1.9711,1.9726,1.9728,1.9757,1.999,2.0346,2.0385,2.0385,2.0359,2.0388,2.039,2.0346,2.0385,2.0404,2.0418,0.0,1.3396,0.0,0.0,1.394,0.0,0.0,1.5799,1.5799,1.5799,1.5799,1.5589,1.5019,1.2814,1.14,1.14,1.0736,1.0736,1.1725,1.1557,1.1512,1.1805,1.2535,1.335,1.4177,1.5557,1.5817,0.0,0.0,0.0,0.0,0.0,0.0,0.0,0.0,0.0,0.0,0.0,1.7439,1.6109,0.7326,0.2267,0.0203,0.2117,0.2845,0.3777,1.0856,1.3396,1.3498,1.4073,1.4276,1.4276,1.4276,1.387,1.3549,1.4293,1.4394,1.4428,1.5172,1.5375,1.5544,1.6292,1.658,1.6902,1.7642,1.7811,1.7726,1.7455,1.7878,1.8195,1.7969,1.8259,0.0,0.0,0.0,0.0,0.0,0.0,0.0,0.0,0.0,0.0,0.0,0.0,0.0,0.0,0.0,0.0,0.0,0.0,0.0,0.0,0.0,0.0,2.0332,0.0,2.123,0.0,2.0412,2.035,2.0312,2.0312,2.0312,2.0312,2.0369,2.035,2.0312,2.0369,2.035,2.0312,2.0369,2.035,2.0312,2.0369,2.0485,2.0646,0.0,0.0,0.0,0.0,0.0,0.0,0.0,1.5799,1.5799,1.5799,1.5799,1.4884,1.2433,1.0907,1.0097,1.0097,1.102,1.1681,1.1805,1.0736,1.0592,1.1747,1.2289,1.2958,1.382,1.5164,1.5198,0.0,0.0,0.0,0.0,0.0,0.0,0.0,0.0,0.0,0.0,1.8806,1.795,1.6763,1.6314,0.9658,0.0881,0.9044,1.2143,1.2262,1.3108,1.3396,1.3413,1.3481,1.3498,1.3498,1.3498,1.3464,1.3549,1.4293,1.4022,1.365,1.4411,1.4596,1.4783,1.5511,1.6224,1.6902,1.7642,1.7811,1.7789,1.7766,1.8831,1.9504,1.8541,2.0254,2.13,0.0,0.0,0.0,0.0,0.0,0.0,0.0,0.0,0.0,0.0,0.0,0.0,0.0,0.0,0.0,0.0,0.0,0.0,1.9181,0.0,1.9492,1.9414,2.0235,0.0,2.0413,2.0334,2.0312,2.0312,2.0312,2.0312,2.0312,2.0312,2.0312,2.0312,2.0312,2.0312,2.0312,2.0312,2.0312,2.0312,2.0312,2.0773,2.1408,0.0,0.0,0.0,0.0,0.0,0.0,0.0,1.5799,1.4947,1.258,1.2251,1.1854,1.0773,1.021,0.9905,0.9905,1.0371,1.0664,1.0664,1.0185,1.0135,1.064,1.1332,1.2273,1.348,1.4225,1.4569,0.0,0.0,0.0,0.0,0.0,0.0,0.0,0.0,1.8138,1.8304,1.8394,1.7792,1.6669,1.598,1.1777,0.6196,0.851,1.1045,1.3396,1.3396,1.3396,1.3396,1.3396,1.3396,1.3396,1.3396,1.3396,1.3464,1.3752,1.3633,1.3464,1.3752,1.3836,1.4022,1.4766,1.5494,1.6221,1.6965,1.7339,1.7666,1.8323,1.9672,2.0649,2.0367,2.0638,2.0967,0.0,0.0,0.0,0.0,0.0,0.0,0.0,0.0,0.0,0.0,0.0,0.0,0.0,0.0,0.0,0.0,0.0,0.0,2.0036,0.0,2.1333,2.0808,2.112,2.0962,2.0341,2.0311,2.0312,2.0312,2.0312,2.0312,2.0312,2.0312,2.0312,2.0312,2.0312,2.0312,2.0312,2.0312,2.0312,2.0369,2.085,2.1216,2.1581,1.4005,0.0,1.969,0.0,1.9046,1.7942,1.6083,1.5799,1.4397,1.0418,0.9905,0.9905,0.9905,0.9905,0.9905,0.9905,0.9905,0.9905,0.9905,0.9905,0.9905,0.9905,1.0581,0.0,1.2694,1.3329,1.4038,1.4822,1.4776,0.0,0.0,0.0,0.0,0.0,1.8377,1.8448,1.8199,1.8339,1.7607,1.6251,1.4739,1.2738,1.0447,0.8916,1.0328,1.3086,1.3139,1.3157,1.3157,1.3157,1.3157,1.3174,1.3346,1.3346,1.3311,1.3379,1.3346,1.3311,1.3379,1.3396,1.3633,1.4597,1.5148,1.5711,1.6651,1.7027,1.7511,1.8801,2.0212,2.1316,2.172,2.1189,2.0948,2.1837,0.0,0.0,0.0,0.0,0.0,0.0,0.0,1.802,0.0,0.0,0.0,0.0,0.0,0.0,0.0,0.0,0.0,0.0,0.0,0.0,0.0,2.1625,2.127,2.0312,2.0312,2.0312,2.0312,2.0312,2.0312,2.0312,2.0312,2.0312,2.0312,2.0312,2.0312,2.0312,2.0312,2.0446,2.0716,2.1293,2.1812,2.235,1.9192,1.9681,1.969,1.969,1.7567,1.5844,1.5799,1.5799,1.4397,1.0418,0.9905,0.9905,0.9905,0.9905,0.9905,0.9905,0.9905,0.9905,0.9905,0.9905,0.9905,0.0,0.0,1.0688,1.1324,1.2621,1.366,1.4408,0.0,0.0,1.5284,0.0,1.6669,1.8604,1.8604,1.9048,1.9739,1.9137,1.7616,1.552,1.4298,1.3183,1.2269,1.2238,1.2269,1.234,1.2553,1.261,1.261,1.261,1.261,1.2706,1.3226,1.3208,1.3067,1.3329,1.3208,1.3067,1.3329,1.3396,1.3752,1.5223,1.5341,1.5495,1.695,1.7052,1.7303,1.9141,2.0391,2.1414,2.2175,2.2265,2.204,2.1339,0.0,0.0,0.0,0.0,0.0,0.0,1.765,1.7254,1.7558,0.0,0.0,0.0,0.0,0.0,0.0,0.0,0.0,2.1855,2.178,0.0,2.0531,2.1246,2.1169,2.0312,2.0312,2.0312,2.0312,2.0312,2.0312,2.0312,2.0312,2.0312,2.0312,2.0312,2.0312,2.0312,2.0312,2.0792,2.1485,2.1504,2.2581,2.4072,1.5127,1.5267,1.5647,1.684,1.6353,1.5389,1.4214,1.2745,1.0962,0.87,0.841,0.841,0.841,0.9304,0.9905,0.0,0.9905,0.9905,0.0,0.9905,0.9905,0.9905,1.021,1.0881,1.1885,1.282,1.3818,1.4877,0.0,0.0,0.0,1.6735,1.7496,1.8795,1.8574,1.8312,1.8065,1.7658,1.6386,1.469,1.4293,1.3257,1.1982,1.2169,1.2231,1.2271,1.2514,1.261,1.261,1.261,1.2911,1.3235,1.2943,1.2908,1.3013,1.3103,1.3191,1.3294,1.3379,1.3396,1.3633,1.4614,1.4991,1.5342,1.6334,1.7432,1.8207,1.8091,1.9866,2.1392,2.1199,2.1378,2.1465,2.1254,2.1011,0.0,0.0,0.0,0.0,0.0,0.0,1.9517,0.0,1.9757,0.0,0.0,0.0,0.0,0.0,0.0,0.0,0.0,2.372,0.0,2.2156,2.2367,2.1743,2.0312,2.0312,2.0312,2.0312,2.0312,2.0312,2.0312,2.0312,2.0619,2.1119,2.1119,2.1466,2.2004,2.2004,2.1793,2.1639,2.2831,2.3244,2.3379,1.3198,1.3198,1.3547,1.4627,1.4126,1.322,1.2119,1.0329,0.8734,0.7831,0.7695,0.7695,0.7695,0.9008,0.0,0.9116,0.9569,0.9905,0.9905,0.9905,0.9905,0.9905,1.0084,1.073,1.1811,0.0,0.0,1.473,1.5186,1.5931,1.691,1.691,1.7354,1.8079,1.7642,1.7314,1.7069,1.6214,1.5173,1.4091,1.3836,1.2879,1.1645,1.194,1.2045,1.2066,1.2235,1.2296,1.2327,1.2593,1.2968,1.3274,1.3103,1.3226,1.346,1.3418,1.3537,1.368,1.3785,1.3616,1.365,1.4665,1.4907,1.5117,1.5886,1.7432,1.8501,1.7732,1.9725,2.1427,2.0933,2.1026,2.1204,2.1204,2.0771,2.0365,2.0035,0.0,0.0,0.0,0.0,0.0,0.0,2.0753,0.0,0.0,0.0,0.0,0.0,0.0,0.0,2.3928,2.493,0.0,2.2915,2.2887,2.1993,2.0312,2.0312,2.0312,2.0312,2.0619,2.06,2.0331,2.0619,2.0869,2.1081,2.1389,2.1812,2.2331,2.2658,2.2658,2.2601,2.3706,2.3956,2.3889,1.3198,1.3073,0.0,0.0,1.1186,0.0,0.9738,0.8568,0.7695,0.7695,0.7695,0.7695,0.7695,0.8926,0.9197,0.7802,0.0,0.0,0.0,0.9738,0.9738,0.9738,0.9841,1.0288,1.1122,1.1796,1.277,1.4084,1.5167,1.5881,1.6258,1.6192,1.638,1.6757,1.5999,1.6022,1.6537,1.489,1.3995,1.3605,1.3002,1.2167,1.131,1.1637,1.1798,1.1843,1.1865,1.1895,1.2029,1.2666,1.2906,1.3056,1.3615,1.404,1.4311,1.4145,1.4133,1.4228,1.4471,1.4055,1.3887,1.5288,1.5184,1.4907,1.5626,1.7105,1.8266,1.79,1.9812,2.1474,2.116,2.115,2.1204,2.1204,2.117,2.0856,2.0103,0.0,0.0,0.0,0.0,0.0,0.0,2.0622,2.1277,0.0,0.0,0.0,0.0,0.0,2.2834,2.5409,2.5428,2.462,2.3011,2.2917,2.2081,2.0465,2.0465,2.0465,2.0504,2.1196,2.11,2.0427,2.1119,2.1062,2.0542,2.1273,2.1658,2.185,2.2658,2.3437,2.411,2.4168,2.462,2.5207,0.0,0.0,1.0696,1.0696,0.9328,0.8213,0.8213,0.7918,0.7695,0.7695,0.7695,0.7695,0.7695,0.8023,0.808,0.7725,0.8023,0.8213,0.8213,0.8213,0.8213,0.8213,0.9304,1.0077,1.0416,1.1182,1.2306,1.3796,1.4285,1.4933,1.5747,1.5093,1.5505,1.6741,1.5028,1.4658,1.5189,1.3759,1.2839,1.2334,1.2181,1.1643,1.1038,1.131,1.1751,1.222,1.2469,1.2882,1.3361,1.351,1.3899,1.4259,1.3914,1.4719,1.5599,1.4507,1.4513,1.4891,1.4932,1.5014,1.5233,1.5894,1.5968,1.5871,1.5809,1.6864,1.7695,1.7091,1.9185,2.0971,2.0381,2.0788,2.1204,2.1204,2.0686,2.0204,2.0018,2.0917,0.0,0.0,2.2042,2.2513,2.205,2.2792,2.2685,0.0,0.0,0.0,0.0,0.0,2.3225,2.5284,2.5322,2.4832,2.3821,2.3802,2.3263,2.2216,2.2216,2.2216,2.2197,2.1716,2.1408,2.1196,2.0773,2.1196,2.2216,2.2408,2.3254,2.4418,2.4639,2.4466,2.4168,2.4793,2.4755,2.4466,1.0688,0.9734,0.8899,0.8899,0.8241,0.7695,0.7695,0.7695,0.7695,0.7695,0.7695,0.7695,0.7695,0.7695,0.7695,0.7695,0.8326,0.841,0.7754,0.7695,0.7695,0.7695,0.8789,0.9634,1.02,1.0777,1.1704,1.3015,1.3333,1.3784,1.4296,1.3838,1.409,1.4921,1.3538,1.3297,1.3797,1.2498,1.1836,1.1677,1.149,1.1138,1.0715,1.0987,1.1339,1.1727,1.2134,1.2638,1.3182,1.3745,1.4335,1.4782,1.4722,1.5352,1.5915,1.5156,1.5151,1.5373,1.5373,1.5272,1.5294,1.5991,1.6454,1.673,1.6683,1.7445,1.8002,1.7469,1.9311,2.0846,2.0305,2.0772,2.1204,2.1204,2.0517,2.0154,2.0653,2.113,0.0,2.2464,2.3056,2.3382,2.3277,2.3838,2.3639,2.2299,0.0,0.0,2.3426,2.3562,2.4151,2.5264,2.5303,2.4909,2.411,2.3706,2.3227,2.2661,2.2766,2.2747,2.2661,2.267,2.2254,2.1504,2.1466,2.1735,2.2235,2.2639,2.3562,2.4793,2.5159,2.5024,2.4697,2.5139,2.5024,2.4716,0.7695,0.751,0.7333,0.7333,0.7333,0.7421,0.7666,0.7695,0.7695,0.7695,0.7695,0.7695,0.7695,0.7695,0.7695,0.7695,0.8844,0.9035,0.7783,0.7695,0.7695,0.7695,0.8298,0.9046,0.988,1.0375,1.1061,1.1979,1.2361,1.2622,1.2706,1.2579,1.262,1.276,1.2012,1.2,1.2498,1.1278,1.0915,1.115,1.0859,1.0623,1.0491,1.0827,1.1072,1.1292,1.1787,1.2295,1.2885,1.3897,1.4555,1.5064,1.5619,1.5799,1.5799,1.5799,1.5749,1.5747,1.5796,1.5399,1.5222,1.6065,1.6838,1.7409,1.7659,1.8223,1.8639,1.8438,1.9799,2.0894,2.0629,2.095,2.1214,2.1097,2.0598,2.0543,2.1436,0.0,2.2229,2.3472,2.3671,2.3837,2.417,2.43,2.4318,2.4208,2.4468,2.4673,0.0,2.4917,2.5065,2.5284,2.5303,2.4957,2.4236,2.3496,2.3045,2.2844,2.3024,2.3024,2.2909,2.3697,2.3256,2.1927,2.2389,2.2331,2.1947,2.2543,2.3398,2.436,2.5024,2.5303,2.5303,2.5303,2.5303,2.5303,0.7695,0.6595,0.5679,0.5679,0.5679,0.6137,0.749,0.7695,0.7695,0.7695,0.7695,0.7695,0.7695,0.7695,0.7695,0.7695,0.7918,0.7947,0.7725,0.7695,0.7695,0.7695,0.7812,0.8093,0.8585,0.9701,1.0477,1.0931,1.1265,1.1735,1.2285,1.1554,1.1774,1.2746,1.1288,1.1,1.1549,1.0509,1.0084,1.0122,1.0085,1.0301,1.0693,1.1031,1.1801,1.2724,1.3097,1.3852,1.4687,1.4888,1.5272,1.5664,1.5769,1.5799,1.5799,1.5799,1.5781,1.5859,1.613,1.6542,1.6918,1.7062,1.738,1.7659,1.77,1.8223,1.8808,1.9149,2.0162,2.0991,2.0942,2.1266,2.1338,2.0709,2.1011,2.1321,2.1281,0.0,2.2708,2.3236,2.3522,2.3837,2.417,2.4795,2.4924,2.4245,2.4853,2.5134,2.4813,2.4832,2.4975,2.5303,2.5303,2.5156,2.4855,2.474,2.46,2.4436,2.4463,2.4524,2.4579,2.4087,2.3781,2.3629,2.2274,2.2466,2.3648,2.3052,2.3716,2.5139,2.5245,2.5303,2.5303,2.5303,2.5303,2.5303,0.6413,0.5804,0.5309,0.5309,0.5309,0.5835,0.7451,0.7695,0.7695,0.7695,0.6936,0.6747,0.7608,0.7695,0.7695,0.7695,0.7695,0.7695,0.7695,0.7695,0.7695,0.7695,0.7695,0.7976,0.8551,0.9359,0.9726,0.9686,1.023,1.0556,1.0701,1.0755,1.0939,1.1216,1.0755,1.0573,1.056,1.011,0.9905,0.9931,1.0219,1.0468,1.0759,1.1232,1.1754,1.2303,1.2737,1.3373,1.4045,1.4595,1.5074,1.5477,1.5712,1.5799,1.5799,1.5799,1.5799,1.5827,1.5983,1.6268,1.6664,1.7349,1.7618,1.7876,1.8612,1.9016,1.9296,1.9539,2.0128,2.0616,2.0616,2.1165,2.1483,2.1138,2.1259,0.0,0.0,2.2278,2.2903,2.3998,2.4438,2.4725,2.4829,2.5566,2.5713,2.4905,2.5585,2.5817,2.5302,2.5393,2.5338,2.5141,2.5141,2.5099,2.501,2.4943,2.4814,2.4639,2.4746,2.4828,2.4872,2.4581,2.4326,2.4052,2.3244,2.336,2.4072,2.3667,2.4216,2.5303,2.5303,2.5303,2.5303,2.5303,2.5303,2.5303,0.5309,0.5309,0.5309,0.5309,0.5309,0.571,0.6957,0.7145,0.7145,0.7145,0.6075,0.5773,0.6996,0.748,0.7695,0.7695,0.7695,0.7695,0.7695,0.7695,0.7695,0.7695,0.7695,0.8004,0.8679,0.8992,0.9019,0.8789,0.9357,0.9528,0.9274,1.0156,1.0303,0.9841,1.034,1.042,1.0108,1.0011,1.009,1.0332,1.0731,1.0969,1.1132,1.1613,1.1864,1.2027,1.2454,1.2859,1.3329,1.4083,1.469,1.5165,1.5522,1.5801,1.5964,1.5844,1.5903,1.5964,1.5844,1.5903,1.6278,1.7399,1.7802,1.8253,1.942,1.969,1.9726,1.9818,2.0089,2.0314,2.0314,2.0943,2.1411,2.1248,0.0,0.0,0.0,2.2798,2.3446,2.4855,2.5212,2.5422,2.5654,2.6245,2.6337,2.5713,2.641,2.6624,2.6023,2.5955,2.5638,2.4968,2.4986,2.4986,2.4949,2.4814,2.4623,2.4426,2.4594,2.4685,2.4731,2.485,2.4674,2.4293,2.4101,2.4159,2.436,2.4187,2.4562,2.5303,2.5303,2.5303,2.5303,2.5303,2.5303,2.5303,0.5309,0.5309,0.5309,0.5309,0.5309,0.534,0.5467,0.5467,0.5467,0.5467,0.5372,0.534,0.5467,0.6807,0.7695,0.7695,0.7695,0.7695,0.7695,0.7695,0.7695,0.7695,0.7695,0.7899,0.8319,0.8365,0.8533,0.8789,0.8844,0.8871,0.8855,0.9791,0.9986,0.9541,1.0015,1.0421,1.0699,1.0326,1.0685,1.1475,1.1512,1.1826,1.2291,1.2328,1.2634,1.3085,1.3123,1.345,1.3835,1.3921,1.447,1.5104,1.5134,1.5829,1.6517,1.5978,1.6204,1.6502,1.5963,1.6219,1.6816,1.7518,1.8179,1.8807,1.9525,1.969,1.9818,2.0193,2.028,2.0314,2.0314,2.0715,2.0814,2.0128,0.0,0.0,2.235,2.3762,2.4945,2.5393,2.5093,2.529,2.6387,2.6576,2.6594,2.6521,2.7255,2.7435,2.6823,2.6116,2.5435,2.4837,2.4943,2.4937,2.4818,2.4623,2.4428,2.4228,2.4247,2.4339,2.4528,2.4526,2.4685,2.4889,2.4152,2.4345,2.5149,2.4409,2.4562,2.5303,2.5303,2.5303,2.5303,2.5303,2.5303,2.5303,0.5309,0.5309,0.5309,0.5309,0.5309,0.5309,0.5309,0.5309,0.5309,0.5309,0.5309,0.5679,0.6686,0.7333,0.7695,0.7695,0.7695,0.7562,0.73,0.7528,0.7695,0.7695,0.7695,0.7783,0.7918,0.8416,0.865,0.856,0.9025,0.9255,0.9306,0.9672,0.9704,0.9518,1.0034,1.0316,1.0421,1.054,1.0973,1.1625,1.1964,1.2228,1.2454,1.276,1.3023,1.3198,1.3198,1.3288,1.3514,1.3802,1.4555,1.529,1.4878,1.5628,1.6652,1.6428,1.6801,1.7264,1.7056,1.6831,1.6965,1.8041,1.8208,1.8373,1.9435,1.969,1.9747,1.9909,1.9945,2.0,2.0246,2.1063,2.1665,2.163,0.0,2.3782,2.3697,2.4649,2.5506,2.5882,2.6181,2.6517,2.6934,2.7416,2.7596,2.7343,2.8099,2.8235,2.7514,2.6339,2.5662,2.5552,2.499,2.4666,2.4607,2.4409,2.4284,2.419,2.419,2.4303,2.4495,2.4495,2.4654,2.4858,2.4638,2.4767,2.5091,2.4918,2.4955,2.5111,2.5111,2.5072,2.4994,2.4994,2.4994,2.4994,0.5309,0.5309,0.5309,0.5309,0.5309,0.5309,0.5309,0.5309,0.5309,0.5309,0.5309,0.571,0.6837,0.6936,0.6936,0.6936,0.7421,0.7576,0.7243,0.7516,0.7783,0.7968,0.7968,0.8007,0.8094,0.8651,0.8812,0.8574,0.9088,0.9372,0.9422,0.9573,0.9591,0.9552,0.9917,1.0241,1.0453,1.0603,1.1143,1.1905,1.2275,1.2535,1.2672,1.3048,1.3198,1.3198,1.3198,1.3198,1.3267,1.3581,1.4386,1.5162,1.4719,1.5455,1.6623,1.7228,1.7456,1.7593,1.7983,1.747,1.7125,1.841,1.8223,1.8096,1.9385,1.969,1.969,1.969,1.9854,2.0135,2.0586,2.1616,2.257,2.2996,2.4058,2.4831,2.4831,2.5473,2.6092,2.6511,2.6784,2.7116,2.7533,2.7861,2.8076,2.8168,2.8705,2.865,2.7842,2.6888,2.6303,2.6185,2.5261,2.4781,2.4781,2.4395,2.419,2.419,2.419,2.4266,2.441,2.441,2.4512,2.4716,2.4877,2.4943,2.4937,2.513,2.5107,2.4943,2.4943,2.4877,2.4804,2.4804,2.4804,2.4804,0.5309,0.5309,0.5309,0.5309,0.5309,0.5309,0.5309,0.5309,0.5309,0.5309,0.5309,0.5309,0.5309,0.5309,0.5309,0.5309,0.6747,0.7695,0.7705,0.7705,0.7968,0.8584,0.8603,0.873,0.8994,0.9004,0.9014,0.9014,0.9014,0.9014,0.9014,0.9489,0.9658,0.9609,0.9651,1.0193,1.0977,1.0572,1.122,1.2508,1.2508,1.2791,1.3198,1.3198,1.3198,1.3198,1.3198,1.3198,1.321,1.321,1.3864,1.4704,1.4704,1.5372,1.6473,1.8318,1.8059,1.7384,1.8569,1.8007,1.7358,1.8446,1.8291,1.8238,1.9417,1.969,1.969,1.969,2.0243,2.0858,2.1414,2.2374,2.3294,2.3819,2.4861,2.5609,2.5609,2.6234,2.6841,2.7241,2.6601,2.6708,2.8252,2.7673,2.7713,2.8897,2.8994,2.865,2.7842,2.7787,2.742,2.6631,2.5805,2.5403,2.5403,2.4593,2.419,2.419,2.419,2.419,2.419,2.419,2.4303,2.4512,2.4716,2.4804,2.4818,2.4937,2.493,2.4804,2.4804,2.4804,2.479,2.479,2.479,2.479,0.5309,0.5309,0.5309,0.5309,0.5309,0.5309,0.5309,0.5309,0.5309,0.5309,0.5309,0.5309,0.5309,0.5309,0.5309,0.5309,0.5742,0.675,0.8486,0.795,0.8085,0.9252,0.8857,0.8594,0.8564,0.9141,0.9408,0.9408,0.9408,0.96,0.9893,0.9417,0.9358,0.9592,0.9635,0.9965,1.0593,1.0735,1.1483,1.2508,1.2508,1.2791,1.3198,1.3198,1.3198,1.3198,1.3198,1.3483,1.3846,1.3846,1.4784,1.6002,1.6302,1.6386,1.6563,1.7398,1.7727,1.7871,1.8246,1.781,1.749,1.8567,1.8361,1.8238,1.9417,1.969,1.9824,2.0303,2.0572,2.0994,2.1908,2.3033,2.4003,2.4475,2.5564,2.637,2.637,2.6556,2.6962,2.7572,2.7453,2.7568,2.8347,2.8435,2.8506,2.8558,2.8839,2.8883,2.8668,2.8117,2.7677,2.7438,2.6098,2.5403,2.5403,2.4593,2.419,2.419,2.419,2.419,2.419,2.419,2.4228,2.4303,2.4512,2.4575,2.4607,2.4785,2.4756,2.4575,2.4575,2.4512,2.4375,2.4375,2.4375,2.4375,0.5309,0.5309,0.5309,0.5309,0.5309,0.5309,0.5309,0.5309,0.5309,0.5309,0.5309,0.5309,0.5309,0.5309,0.5309,0.5309,0.5909,0.6762,0.7941,0.7756,0.7994,0.8869,0.895,0.9043,0.9165,0.9629,0.9893,0.9893,0.9893,1.002,1.0264,0.958,0.9482,0.9883,0.967,0.9873,1.0385,1.0613,1.1319,1.221,1.221,1.2615,1.3198,1.3198,1.3198,1.3223,1.3483,1.3808,1.4123,1.4337,1.521,1.6257,1.6718,1.6717,1.6596,1.7062,1.7303,1.7504,1.7747,1.7394,1.7229,1.8341,1.829,1.827,1.9441,1.9899,2.0213,2.0632,2.1126,2.1747,2.2601,2.3591,2.4585,2.5557,2.611,2.6689,2.752,2.7334,2.7418,2.818,2.8281,2.8423,2.8798,2.8934,2.8913,2.8662,2.9156,2.9347,2.9012,2.8539,2.8282,2.8282,2.7016,2.6358,2.6358,2.5236,2.4502,2.419,2.419,2.419,2.419,2.419,2.419,2.4209,2.441,2.4444,2.4393,2.4591,2.4559,2.4375,2.4375,2.4303,2.419,2.419,2.419,2.419,0.5309,0.5309,0.5309,0.5309,0.5309,0.5309,0.5309,0.5309,0.5309,0.5309,0.5309,0.5309,0.5309,0.5435,0.5571,0.5741,0.6962,0.7379,0.6535,0.7335,0.7875,0.7948,0.8993,0.9834,1.0273,1.0283,1.0283,1.0283,1.0283,1.0283,1.0273,0.9873,0.9902,1.0264,0.9863,0.9902,1.0361,1.0361,1.0954,1.1847,1.1847,1.2389,1.3198,1.3198,1.3198,1.3261,1.3833,1.4072,1.4249,1.4853,1.5354,1.5856,1.6358,1.6522,1.6595,1.7076,1.6879,1.6595,1.7118,1.6909,1.6837,1.7827,1.8173,1.8528,1.9457,2.0228,2.0737,2.0797,2.1799,2.2832,2.3341,2.3971,2.4972,2.6744,2.6504,2.6789,2.8735,2.8366,2.8213,2.8991,2.9076,2.9223,2.9506,2.9288,2.9112,2.9156,2.9874,2.9989,2.9255,2.914,2.9104,2.9104,2.8264,2.7787,2.7787,2.6284,2.5089,2.43,2.4226,2.419,2.419,2.419,2.419,2.4209,2.4393,2.4375,2.4209,2.441,2.4357,2.419,2.419,2.419,2.419,2.419,2.419,2.419,0.5309,0.5309,0.5309,0.5309,0.5309,0.5309,0.5309,0.5309,0.5309,0.5309,0.5309,0.5309,0.5309,0.6413,0.7739,0.9115,0.7976,0.6934,0.6314,0.7429,0.8415,0.9111,0.9449,0.9834,1.0273,1.0283,1.0283,1.0283,1.0283,1.0283,1.0283,1.0186,1.0195,1.0312,1.0186,1.0416,1.0829,1.0829,1.1431,1.2365,1.2365,1.2685,1.3198,1.3198,1.3198,1.3223,1.3336,1.3961,1.4878,1.5831,1.6233,1.6358,1.6471,1.6522,1.6522,1.6637,1.6595,1.6522,1.6637,1.6909,1.7271,1.7947,1.8798,1.9526,1.9685,2.0228,2.0857,2.138,2.2113,2.2858,2.345,2.4009,2.4851,2.6246,2.6689,2.7371,2.8803,2.8839,2.9008,2.977,2.9871,2.9892,2.9949,2.9948,3.0077,3.0378,3.0867,3.1054,3.0889,3.0283,2.9953,2.9953,2.8539,2.7787,2.7787,2.6833,2.5933,2.5146,2.4502,2.419,2.419,2.419,2.419,2.419,2.4247,2.4247,2.419,2.4247,2.4247,2.419,2.419,2.419,2.419,2.419,2.419,2.419,0.5309,0.5309,0.5309,0.5309,0.5309,0.5309,0.5309,0.5752,0.6112,0.6112,0.5625,0.5309,0.5309,0.6552,0.7723,0.8665,0.7675,0.71,0.737,0.7912,0.8508,0.9219,0.9677,1.0049,1.0273,1.0283,1.0283,1.0283,1.0283,1.0283,1.0283,1.0283,1.0283,1.0283,1.0283,1.0428,1.0687,1.0687,1.1244,1.2174,1.2174,1.2579,1.3198,1.3198,1.3198,1.3273,1.3835,1.4726,1.5743,1.6321,1.6522,1.6522,1.6522,1.6522,1.6522,1.6522,1.6522,1.6522,1.6522,1.6913,1.7463,1.8028,1.9003,1.9843,1.9738,2.0707,2.1665,2.168,2.2458,2.3221,2.3535,2.4109,2.4991,2.6582,2.7033,2.7859,2.9796,2.9736,2.9803,3.0531,3.0632,3.054,3.0372,3.0904,3.1169,3.0826,3.1527,3.1806,3.1403,3.0632,3.021,3.021,2.9017,2.8374,2.8374,2.7567,2.6961,2.6542,2.5731,2.5346,2.5328,2.4942,2.4759,2.474,2.4373,2.419,2.419,2.419,2.419,2.419,2.419,2.419,2.419,2.419,2.419,2.419,0.5578,0.5418,0.5309,0.5309,0.5477,0.5578,0.5578,0.64,0.6979,0.6979,0.6179,0.5504,0.5336,0.6319,0.6979,0.6979,0.6979,0.7474,0.8635,0.8434,0.8528,0.9058,0.9858,1.0283,1.0283,1.0283,1.0283,1.0283,1.0283,1.0283,1.0283,1.0283,1.0283,1.0283,1.0283,1.0361,1.0428,1.0428,1.0954,1.1811,1.1884,1.2401,1.3094,1.3263,1.3336,1.3509,1.4513,1.5517,1.6396,1.6484,1.6522,1.6522,1.6522,1.6522,1.6522,1.6522,1.6522,1.6522,1.6522,1.7024,1.7632,1.8092,1.9225,2.0161,1.9921,2.1356,2.2559,2.1979,2.2877,2.3774,2.3774,2.4343,2.5378,2.7259,2.7412,2.8214,3.0694,3.051,3.0342,3.0988,3.1151,3.1074,3.0745,3.1725,3.1986,3.1035,3.1991,3.2301,3.1626,3.0841,3.0378,3.0378,2.9533,2.9106,2.9106,2.8388,2.8007,2.7989,2.7328,2.6869,2.6594,2.5897,2.5623,2.5568,2.474,2.441,2.4392,2.4263,2.4281,2.4392,2.4245,2.4373,2.4612,2.4612,2.452,2.441,0.6787,0.5972,0.5309,0.5309,0.6112,0.6787,0.6787,0.6921,0.6979,0.6979,0.6887,0.64,0.5423,0.6319,0.6979,0.6979,0.6979,0.7474,0.8635,0.8674,0.8882,0.9397,0.9972,1.0283,1.0283,1.0283,1.0283,1.0283,1.0283,1.0283,1.0283,1.0283,1.0283,1.0283,1.0283,1.0544,1.0905,1.0905,1.1244,1.1847,1.2246,1.2461,1.2698,1.364,1.3972,1.406,1.4689,1.5279,1.5881,1.6358,1.6522,1.6522,1.6522,1.6522,1.6522,1.6522,1.6522,1.6522,1.6522,1.726,1.8092,1.8179,1.9844,2.1298,2.0693,2.1657,2.2694,2.2562,2.358,2.4448,2.4448,2.5031,2.6077,2.7965,2.7813,2.8155,3.0136,3.0352,3.0319,3.0418,3.0878,3.1196,3.1116,3.1571,3.1828,3.1672,3.2188,3.2485,3.2378,3.1582,3.1155,3.1155,3.0104,2.9529,2.9529,2.9071,2.8851,2.8851,2.8718,2.7952,2.6612,2.6502,2.6447,2.6392,2.5585,2.5256,2.5182,2.4483,2.4612,2.5182,2.4465,2.5052,2.6282,2.6282,2.5841,2.5348,0.6761,0.6607,0.6253,0.6253,0.6139,0.6266,0.6921,0.6979,0.6979,0.6979,0.6979,0.6827,0.6313,0.6713,0.6979,0.6979,0.6979,0.7474,0.8635,0.8716,0.9079,0.9922,1.0157,1.0283,1.0283,1.0283,1.0283,1.0283,1.0283,1.0283,1.0283,1.0283,1.041,1.0635,1.0635,1.0883,1.1358,1.1358,1.1825,1.2581,1.2815,1.3073,1.3483,1.425,1.4362,1.4198,1.5067,1.568,1.6183,1.6434,1.6522,1.6522,1.6522,1.6522,1.6522,1.6522,1.6748,1.6999,1.6999,1.7809,1.8657,1.8657,1.9947,2.1222,2.1251,2.229,2.3231,2.3223,2.3969,2.4686,2.5106,2.5719,2.6682,2.8216,2.8561,2.9171,3.0709,3.0898,3.105,3.1424,3.2018,3.2273,3.1833,3.2595,3.2723,3.1841,3.2634,3.2926,3.2502,3.1741,3.1299,3.1299,3.0361,3.0016,3.026,2.9644,2.9466,2.9659,2.9195,2.8627,2.7934,2.7475,2.7273,2.7236,2.641,2.6062,2.6043,2.5695,2.575,2.6043,2.5676,2.5695,2.597,2.6429,2.608,2.5531]},{"header":{"parameterUnit":"m.s-1","parameterCategory":1,"la1":30.6,"la2":28.766,"lo1":-90.7593,"lo2":-88.6598,"dy":0.0162,"dx":0.0183,"nx":116,"ny":114,"refTime":"2024-03-19T18:00:00:Z","depth":0,"parameterNumber":3,"parameterNumberName":"V-component_of_WINDS"},"data":[0.0,0.0,0.0,0.0,0.0,0.0,0.0,0.0,0.0,0.0,0.0,0.0,0.0,0.0,0.0,0.0,0.0,0.0,0.0,0.0,0.0,0.0,0.0,0.0,0.0,0.0,0.0,0.0,0.0,0.0,0.0,0.0,0.0,0.0,0.0,0.0,0.0,0.0,0.0,0.0,0.0,0.0,0.0,0.0,0.0,0.0,0.0,0.0,0.0,0.0,0.0,0.0,0.0,0.0,0.0,0.0,0.0,0.0,0.0,0.0,0.0,0.0,0.0,0.0,0.0,0.0,0.0,0.0,0.0,0.0,0.0,0.0,0.0,0.0,0.0,0.0,0.0,0.0,0.0,0.0,0.0,0.0,0.0,0.0,0.0,0.0,0.0,0.0,0.0,0.0,0.0,0.0,0.0,0.0,0.0,0.0,0.0,0.0,0.0,0.0,0.0,0.0,0.0,0.0,0.0,0.0,0.0,0.0,0.0,0.0,0.0,0.0,0.0,0.0,0.0,0.0,0.0,0.0,0.0,0.0,0.0,0.0,0.0,0.0,0.0,0.0,0.0,0.0,0.0,0.0,0.0,0.0,0.0,0.0,0.0,0.0,0.0,0.0,0.0,0.0,0.0,0.0,0.0,0.0,0.0,0.0,0.0,0.0,0.0,0.0,0.0,0.0,0.0,0.0,0.0,0.0,0.0,0.0,0.0,0.0,0.0,0.0,0.0,0.0,0.0,0.0,0.0,0.0,0.0,0.0,0.0,0.0,0.0,0.0,0.0,0.0,0.0,0.0,0.0,0.0,0.0,0.0,0.0,0.0,0.0,0.0,0.0,0.0,0.0,0.0,0.0,0.0,0.0,0.0,0.0,0.0,0.0,0.0,0.0,0.0,0.0,0.0,0.0,0.0,0.0,0.0,0.0,0.0,0.0,0.0,0.0,0.0,0.0,0.0,0.0,0.0,0.0,0.0,0.0,0.0,0.0,0.0,0.0,0.0,0.0,0.0,0.0,0.0,0.0,0.0,0.0,0.0,0.0,0.0,0.0,0.0,0.0,0.0,0.0,0.0,0.0,0.0,0.0,0.0,0.0,0.0,0.0,0.0,0.0,0.0,0.0,0.0,0.0,0.0,0.0,0.0,0.0,0.0,0.0,0.0,0.0,0.0,0.0,0.0,0.0,0.0,0.0,0.0,0.0,0.0,0.0,0.0,0.0,0.0,0.0,0.0,0.0,0.0,0.0,0.0,0.0,0.0,0.0,0.0,0.0,0.0,0.0,0.0,0.0,0.0,0.0,0.0,0.0,0.0,0.0,0.0,0.0,0.0,0.0,0.0,0.0,0.0,0.0,0.0,0.0,0.0,0.0,0.0,0.0,0.0,0.0,0.0,0.0,0.0,0.0,0.0,0.0,0.0,0.0,0.0,0.0,0.0,0.0,0.0,0.0,0.0,0.0,0.0,0.0,0.0,0.0,0.0,0.0,0.0,0.0,0.0,0.0,0.0,0.0,0.0,0.0,0.0,0.0,0.0,0.0,0.0,0.0,0.0,0.0,0.0,0.0,0.0,0.0,0.0,0.0,0.0,0.0,0.0,0.0,0.0,0.0,0.0,0.0,0.0,0.0,0.0,0.0,0.0,0.0,0.0,0.0,0.0,0.0,0.0,0.0,0.0,0.0,0.0,0.0,0.0,0.0,0.0,0.0,0.0,0.0,0.0,0.0,0.0,0.0,0.0,0.0,0.0,0.0,0.0,0.0,0.0,0.0,0.0,0.0,0.0,0.0,0.0,0.0,0.0,0.0,0.0,0.0,0.0,0.0,0.0,0.0,0.0,0.0,0.0,0.0,0.0,0.0,0.0,0.0,0.0,0.0,0.0,0.0,0.0,0.0,0.0,0.0,0.0,0.0,0.0,0.0,0.0,0.0,0.0,0.0,0.0,0.0,0.0,0.0,0.0,0.0,0.0,0.0,0.0,0.0,0.0,0.0,0.0,0.0,0.0,0.0,0.0,0.0,0.0,0.0,0.0,0.0,0.0,0.0,0.0,0.0,0.0,0.0,0.0,0.0,0.0,0.0,0.0,0.0,0.0,0.0,0.0,0.0,0.0,0.0,0.0,0.0,0.0,0.0,0.0,0.0,0.0,0.0,0.0,0.0,0.0,0.0,0.0,0.0,0.0,0.0,0.0,0.0,0.0,0.0,0.0,0.0,0.0,0.0,0.0,0.0,0.0,0.0,0.0,0.0,0.0,0.0,0.0,0.0,0.0,0.0,0.0,0.0,0.0,0.0,0.0,0.0,0.0,0.0,0.0,0.0,0.0,0.0,0.0,0.0,0.0,0.0,0.0,0.0,0.0,0.0,0.0,0.0,0.0,0.0,0.0,0.0,0.0,0.0,0.0,0.0,0.0,0.0,0.0,0.0,0.0,0.0,0.0,0.0,0.0,0.0,0.0,0.0,0.0,0.0,0.0,0.0,0.0,0.0,0.0,0.0,0.0,0.0,0.0,0.0,0.0,0.0,0.0,0.0,0.0,0.0,0.0,0.0,0.0,0.0,0.0,0.0,0.0,0.0,0.0,0.0,0.0,0.0,0.0,0.0,0.0,0.0,0.0,0.0,0.0,0.0,0.0,0.0,0.0,0.0,0.0,0.0,0.0,0.0,0.0,0.0,0.0,0.0,0.0,0.0,0.0,0.0,0.0,0.0,0.0,0.0,0.0,0.0,0.0,0.0,0.0,0.0,0.0,0.0,0.0,0.0,0.0,0.0,0.0,0.0,0.0,0.0,0.0,0.0,0.0,0.0,0.0,0.0,0.0,0.0,0.0,0.0,0.0,0.0,0.0,0.0,0.0,0.0,0.0,0.0,0.0,0.0,0.0,0.0,0.0,0.0,0.0,0.0,0.0,0.0,0.0,0.0,0.0,0.0,0.0,0.0,0.0,0.0,0.0,0.0,0.0,0.0,0.0,0.0,0.0,0.0,0.0,0.0,0.0,0.0,0.0,0.0,0.0,0.0,0.0,0.0,0.0,0.0,0.0,0.0,0.0,0.0,0.0,0.0,0.0,0.0,0.0,0.0,0.0,0.0,0.0,0.0,0.0,0.0,0.0,0.0,0.0,0.0,0.0,0.0,0.0,0.0,0.0,0.0,0.0,0.0,0.0,0.0,0.0,0.0,0.0,0.0,0.0,0.0,0.0,0.0,0.0,0.0,0.0,0.0,0.0,0.0,0.0,0.0,0.0,0.0,0.0,0.0,0.0,0.0,0.0,0.0,0.0,0.0,0.0,0.0,0.0,0.0,0.0,0.0,0.0,0.0,0.0,0.0,0.0,0.0,0.0,0.0,0.0,0.0,0.0,0.0,0.0,0.0,0.0,0.0,0.0,0.0,0.0,0.0,0.0,0.0,0.0,0.0,0.0,0.0,0.0,0.0,0.0,0.0,0.0,0.0,0.0,0.0,0.0,0.0,0.0,0.0,0.0,0.0,0.0,0.0,0.0,0.0,0.0,0.0,0.0,0.0,0.0,0.0,0.0,0.0,0.0,0.0,0.0,0.0,0.0,0.0,0.0,0.0,0.0,0.0,0.0,0.0,0.0,0.0,0.0,0.0,0.0,0.0,0.0,0.0,0.0,0.0,0.0,0.0,0.0,0.0,0.0,0.0,0.0,0.0,0.0,0.0,0.0,0.0,0.0,0.0,0.0,0.0,0.0,0.0,0.0,0.0,0.0,0.0,0.0,0.0,0.0,0.0,0.0,0.0,0.0,0.0,0.0,0.0,0.0,0.0,0.0,0.0,0.0,0.0,0.0,0.0,0.0,0.0,0.0,0.0,0.0,0.0,0.0,0.0,0.0,0.0,0.0,0.0,0.0,0.0,0.0,0.0,0.0,0.0,0.0,0.0,0.0,0.0,0.0,0.0,0.0,0.0,0.0,0.0,0.0,0.0,0.0,0.0,0.0,0.0,0.0,0.0,0.0,0.0,0.0,0.0,0.0,0.0,0.0,0.0,0.0,0.0,0.0,0.0,0.0,0.0,0.0,0.0,0.0,0.0,0.0,0.0,0.0,0.0,0.0,0.0,0.0,0.0,0.0,0.0,0.0,0.0,0.0,0.0,0.0,0.0,0.0,0.0,0.0,0.0,0.0,0.0,0.0,0.0,0.0,0.0,0.0,0.0,0.0,0.0,0.0,0.0,0.0,0.0,0.0,0.0,0.0,0.0,0.0,0.0,0.0,0.0,0.0,0.0,0.0,0.0,0.0,0.0,0.0,0.0,0.0,0.0,0.0,0.0,0.0,0.0,0.0,0.0,0.0,0.0,0.0,0.0,0.0,0.0,0.0,0.0,0.0,0.0,0.0,0.0,0.0,0.0,0.0,0.0,0.0,0.0,0.0,0.0,0.0,0.0,0.0,0.0,0.0,0.0,0.0,0.0,0.0,0.0,0.0,0.0,0.0,0.0,0.0,0.0,0.0,0.0,0.0,0.0,0.0,0.0,0.0,0.0,0.0,0.0,0.0,0.0,0.0,0.0,0.0,0.0,0.0,0.0,0.0,0.0,0.0,0.0,0.0,0.0,0.0,0.0,0.0,0.0,0.0,0.0,0.0,0.0,0.0,0.0,0.0,0.0,0.0,0.0,0.0,0.0,0.0,0.0,0.0,0.0,0.0,0.0,0.0,0.0,0.0,0.0,0.0,0.0,0.0,0.0,0.0,0.0,0.0,0.0,0.0,0.0,0.0,0.0,0.0,0.0,0.0,0.0,0.0,0.0,0.0,0.0,0.0,0.0,0.0,0.0,0.0,0.0,0.0,0.0,0.0,0.0,0.0,0.0,0.0,0.0,0.0,0.0,0.0,0.0,0.0,0.0,0.0,0.0,0.0,0.0,0.0,0.0,0.0,0.0,0.0,0.0,0.0,0.0,0.0,0.0,0.0,0.0,0.0,0.0,0.0,0.0,0.0,0.0,0.0,0.0,0.0,0.0,0.0,0.0,0.0,0.0,0.0,0.0,0.0,0.0,0.0,0.0,0.0,0.0,0.0,0.0,0.0,0.0,0.0,0.0,0.0,0.0,0.0,0.0,0.0,0.0,0.0,0.0,0.0,0.0,0.0,0.0,0.0,0.0,0.0,0.0,0.0,0.0,0.0,0.0,0.0,0.0,0.0,0.0,0.0,0.0,0.0,0.0,0.0,0.0,0.0,0.0,0.0,0.0,0.0,0.0,0.0,0.0,0.0,0.0,0.0,0.0,0.0,0.0,0.0,0.0,0.0,0.0,0.0,0.0,0.0,0.0,0.0,0.0,0.0,0.0,0.0,0.0,0.0,0.0,0.0,0.0,0.0,0.0,0.0,0.0,0.0,0.0,0.0,0.0,0.0,0.0,0.0,0.0,0.0,0.0,0.0,0.0,0.0,0.0,0.0,0.0,0.0,0.0,0.0,0.0,0.0,0.0,0.0,0.0,0.0,0.0,0.0,0.0,0.0,0.0,0.0,0.0,0.0,0.0,0.0,0.0,0.0,0.0,0.0,0.0,0.0,0.0,0.0,0.0,0.0,0.0,0.0,0.0,0.0,0.0,0.0,0.0,0.0,0.0,0.0,0.0,0.0,0.0,0.0,0.0,0.0,0.0,0.0,0.0,0.0,0.0,0.0,0.0,0.0,0.0,0.0,0.0,0.0,0.0,0.0,0.0,0.0,0.0,0.0,0.0,0.0,0.0,0.0,0.0,0.0,0.0,0.0,0.0,0.0,0.0,0.0,0.0,0.0,0.0,0.0,0.0,0.0,0.0,0.0,0.0,0.0,0.0,0.0,0.0,0.0,0.0,0.0,0.0,0.0,0.0,0.0,0.0,0.0,0.0,0.0,0.0,0.0,0.0,0.0,0.0,0.0,0.0,0.0,0.0,0.0,0.0,0.0,0.0,0.0,0.0,0.0,0.0,0.0,0.0,0.0,0.0,0.0,0.0,0.0,0.0,0.0,0.0,0.0,0.0,0.0,0.0,0.0,0.0,0.0,0.0,0.0,0.0,0.0,0.0,0.0,0.0,0.0,0.0,0.0,0.0,0.0,0.0,0.0,0.0,0.0,0.0,0.0,0.0,0.0,0.0,0.0,0.0,0.0,-0.6517,0.0,0.0,0.0,0.0,0.0,0.0,0.0,0.0,0.0,0.0,0.0,0.0,0.0,0.0,0.0,0.0,0.0,0.0,0.0,0.0,0.0,0.0,0.0,0.0,0.0,0.0,0.0,-0.2755,-0.2645,-0.2215,-0.2061,-0.1805,-0.1416,-0.1372,-0.1307,-0.1199,-0.1458,-0.1844,-0.238,-0.2445,-0.2585,-0.2808,-0.2729,-0.2339,-0.1715,0.0,0.0,0.0,0.0,0.0,0.0,0.0,0.0,0.0,0.0,0.0,0.0,0.0,0.0,0.0,0.0,0.0,0.0,0.0,0.0,0.0,0.0,0.0,0.0,0.0,0.0,0.0,0.0,0.0,0.0,0.0,0.0,0.0,0.0,0.0,0.0,0.0,0.0,0.0,0.0,0.0,0.0,0.0,0.0,0.0,0.0,0.0,0.0,0.0,0.0,0.0,0.0,0.0,0.0,0.0,0.0,0.0,0.0,0.0,0.0,0.0,0.0,0.0,0.0,0.0,0.0,0.0,0.0,0.0,0.0,0.0,-0.6145,0.0,0.0,0.0,0.0,0.0,0.0,0.0,0.0,0.0,0.0,0.0,0.0,0.0,0.0,0.0,0.0,0.0,0.0,0.0,0.0,0.0,0.0,0.0,-0.266,-0.2768,-0.3129,-0.34,-0.3301,-0.2722,-0.2568,-0.2209,-0.1557,-0.1553,-0.149,-0.1341,-0.1861,-0.2454,-0.309,-0.3583,-0.4068,-0.4533,-0.4649,-0.3947,-0.2593,0.0,0.0,0.0,0.0,0.0,0.0,0.0,0.0,0.0,0.0,0.0,0.0,0.0,0.0,0.0,0.0,0.0,0.0,0.0,0.0,0.0,0.0,0.0,0.0,0.0,0.0,0.0,0.0,0.0,0.0,0.0,0.0,0.0,0.0,0.0,0.0,0.0,0.0,0.0,0.0,0.0,0.0,0.0,0.0,0.0,0.0,0.0,0.0,0.0,0.0,0.0,0.0,0.0,0.0,0.0,0.0,0.0,0.0,0.0,0.0,0.0,0.0,0.0,0.0,0.0,0.0,-0.9709,-0.9709,-0.9941,-1.0147,-0.764,-0.6673,-0.6746,0.0,0.0,0.0,0.0,0.0,0.0,0.0,0.0,0.0,0.0,0.0,0.0,0.0,0.0,0.0,0.0,0.0,0.0,0.0,0.0,0.0,0.0,-0.3321,-0.3287,-0.3735,-0.3774,-0.3544,-0.3067,-0.2963,-0.2648,-0.2035,-0.2385,-0.2385,-0.1901,-0.2421,-0.3081,-0.3856,-0.5243,-0.6296,-0.7029,-0.7107,-0.6904,-0.6358,-0.4312,0.0,0.0,0.0,0.0,0.0,0.0,0.0,0.0,0.0,0.0,0.0,0.0,0.0,0.0,0.0,0.0,0.0,0.0,0.0,0.0,0.0,0.0,0.0,0.0,0.0,0.0,0.0,0.0,0.0,0.0,0.0,0.0,0.0,0.0,0.0,0.0,0.0,0.0,0.0,0.0,0.0,0.0,0.0,-0.7273,-0.7691,0.0,0.0,0.0,0.0,0.0,0.0,0.0,0.0,0.0,0.0,0.0,0.0,0.0,0.0,-0.8858,-0.921,-0.9606,-0.9989,-1.0097,-1.0185,-1.0195,-1.0195,-1.0225,-1.0264,-0.9515,0.0,-0.8101,-0.7473,0.0,0.0,0.0,0.0,0.0,0.0,0.0,0.0,0.0,0.0,0.0,0.0,0.0,0.0,0.0,0.0,0.0,0.0,0.0,0.0,0.0,-0.4896,-0.5276,-0.5565,-0.6662,-0.6465,-0.4418,-0.5134,-0.4703,-0.2585,-0.2719,-0.2728,-0.2456,-0.3378,-0.4819,-0.6754,-0.7922,-0.8684,-0.9016,-0.8923,-0.8596,-0.8021,-0.6448,-0.5474,-0.49,-0.3471,0.0,0.0,0.0,0.0,0.0,0.0,0.0,0.0,0.0,0.0,0.0,0.0,0.0,0.0,0.0,0.0,0.0,0.0,0.0,0.0,0.0,0.0,0.0,0.0,0.0,0.0,0.0,0.0,0.0,0.0,0.0,0.0,0.0,0.0,0.0,0.0,0.0,0.0,0.0,-0.7729,-0.8265,-0.784,-0.8128,-0.8229,0.0,0.0,0.0,0.0,0.0,0.0,0.0,0.0,0.0,-0.8909,-0.9317,-0.9639,-0.98,-1.0175,-1.0607,-1.1192,-1.1655,-1.189,-1.19,-1.2156,-1.2071,-1.1728,-1.1301,-1.0765,-1.0056,-0.8299,-0.7266,-0.6697,0.0,0.0,0.0,0.0,0.0,-0.643,0.0,0.0,0.0,0.0,0.0,0.0,0.0,0.0,0.0,0.0,0.0,0.0,-0.5689,-0.6786,-0.7479,-0.7683,-0.9154,-0.8939,-0.6227,-0.6974,-0.6378,-0.3812,-0.3617,-0.3587,-0.364,-0.5047,-0.7,-0.9523,-1.0424,-1.1069,-1.1455,-1.1219,-1.0858,-1.033,-0.9279,-0.7697,-0.5751,-0.4092,-0.2556,0.0,0.0,0.0,0.0,0.0,0.0,0.0,0.0,0.0,0.0,0.0,0.0,0.0,0.0,0.0,0.0,0.0,0.0,0.0,0.0,0.0,0.0,0.0,0.0,0.0,0.0,0.0,0.0,0.0,0.0,0.0,0.0,0.0,0.0,0.0,0.0,0.0,0.0,-0.8474,-0.8717,-0.8015,-0.8338,-0.8414,0.0,0.0,0.0,0.0,0.0,0.0,-0.919,-0.9722,-1.0133,-1.0382,-1.0592,-1.0903,-1.1286,-1.1572,-1.1954,-1.2383,-1.2973,-1.3299,-1.331,-1.3481,-1.342,-1.3084,-1.2577,-1.2207,-1.1752,-0.9373,-0.823,-0.792,-0.7117,-0.6671,0.0,-0.6747,-0.6814,-0.6887,0.0,0.0,0.0,0.0,0.0,0.0,0.0,0.0,0.0,0.0,0.0,-0.5255,-0.802,-0.8896,-0.9416,-0.9805,-0.9939,-0.9536,-0.8403,-0.7518,-0.6766,-0.615,-0.5644,-0.5552,-0.5923,-0.7744,-0.9509,-1.1174,-1.2173,-1.3417,-1.4857,-1.4572,-1.4501,-1.4538,-1.3012,-0.9817,-0.5447,-0.4326,-0.2841,-0.1115,0.0,0.0,0.0,0.0,0.0,0.0,0.0,0.0,0.0,0.0,0.0,0.0,0.0,0.0,0.0,0.0,0.0,0.0,0.0,0.0,0.0,0.0,0.0,0.0,0.0,0.0,0.0,0.0,0.0,0.0,0.0,0.0,0.0,0.0,0.0,0.0,0.0,0.0,0.0,-0.8533,-0.8953,0.0,0.0,0.0,0.0,-0.8969,-0.9346,-0.9775,-1.0204,-1.0263,-1.0704,-1.1657,-1.1789,-1.2481,-1.3912,-1.3946,-1.3872,-1.371,-1.3763,-1.3784,-1.3737,-1.318,-1.3238,-1.3732,-1.3132,-1.2832,-1.2744,-1.1241,-1.0213,-0.9518,-0.8709,-0.8215,-0.7938,-0.7577,-0.7466,-0.7513,0.0,0.0,0.0,0.0,0.0,0.0,0.0,0.0,-0.3089,-0.4764,-0.5558,-0.7088,-1.0047,-1.11,-1.2065,-1.3237,-1.3383,-1.2507,-1.0385,-0.9897,-0.8811,-0.6836,-0.7144,-0.7808,-0.8778,-0.9667,-1.1073,-1.3048,-1.4397,-1.5412,-1.6082,-1.6184,-1.6118,-1.5833,-1.3914,-1.1813,-0.9526,-0.6222,-0.3844,-0.2205,-0.0505,0.034,0.0,0.0,0.0,0.0,0.0,0.0,0.0,0.0,0.0,0.0,0.0,0.0,0.0,0.0,0.0,0.0,0.0,0.0,0.0,0.0,0.0,0.0,0.0,0.0,0.0,0.0,0.0,0.0,0.0,0.0,0.0,0.0,0.0,0.0,0.0,0.0,0.0,-0.9668,-1.0421,0.0,0.0,-0.9995,-1.0194,-0.9844,-1.0478,-1.082,-1.0693,-1.123,-1.1844,-1.2615,-1.2975,-1.3561,-1.4496,-1.4496,-1.4665,-1.4949,-1.4949,-1.4949,-1.4949,-1.4329,-1.3967,-1.3779,-1.3152,-1.2881,-1.2881,-1.2628,-1.1865,-1.0685,-0.9771,-0.9075,-0.8685,-0.9462,-0.9471,-0.9168,0.0,0.0,0.0,0.0,0.0,0.0,0.0,0.0,-0.381,-0.538,-0.6872,-0.8826,-1.1578,-1.3455,-1.4809,-1.5579,-1.5434,-1.4264,-1.1805,-1.1067,-0.9882,-0.7988,-0.8701,-0.9645,-1.0742,-1.1538,-1.2919,-1.4894,-1.595,-1.6791,-1.7364,-1.762,-1.7718,-1.7664,-1.5921,-1.4458,-1.3023,-0.925,-0.6062,-0.3386,-0.168,0.0149,0.1824,0.0,0.0,0.0,0.0,0.0,0.0,0.0,0.0,0.0,0.0,0.0,0.0,0.0,0.0,0.0,0.0,0.0,0.0,0.0,0.0,0.0,0.0,0.0,0.0,0.0,0.0,0.0,0.0,0.0,0.0,0.0,0.0,0.0,0.0,0.0,-1.1211,-1.088,-1.158,-1.1711,-1.0787,-1.0954,-1.1016,-1.0773,-1.1377,-1.1728,-1.1582,-1.2129,-1.2795,-1.3624,-1.3936,-1.4514,-1.5299,-1.5287,-1.5421,-1.5588,-1.5588,-1.5588,-1.5588,-1.4778,-1.4283,-1.4061,-1.3399,-1.3096,-1.3125,-1.3545,-1.3167,-1.2209,-1.135,-1.0719,-1.0392,-1.1114,-1.1088,-1.079,0.0,0.0,0.0,0.0,0.0,0.0,0.0,-0.2963,-0.3729,-0.4895,-0.765,-1.0376,-1.2628,-1.5866,-1.7512,-1.6659,-1.5773,-1.4488,-1.2678,-1.083,-0.9798,-0.978,-1.0331,-1.1011,-1.1804,-1.3424,-1.5047,-1.6631,-1.68,-1.7594,-1.8936,-1.8956,-1.9419,-2.0175,-1.9177,-1.7612,-1.5556,-1.3323,-0.9485,-0.4766,-0.3556,-0.0657,0.2759,0.0,0.0,0.0,0.0,0.0,0.0,0.0,0.0,0.0,0.0,0.0,0.0,0.0,0.0,0.0,0.0,0.0,0.0,0.0,0.0,0.0,0.0,0.0,0.0,0.0,0.0,0.0,0.0,0.0,0.0,0.0,0.0,0.0,-0.9862,-1.1063,-1.194,-1.2146,-1.2414,-1.2337,-1.1653,-1.1634,-1.1689,-1.1689,-1.2002,-1.2432,-1.2861,-1.2881,-1.343,-1.4663,-1.4698,-1.5287,-1.6479,-1.6522,-1.6194,-1.5632,-1.5644,-1.5656,-1.5611,-1.4398,-1.4186,-1.4684,-1.387,-1.3525,-1.3555,-1.3984,-1.4097,-1.4043,-1.3368,-1.3141,-1.3032,-1.2381,-1.2175,-1.2128,0.0,0.0,0.0,0.0,0.0,0.0,0.0,-0.3162,-0.4205,-0.5742,-0.8278,-1.1113,-1.4191,-1.5936,-1.7276,-1.8222,-1.593,-1.4198,-1.3617,-1.1399,-1.054,-1.1543,-1.1507,-1.2381,-1.4345,-1.5309,-1.6273,-1.7238,-1.842,-1.9166,-1.9555,-2.0159,-2.0544,-2.0717,-1.9669,-1.8876,-1.8079,-1.5307,-1.2743,-1.0246,-0.6052,-0.3285,-0.1389,0.0,0.0,0.0,0.0,0.0,0.0,0.0,0.0,0.0,0.0,0.0,0.0,0.0,0.0,0.0,0.0,0.0,0.0,0.0,0.0,0.0,0.0,0.0,0.0,0.0,0.0,0.0,0.0,0.0,0.0,0.0,0.0,-1.0368,-1.0978,-1.2146,-1.3094,-1.3497,-1.4258,-1.4479,-1.3881,-1.3424,-1.3217,-1.3217,-1.2892,-1.2754,-1.2871,-1.2881,-1.343,-1.4663,-1.4698,-1.5287,-1.6479,-1.6522,-1.6423,-1.625,-1.6702,-1.6901,-1.6868,-1.5955,-1.5626,-1.5735,-1.446,-1.3965,-1.3994,-1.4424,-1.4609,-1.457,-1.4032,-1.353,-1.3177,-1.3811,-1.3531,-1.2652,0.0,0.0,0.0,0.0,0.0,0.0,0.0,-0.324,-0.4409,-0.6084,-0.8867,-1.1704,-1.4397,-1.5808,-1.6975,-1.8076,-1.5577,-1.3695,-1.3164,-1.1579,-1.1014,0.0,0.0,-1.3801,-1.5563,-1.6493,-1.734,-1.8127,-1.9251,-1.9958,-2.0285,-2.1092,-2.154,-2.1678,-2.0891,-2.0305,-1.979,-1.7598,-1.5839,-1.421,-1.0616,-0.7026,-0.3587,-0.1342,-0.0,0.0706,0.0836,0.1338,0.2012,0.2564,0.0,0.0,0.0,0.0,0.0,0.0,0.0,0.0,0.0,0.0,0.0,0.0,0.0,0.0,0.0,0.0,0.0,0.0,0.0,0.0,0.0,0.0,0.0,0.0,-1.0857,-1.1749,-1.2816,-1.339,-1.3948,-1.4656,-1.5233,-1.5454,-1.5096,-1.4514,-1.405,-1.3815,-1.3457,-1.3152,-1.2929,-1.2881,-1.356,-1.5,-1.4578,-1.5119,-1.6724,-1.6549,-1.6549,-1.6782,-1.7414,-1.7727,-1.7681,-1.6648,-1.6188,0.0,-1.4897,-1.4404,-1.4443,-1.4873,-1.5049,0.0,0.0,0.0,0.0,0.0,-1.4073,-1.3364,0.0,0.0,0.0,0.0,0.0,0.0,0.0,-0.3214,-0.4339,-0.6015,-0.9125,-1.1832,-1.3508,-1.5218,-1.6347,-1.6584,-1.4576,-1.2911,-1.1968,-1.1632,0.0,-1.1628,-1.3743,-1.537,-1.6329,-1.7499,-1.8504,-1.9339,-1.9882,-2.0461,-2.1093,-2.187,-2.2394,-2.2746,-2.2371,-2.1802,-2.1019,-1.9991,-1.8731,-1.7297,-1.6081,-1.1426,-0.5295,-0.5712,-0.4019,-0.1426,-0.1155,-0.0306,0.0912,0.2251,0.0,0.0,0.0,0.0,0.0,0.0,0.0,0.0,0.0,0.0,0.0,0.0,0.0,0.0,0.0,0.0,0.0,0.0,0.0,0.0,0.0,0.0,0.0,0.0,-1.2227,-1.329,-1.485,-1.467,-1.4681,-1.5584,-1.572,-1.572,-1.572,-1.5152,-1.4582,-1.4125,-1.3936,-1.3693,-1.3312,0.0,0.0,0.0,0.0,-1.503,-1.7096,-1.6693,-1.6693,-1.7108,-1.7895,-1.8292,-1.8257,-1.7027,-1.6446,-1.6316,-1.5382,-1.4966,-1.4883,-1.5254,-1.541,-1.541,-1.541,-1.541,-1.5294,-1.4392,-1.4085,0.0,0.0,0.0,0.0,0.0,0.0,0.0,0.0,-0.3051,-0.3985,-0.5607,-0.7855,-0.9965,-1.1637,-1.3174,-1.4124,-1.4162,-1.2107,-1.1128,-1.1928,0.0,-1.3008,-1.4288,-1.6019,-1.7622,-1.9084,-1.9994,-2.076,-2.1421,-2.1951,-2.2205,-2.2201,-2.2736,-2.3024,-2.3093,-2.3028,-2.287,-2.2667,-2.172,-2.121,-2.0927,-1.9223,-1.5543,-1.084,-0.886,-0.7314,-0.6173,-0.5427,-0.3716,-0.1783,-0.1667,-0.1229,-0.0724,-0.0366,0.0,0.0,0.0,0.0,0.0,0.0,0.0,0.0,0.0,0.0,0.0,0.0,0.0,0.0,0.0,0.0,0.0,0.0,0.0,0.0,-1.2259,-1.3575,-1.4687,-1.5389,-1.5757,-1.6047,-1.6275,-1.6337,-1.6337,-1.6337,-1.5776,-1.5574,-1.5846,-1.4886,-1.469,-1.5698,-1.5084,0.0,-1.6929,-1.6139,-1.6173,-1.7108,-1.7002,-1.7002,-1.7108,0.0,0.0,-1.8833,-1.8406,-1.7878,-1.731,-1.6528,-1.5857,-1.5293,-1.5381,-1.541,-1.541,-1.541,-1.541,-1.5235,-1.3795,-1.3243,-1.3042,0.0,0.0,0.0,0.0,0.0,0.0,0.0,-0.1871,-0.2918,-0.4675,-0.6513,-0.8257,-0.9868,-1.0703,-1.1326,-1.1767,-1.0756,-1.0756,0.0,-1.3008,-1.389,-1.5152,-1.7504,-1.9172,-1.9984,-2.1123,-2.1846,-2.2149,-2.2821,-2.3105,-2.3026,-2.3695,-2.3912,-2.3737,-2.3668,-2.352,-2.333,-2.2853,-2.2588,-2.2434,-2.1518,-1.9574,-1.6859,-1.3552,-1.1414,-1.0022,-0.9017,-0.7429,-0.5918,-0.6728,-0.5491,-0.3574,-0.3475,-0.2795,-0.1938,0.0,0.0,0.0,0.0,0.0,0.0,0.0,0.0,0.0,0.0,0.0,0.0,0.0,0.0,-0.9621,0.0,0.0,-1.2691,-1.369,-1.4875,-1.5761,-1.6001,-1.6284,-1.6446,-1.6504,-1.6522,-1.6635,-1.6923,-1.6658,-1.6596,-1.6824,-1.6224,-1.6007,-1.6389,-1.6025,-1.6379,-1.7661,-1.6765,-1.6627,-1.7364,-1.7173,-1.6968,-1.6799,-1.7798,-1.8294,-1.8306,-1.7793,-1.7413,-1.7034,-1.6255,-1.5748,-1.541,-1.541,-1.541,-1.541,-1.541,-1.541,-1.5225,-1.4034,-1.3726,-1.3732,0.0,0.0,0.0,0.0,0.0,0.0,0.0,-0.0597,-0.1804,-0.3945,-0.5364,-0.6696,-0.8109,-0.8325,-0.8555,-0.9022,-0.9498,-1.0687,0.0,-1.3777,-1.4879,-1.6254,-1.8785,-2.0404,-2.0908,-2.1909,-2.2557,-2.2835,-2.3468,-2.3769,-2.3779,-2.4464,-2.4659,-2.4375,-2.4226,-2.4007,-2.3741,-2.3741,-2.3656,-2.3498,-2.3336,-2.2936,-2.2101,-1.8796,-1.6039,-1.3755,-1.2362,-1.1,-1.0108,-1.1242,-0.938,-0.6687,-0.7348,-0.6371,-0.4987,-0.4847,-0.4077,0.0,0.0,0.0,0.0,0.0,0.0,0.0,0.0,0.0,-0.7953,-0.9308,-0.988,-1.0588,-1.1962,-1.3064,-1.4104,-1.4969,-1.6041,-1.6694,-1.6523,-1.6609,-1.6647,-1.6491,-1.6522,-1.6697,-1.7162,-1.7313,-1.7405,-1.7496,-1.7423,-1.7322,-1.7078,-1.6786,-1.7173,-1.8403,-1.7248,-1.7006,-1.7786,-1.7359,-1.7036,-1.6922,-1.7523,-1.7907,-1.8015,-1.7246,-1.6877,-1.6652,-1.5896,-1.5586,-1.5664,-1.5576,-1.5537,-1.5527,-1.5449,-1.541,-1.5303,-1.4602,-1.459,-1.464,0.0,0.0,0.0,0.0,0.0,0.0,0.0,0.0,-0.1228,-0.4233,-0.4834,-0.5335,-0.6209,-0.6636,-0.6448,-0.5476,-0.7361,0.0,-1.3295,-1.4603,-1.6633,-1.9785,-2.0251,-2.151,-2.378,-2.317,-2.3467,-2.4782,-2.4817,-2.4778,-2.4653,-2.4747,-2.4771,-2.4756,-2.4727,-2.4678,-2.4644,-2.4644,-2.5027,-2.5595,-2.4879,-2.4817,-2.5038,-2.3886,-2.13,-1.799,-1.5671,-1.3978,-1.2853,-1.3002,-1.1753,-1.0398,-1.1915,-1.0818,-0.8933,-0.8812,0.0,-0.5616,-0.484,-0.47,0.0,-0.6008,-0.6264,-0.7014,0.0,0.0,-0.984,-1.1919,-1.228,-1.2413,-1.31,-1.4476,-1.5516,-1.5548,-1.6929,-1.7634,-1.6616,-1.6961,-1.7099,-1.6572,-1.6522,-1.6547,-1.6609,-1.7087,-1.7614,-1.8059,-1.7908,-1.8316,-1.938,-1.8177,-1.8135,-1.9544,-1.82,-1.7847,-1.8555,-1.7904,-1.785,-1.8447,-1.8555,-1.8927,-1.9527,-1.8768,-1.8124,-1.7435,-1.6453,-1.6211,-1.6553,-1.6152,-1.5986,-1.5947,-1.5566,-1.541,-1.5342,-1.4976,-1.4834,-1.472,0.0,0.0,0.0,0.0,0.0,0.0,0.0,0.0,0.0,-0.4226,-0.4674,-0.4836,-0.5259,-0.5487,-0.5401,-0.4893,-0.7035,0.0,-1.2487,-1.4381,-1.6491,-1.8945,-2.0469,-2.1986,-2.3575,-2.3628,-2.4219,-2.5322,-2.529,-2.5256,-2.5218,-2.5218,-2.5218,-2.5199,-2.5091,-2.5034,-2.5022,-2.5034,-2.5219,-2.5517,-2.5171,-2.5235,-2.5356,-2.3684,-2.2282,-2.0958,-1.9125,-1.7046,0.0,0.0,-1.3845,-1.3092,-1.3176,-1.1876,-1.0312,-1.0107,-0.8518,0.0,-0.6674,0.0,0.0,0.0,-0.9011,-0.9917,-1.1362,-1.1559,-1.185,-1.3275,-1.3479,-1.3671,-1.4545,-1.5508,-1.6137,0.0,-1.7053,-1.7451,-1.6635,-1.6722,-1.6785,-1.6547,-1.6795,-1.6965,-1.703,-1.7237,-1.7739,-1.8618,-1.8573,-1.8919,-1.9773,-1.9202,-1.8992,-1.915,-1.8555,-1.7961,-1.7413,-1.7523,-1.7523,-1.7413,-1.7841,-1.8232,-1.8501,-1.7743,-1.7175,-1.6726,-1.6556,-1.6562,-1.6719,-1.6533,-1.6455,-1.6436,-1.625,-1.6182,-1.6111,-1.5718,-1.5718,-1.5759,0.0,0.0,0.0,0.0,0.0,0.0,0.0,0.0,0.0,0.0,-0.3844,-0.4363,-0.4763,-0.4868,-0.49,-0.4896,0.0,0.0,0.0,-1.3498,-1.5789,-1.8242,-2.0137,-2.1855,-2.3418,-2.3747,-2.4438,-2.5536,-2.5522,-2.5509,-2.549,-2.5468,-2.5478,-2.5478,-2.5297,-2.5239,-2.5231,-2.5236,-2.5233,-2.5234,-2.5224,-2.5026,-2.4542,-2.287,-2.1738,-2.0873,-1.9782,-1.7988,0.0,0.0,-1.4599,-1.411,-1.3716,-1.2596,-1.1381,-1.1155,-0.9717,-0.829,-0.8672,0.0,0.0,-1.0661,-1.1676,-1.2646,-1.2901,-1.3168,-1.3633,-1.4565,-1.4621,-1.4844,-1.5867,-1.65,0.0,-1.6956,-1.7337,-1.7384,-1.6799,-1.671,-1.671,-1.671,-1.7188,-1.7483,-1.7383,-1.7543,-1.7885,-1.8505,-1.8857,-1.9196,-1.9572,-1.9505,-1.9371,-1.898,-1.8608,-1.8058,-1.7413,-1.7523,-1.7413,-1.709,-1.7468,-1.7578,-1.7578,-1.6949,-1.6532,-1.6269,-1.6719,-1.6982,-1.708,-1.6963,-1.6914,-1.6894,-1.6777,-1.6665,-1.6709,-1.6504,-1.6631,-1.6706,0.0,0.0,0.0,0.0,0.0,0.0,0.0,0.0,0.0,0.0,0.0,0.0,0.0,-0.4857,-0.489,0.0,0.0,0.0,0.0,-1.1868,-1.4791,-1.9062,-1.9336,-2.0937,-2.4297,-2.3555,-2.3945,-2.5605,-2.5538,-2.5503,-2.5508,-2.5436,-2.539,-2.539,-2.5332,-2.5293,-2.5292,-2.5292,-2.5292,-2.5292,-2.5292,-2.4297,-2.2773,-2.2632,-2.0052,-1.6462,-1.623,0.0,0.0,-1.4297,-1.3372,-1.279,-1.4147,-1.3717,0.0,-1.257,-1.1565,-1.0562,0.0,0.0,-1.1938,-1.278,-1.3667,-1.4417,-1.4817,-1.4803,-1.5061,-1.6175,-1.594,-1.5915,-1.705,-1.7715,-1.814,-1.8043,-1.8108,-1.7968,-1.735,-1.7271,-1.7271,-1.7271,-1.7747,-1.7867,0.0,-1.7824,-1.7987,-1.7471,-1.843,-1.8983,-1.8995,-1.883,-1.9032,-1.9747,-1.8382,-1.8286,-1.9695,-1.8286,-1.7961,-1.8608,-1.7961,-1.7578,-1.7589,-1.7301,-1.7012,-1.6738,-1.7178,-1.7598,-1.7939,-1.7529,-1.7363,-1.7324,-1.6894,-1.6665,-1.6777,-1.7197,-1.7353,-1.728,0.0,0.0,0.0,0.0,0.0,0.0,0.0,0.0,0.0,0.0,0.0,0.0,0.0,0.0,0.0,0.0,0.0,0.0,0.0,-1.0589,-1.2792,-1.4909,-1.6604,-1.8588,-2.0904,-2.066,-2.1618,-2.3876,-2.327,-2.3277,-2.3843,-2.3827,-2.4129,-2.4659,-2.451,-2.4736,-2.5226,-2.5091,-2.4725,-2.4191,-2.3659,-2.274,-2.1504,-1.9745,-1.7877,-1.5932,0.0,0.0,0.0,-1.2412,-1.2366,-1.2572,-1.2293,0.0,-1.2389,-1.2293,-1.2824,-1.3426,0.0,0.0,-1.5053,-1.5623,-1.6048,-1.6457,-1.6917,-1.7036,-1.6903,-1.6583,-1.6464,-1.6307,-1.6049,-1.6888,-1.7589,-1.7336,-1.8034,-1.8418,-1.7881,-1.7827,-1.7827,-1.7827,-1.7987,0.0,0.0,0.0,0.0,-1.744,-1.8413,-1.9003,-1.9007,-1.9255,-1.9307,-1.9097,-1.8608,-1.834,-1.8328,-1.834,-1.8447,-1.8715,-1.8927,-1.8555,-1.76,-1.8137,-1.7706,-1.6714,-1.749,-1.7881,-1.7998,-1.7852,-1.7803,-1.7783,-1.7637,-1.7578,-1.7598,-1.7744,-1.7803,-1.7678,0.0,0.0,0.0,0.0,0.0,0.0,0.0,0.0,0.0,0.0,0.0,0.0,0.0,0.0,0.0,0.0,0.0,0.0,0.0,0.0,-1.0725,-1.2232,-1.3898,-1.5725,-1.7754,-1.7509,-1.8434,-2.0648,-2.0094,-2.0279,-2.1104,-2.1075,-2.1533,-2.2364,-2.2201,-2.2546,-2.329,-2.281,-2.2313,-2.1775,-2.091,-1.9858,-1.8624,-1.6929,-1.5431,0.0,0.0,0.0,-1.1483,-1.0956,-1.1233,-1.1725,-1.1261,-1.1771,-1.264,-1.3145,-1.4195,-1.5367,-1.6042,-1.6865,-1.7577,-1.793,-1.8183,-1.8309,-1.8127,-1.8043,-1.7723,-1.6602,-1.6257,-1.5935,-1.5252,-1.6138,-1.6951,-1.6717,-1.7726,-1.8401,-1.8019,-1.8372,-1.8637,-1.8717,-1.9112,0.0,0.0,0.0,0.0,-1.7163,-1.8481,-1.9196,-1.8719,-1.9409,-1.9579,-1.9097,-1.8821,-1.8608,-1.8394,-1.8608,-1.8555,-1.8286,-1.8263,-1.772,-1.6832,-1.76,-1.7368,-1.6543,-1.7412,-1.7695,-1.7578,-1.7881,-1.792,-1.7803,-1.7949,-1.8008,-1.8008,-1.8008,-1.8008,-1.794,0.0,0.0,0.0,0.0,0.0,0.0,0.0,0.0,0.0,0.0,0.0,0.0,0.0,0.0,0.0,0.0,0.0,0.0,0.0,0.0,0.0,-1.1028,-1.1289,-1.2518,-1.4983,-1.4265,-1.466,-1.6254,-1.6334,-1.6776,-1.7555,-1.7489,-1.792,-1.8748,-1.8602,-1.899,-1.9679,-1.8785,-1.8386,-1.8273,-1.7342,-1.5932,-1.4415,-1.4389,0.0,0.0,0.0,0.0,0.0,0.0,0.0,0.0,0.0,-1.2413,-1.3724,-1.5189,-1.5844,-1.6633,-1.9113,-1.9636,-1.9479,-1.9722,-2.0039,-1.9939,-1.8503,-1.8012,-1.7534,-1.6302,-1.5488,-1.4937,0.0,0.0,-1.6391,-1.64,-1.7489,-1.822,-1.7949,-1.8984,-1.9795,0.0,0.0,0.0,0.0,0.0,0.0,-1.6845,0.0,-1.9478,-1.8361,-1.9233,-1.9798,-1.9798,-1.915,-1.9097,-1.9798,-1.9097,-1.8394,-1.7688,-1.6301,-1.5633,-1.5594,-1.6039,-1.6196,-1.6204,-1.7076,-1.7148,-1.6826,-1.7666,-1.7744,-1.7393,-1.7812,-1.7978,-1.7978,-1.7949,-1.7959,-1.7978,0.0,0.0,0.0,0.0,0.0,0.0,0.0,0.0,0.0,0.0,0.0,0.0,0.0,0.0,0.0,0.0,0.0,0.0,0.0,0.0,0.0,0.0,0.0,0.0,0.0,0.0,0.0,0.0,-1.4411,-1.4802,-1.5551,-1.5521,-1.5948,-1.6725,-1.6549,-1.6929,-1.7713,-1.7309,-1.6807,-1.6195,0.0,-1.4391,-1.3327,0.0,0.0,0.0,0.0,0.0,0.0,0.0,0.0,0.0,0.0,-1.5739,-1.6675,-1.8112,-1.9204,-2.0153,-2.1011,-2.1327,-2.1456,-2.1825,-2.1096,-2.0073,-1.9243,-1.8369,-1.7316,-1.5797,-1.5061,-1.4645,0.0,0.0,0.0,-1.7823,-1.9941,0.0,-2.102,-2.1393,0.0,0.0,0.0,-2.0988,-2.0668,-2.0782,0.0,0.0,-1.9297,-1.9743,-1.9551,-1.9723,-1.9798,-1.9798,-1.9631,-1.9592,-1.9798,-1.9592,-1.9423,-1.9254,-1.8874,-1.8382,-1.7852,-1.7796,-1.7588,-1.7349,-1.7387,-1.7314,-1.7256,-1.7793,-1.7568,-1.6943,-1.7373,-1.7539,-1.75,-1.7178,-1.7266,-1.7539,0.0,0.0,0.0,0.0,0.0,0.0,0.0,0.0,0.0,0.0,0.0,0.0,0.0,0.0,0.0,0.0,0.0,0.0,0.0,0.0,0.0,0.0,0.0,0.0,0.0,0.0,0.0,0.0,0.0,0.0,-1.1556,-1.1494,-1.1926,-1.2764,-1.29,-1.3466,-1.4279,-1.4102,0.0,0.0,0.0,0.0,0.0,0.0,0.0,0.0,0.0,0.0,0.0,0.0,0.0,-1.4782,-1.6557,-1.7806,-1.8969,-2.0888,0.0,-2.2548,-2.3584,-2.3815,-2.3632,-2.3102,-2.2164,-2.0941,-1.9343,-1.83,-1.7197,-1.5589,-1.4782,0.0,0.0,0.0,0.0,0.0,0.0,0.0,-2.1616,-2.2441,-2.3005,0.0,-2.2601,0.0,-2.1729,-2.1695,-2.1272,0.0,-2.0253,-2.0022,-1.9594,-1.9712,-1.9798,-1.9798,-1.9798,-1.9798,-1.9798,-1.9475,-1.9307,-1.9319,-1.8661,-1.8112,-1.7743,-1.7248,-1.6946,-1.6749,0.0,-1.6807,-1.6836,-1.7275,-1.7275,-1.7021,-1.708,-1.7217,-1.7334,-1.6894,-1.7012,-1.7383,0.0,0.0,0.0,0.0,0.0,0.0,0.0,0.0,0.0,0.0,0.0,0.0,0.0,0.0,0.0,0.0,0.0,0.0,0.0,0.0,0.0,0.0,0.0,0.0,0.0,0.0,0.0,0.0,0.0,0.0,0.0,0.0,0.0,0.0,0.0,0.0,0.0,0.0,0.0,0.0,0.0,0.0,0.0,0.0,0.0,0.0,0.0,0.0,0.0,0.0,-1.5308,-1.699,-1.8066,-1.9406,-2.1022,-2.3448,-2.4014,-2.427,-2.6171,-2.6271,-2.5458,-2.395,-2.3089,-2.188,-1.911,-1.7953,-1.6988,-1.5325,0.0,-1.365,-1.3183,0.0,-1.6652,-1.5763,0.0,-2.1432,-2.1375,-2.2879,-2.3941,-2.3686,-2.4073,-2.396,-2.292,-2.2754,-2.2406,-2.1744,-2.1161,-2.0351,-1.9294,-1.9611,-1.9798,-1.9798,-1.9798,-1.9798,-1.9798,-1.915,-1.8874,-1.8821,-1.7523,-1.6922,-1.6922,-1.6083,-1.572,-1.58,0.0,0.0,-1.6182,-1.6572,-1.6953,-1.7256,-1.6816,-1.6914,-1.7236,-1.6738,-1.6875,-1.7295,0.0,0.0,0.0,0.0,0.0,0.0,0.0,0.0,0.0,0.0,-0.1749,0.0,0.0,0.0,0.0,0.0,0.0,0.0,0.0,0.0,0.0,0.0,0.0,0.0,0.0,0.0,0.0,0.0,0.0,0.0,0.0,0.0,0.0,0.0,0.0,0.0,0.0,0.0,0.0,0.0,0.0,0.0,0.0,0.0,0.0,0.0,0.0,0.0,0.0,0.0,-1.5721,-1.8144,-2.041,-2.2196,-2.3799,-2.5457,-2.5884,-2.6081,-2.7325,-2.6539,-2.5327,-2.5095,-2.3601,-2.1513,-1.8855,-1.7503,0.0,0.0,0.0,-1.2925,-1.3484,-1.5239,0.0,-1.7698,0.0,0.0,0.0,0.0,-2.47,0.0,0.0,0.0,0.0,0.0,0.0,0.0,0.0,0.0,-2.0515,-2.0054,-1.9798,-1.9798,-1.9798,-1.9798,-1.9798,-1.9695,-1.9592,-1.9592,-1.9371,-1.9202,-1.9202,-1.7841,-1.7409,-1.7734,0.0,0.0,-1.6621,-1.6699,-1.6777,-1.6797,-1.6357,-1.6455,-1.6748,-1.5937,-1.6152,-1.6846,0.0,0.0,0.0,0.0,0.0,0.0,0.0,-0.3872,-0.4889,-0.4982,-0.3629,-0.1983,-0.0194,0.0,0.0,0.0,0.0,0.0,0.0,0.0,0.0,0.0,0.0,0.0,0.0,0.0,0.0,0.0,0.0,0.0,0.0,0.0,0.0,0.0,0.0,0.0,0.0,0.0,0.0,0.0,0.0,0.0,0.0,0.0,0.0,0.0,0.0,0.0,0.0,0.0,-1.4856,-1.7265,-2.0741,-2.2927,-2.4519,-2.6139,-2.6867,-2.7318,-2.8146,-2.7529,-2.6557,-2.6081,-2.4289,-2.1824,-1.8754,0.0,0.0,0.0,0.0,-1.3207,-1.3661,0.0,0.0,0.0,0.0,0.0,0.0,0.0,0.0,0.0,0.0,0.0,0.0,0.0,0.0,0.0,0.0,0.0,-2.0295,-1.9952,-1.9798,-1.9798,-1.9798,-1.9798,-1.9798,-1.9423,-1.9202,-1.9202,-1.8821,-1.8447,-1.807,-1.7357,-1.6928,-1.6748,0.0,0.0,-1.6367,-1.6133,-1.6318,-1.6689,-1.624,-1.6338,-1.668,-1.626,-1.6514,-1.707,0.0,0.0,0.0,0.0,0.0,0.0,0.0,-0.5,-0.5047,-0.496,-0.5003,-0.4025,-0.1377,-0.0447,0.0,0.0,0.0,0.0,0.0,0.0,0.0,0.0,0.0,0.0,0.0,0.0,0.0,0.0,0.0,0.0,0.0,0.0,0.0,0.0,0.0,0.0,0.0,0.0,0.0,0.0,0.0,0.0,0.0,0.0,0.0,0.0,0.0,0.0,0.0,0.0,-1.3552,-1.5481,-1.9305,-2.1783,-2.3631,-2.5407,-2.6706,-2.7677,-2.8415,-2.8206,-2.7531,-2.6541,-2.4614,-2.2071,-1.8676,-1.7287,0.0,0.0,-1.3517,-1.3517,-1.3677,0.0,0.0,0.0,0.0,0.0,0.0,0.0,0.0,0.0,0.0,0.0,0.0,0.0,0.0,0.0,0.0,0.0,0.0,-1.9798,-1.9798,-1.9798,-1.9698,-1.9635,-1.9635,-1.9044,-1.8665,-1.8548,-1.8066,-1.7468,-1.6708,-1.6539,-1.6208,-1.5642,0.0,0.0,0.0,-1.5586,-1.5937,-1.668,-1.6133,-1.625,-1.6719,-1.6621,-1.6924,-1.7373,0.0,0.0,0.0,0.0,0.0,0.0,0.0,-0.4971,-0.5024,-0.5081,-0.4927,-0.4783,-0.4651,-0.1866,0.0,0.0,0.0,0.0,0.0,0.0,0.0,0.0,0.0,0.0,0.0,0.0,0.0,0.0,0.0,0.0,0.0,0.0,0.0,0.0,0.0,0.0,0.0,0.0,0.0,0.0,0.0,0.0,0.0,0.0,0.0,0.0,0.0,0.0,0.0,0.0,0.0,-1.3311,-1.5342,-1.7979,-2.0667,-2.2595,0.0,0.0,-2.77,-2.7668,-2.7059,-2.5887,-2.406,-2.1756,-1.862,0.0,0.0,-1.364,-1.3097,-1.3114,-1.331,-1.4119,0.0,0.0,0.0,0.0,0.0,0.0,0.0,0.0,0.0,0.0,0.0,0.0,0.0,0.0,0.0,0.0,0.0,-1.9798,-1.9798,-1.9798,-1.9346,-1.9046,-1.9046,-1.8996,-1.862,-1.7962,-1.8383,-1.8221,-1.7468,-1.6821,-1.6482,-1.6379,0.0,0.0,0.0,-1.5586,-1.5937,-1.665,-1.5801,-1.5986,-1.668,-1.6279,-1.666,-1.7324,0.0,0.0,0.0,0.0,0.0,0.0,-0.3042,-0.4272,-0.495,-0.4981,-0.4983,-0.4989,-0.5044,-0.2961,-0.1145,-0.0097,0.0,0.0,0.0,0.0,0.0,0.0,0.0,0.0,0.0,0.0,0.0,0.0,0.0,0.0,0.0,0.0,0.0,0.0,0.0,0.0,0.0,0.0,0.0,0.0,0.0,0.0,0.0,0.0,0.0,0.0,0.0,0.0,0.0,0.0,0.0,0.0,-1.1887,-1.3493,0.0,0.0,-2.2944,-2.4511,-2.6431,-2.6823,-2.6541,-2.5951,-2.3587,-2.0896,-1.8909,0.0,-1.521,-1.3565,-1.3192,-1.3209,-1.3278,-1.3919,-1.4778,0.0,0.0,0.0,0.0,0.0,0.0,0.0,0.0,0.0,0.0,0.0,0.0,0.0,0.0,0.0,0.0,-1.9179,-1.879,-1.879,-1.8124,-1.767,-1.7464,-1.7226,-1.6999,-1.6682,-1.6924,-1.6732,-1.6301,-1.6425,-1.6265,-1.5806,0.0,0.0,0.0,-1.5488,-1.5615,-1.5957,-1.6133,-1.6364,-1.6714,-1.7109,-1.7461,-1.7734,0.0,0.0,0.0,0.0,0.0,-0.0389,-0.152,-0.3527,-0.4796,-0.4471,-0.4784,-0.5019,-0.4975,-0.3901,-0.2332,-0.0188,0.0,0.0,0.0,0.0,0.0,0.0,0.0,0.0,0.0,0.0,0.0,0.0,0.0,0.0,0.0,0.0,0.0,0.0,0.0,0.0,0.0,0.0,0.0,0.0,0.0,0.0,0.0,0.0,0.0,0.0,0.0,0.0,0.0,0.0,0.0,0.0,0.0,0.0,0.0,0.0,-2.0323,-2.219,-2.4219,-2.5247,-2.5665,-2.5189,-2.2818,-2.0173,0.0,0.0,-1.4602,-1.3531,-1.3278,-1.3295,-1.3345,-1.3768,-1.4407,-1.5365,0.0,-1.658,0.0,0.0,0.0,0.0,0.0,0.0,0.0,0.0,0.0,0.0,0.0,0.0,0.0,-1.8556,-1.8013,-1.8384,-1.7342,-1.6715,-1.642,-1.5983,-1.5754,-1.5647,-1.5816,-1.569,-1.541,-1.5921,-1.5864,0.0,0.0,0.0,0.0,-1.541,-1.541,-1.5488,-1.624,-1.6621,-1.6816,-1.7559,-1.7822,-1.7803,0.0,0.0,0.0,0.0,0.0,0.0,-0.0019,-0.2803,-0.4511,-0.3459,-0.4237,-0.4903,-0.4895,-0.471,-0.3339,-0.0262,0.0,0.0,0.0,0.0,0.0,0.0,0.0,0.0,0.0,0.0,0.0,0.0,0.0,0.0,0.0,0.0,0.0,0.0,0.0,0.0,0.0,0.0,0.0,0.0,0.0,0.0,0.0,0.0,0.0,0.0,0.0,0.0,0.0,0.0,0.0,0.0,0.0,0.0,-1.0072,0.0,-1.6453,-1.978,-2.0864,-2.2797,-2.4251,-2.3195,-2.1606,-1.9723,0.0,0.0,-1.4452,-1.3498,-1.3244,-1.3261,-1.3462,-1.3446,-1.3834,-1.5101,-1.5213,0.0,0.0,0.0,0.0,0.0,0.0,0.0,0.0,0.0,0.0,0.0,0.0,0.0,0.0,0.0,-1.7836,-1.8958,-1.7338,-1.6384,-1.6419,-1.582,-1.5362,-1.5102,-1.5626,-1.569,-1.541,-1.541,0.0,0.0,0.0,0.0,0.0,-1.541,-1.541,-1.5459,-1.5898,-1.6338,-1.6787,-1.7227,-1.7393,-1.7334,0.0,0.0,0.0,0.0,0.0,0.0,0.0,-0.0891,-0.2235,-0.4148,-0.4779,-0.4569,-0.3322,-0.4151,-0.4454,-0.3573,-0.1348,0.0,0.0,0.0,0.0,0.0,0.0,0.0,0.0,0.0,0.0,-0.5745,0.0,0.0,0.0,0.0,0.0,0.0,0.0,0.0,0.0,0.0,0.0,0.0,0.0,0.0,0.0,0.0,0.0,0.0,0.0,0.0,0.0,0.0,0.0,0.0,0.0,0.0,0.0,-1.0403,-1.2852,-1.5689,-1.764,-1.8784,-1.932,-1.8851,-1.7444,-1.6099,-1.5793,0.0,-1.3261,-1.3457,-1.3493,-1.3477,-1.3495,-1.3479,-1.3853,-1.5101,-1.515,0.0,0.0,0.0,0.0,0.0,0.0,0.0,0.0,0.0,0.0,0.0,0.0,0.0,0.0,0.0,-1.7264,-1.7243,-1.5811,-1.4682,-1.401,-1.4078,-1.4114,-1.4021,-1.444,-1.477,-1.5,-1.5283,0.0,0.0,0.0,0.0,0.0,-1.541,-1.541,-1.5459,-1.5889,-1.6152,-1.6328,-1.6777,-1.6943,-1.685,0.0,0.0,0.0,0.0,0.0,0.0,0.0,0.0,-0.0742,-0.2784,-0.4207,-0.4376,-0.2655,-0.3926,-0.49,-0.4916,-0.1904,0.0,0.0,0.0,0.0,0.0,0.0,0.0,0.0,0.0,-0.5272,-0.5991,-0.5966,-0.6239,0.0,0.0,0.0,0.0,0.0,0.0,0.0,0.0,0.0,0.0,0.0,0.0,-0.6422,0.0,0.0,0.0,0.0,0.0,0.0,0.0,0.0,0.0,0.0,0.0,0.0,0.0,-1.0221,-1.2043,0.0,-1.5858,-1.6374,-1.6178,-1.5108,0.0,0.0,0.0,-1.2525,-1.3226,-1.3328,-1.3278,-1.3175,-1.3158,-1.3486,-1.4497,-1.4675,0.0,0.0,0.0,0.0,0.0,0.0,0.0,0.0,0.0,0.0,0.0,0.0,0.0,0.0,0.0,-1.6582,-1.5759,-1.4725,-1.3869,-1.3248,-1.3283,-1.335,-1.3516,-1.3769,-1.4121,-1.4551,0.0,0.0,0.0,0.0,0.0,0.0,-1.5176,-1.5264,-1.5459,-1.5889,-1.5933,-1.5737,-1.6437,-1.6233,-1.5523,0.0,0.0,0.0,0.0,0.0,0.0,0.0,0.0,0.0,0.0,-0.2654,-0.401,-0.2571,-0.3697,-0.4574,-0.4594,0.0,0.0,0.0,0.0,0.0,0.0,0.0,0.0,0.0,-0.4459,-0.5138,-0.5865,-0.5782,-0.6059,-0.6637,-0.6492,0.0,0.0,0.0,0.0,0.0,0.0,0.0,0.0,0.0,-0.5373,0.0,0.0,0.0,0.0,0.0,0.0,0.0,0.0,0.0,0.0,0.0,0.0,0.0,0.0,0.0,0.0,0.0,-1.3667,-1.4756,-1.4586,-1.3963,-1.3382,0.0,0.0,0.0,0.0,0.0,-1.2743,-1.2675,-1.2604,-1.2792,-1.3505,0.0,0.0,0.0,0.0,0.0,0.0,0.0,0.0,0.0,0.0,0.0,0.0,0.0,0.0,0.0,0.0,0.0,-1.4648,-1.4058,-1.3732,-1.3732,-1.32,-1.3076,-1.3467,-1.3496,-1.3711,-1.4038,0.0,0.0,0.0,0.0,0.0,0.0,-1.4785,-1.5029,-1.5449,-1.5859,-1.5581,-1.5003,-1.61,-1.5277,-1.3672,0.0,0.0,0.0,0.0,0.0,0.0,0.0,0.0,0.0,0.0,-0.0668,-0.1007,-0.0643,-0.0942,-0.2082,0.0,0.0,0.0,0.0,0.0,0.0,0.0,0.0,0.0,0.0,-0.4224,-0.5254,-0.6494,-0.6311,-0.6817,-0.7931,-0.7054,-0.6356,-0.5831,-0.5153,0.0,0.0,0.0,0.0,0.0,-0.4724,-0.4844,0.0,0.0,0.0,0.0,-0.7547,-0.7979,0.0,0.0,0.0,0.0,0.0,0.0,0.0,0.0,-0.8142,-0.8276,-0.8966,0.0,-1.0002,-0.9968,-0.9809,-0.9933,0.0,0.0,0.0,0.0,0.0,0.0,0.0,0.0,0.0,0.0,0.0,0.0,0.0,0.0,0.0,0.0,0.0,0.0,0.0,0.0,0.0,0.0,0.0,0.0,0.0,0.0,0.0,-1.4599,-1.3606,-1.3104,-1.3104,-1.2968,-1.293,-1.3037,-1.335,-1.3555,-1.3662,0.0,0.0,0.0,0.0,0.0,-1.4785,-1.4785,-1.5029,-1.542,-1.5527,-1.5075,-1.4427,-1.4698,-1.4066,-1.3079,0.0,0.0,0.0,0.0,0.0,0.0,0.0,0.0,0.0,0.0,0.0,0.0,0.0,0.0,0.0,0.0,0.0,0.0,0.0,0.0,0.0,0.0,0.0,0.0,0.0,-0.4132,-0.5163,-0.6432,-0.6343,-0.6922,-0.8063,-0.7324,-0.6491,-0.5595,-0.4501,0.0,0.0,0.0,0.0,0.0,-0.4397,0.0,0.0,0.0,0.0,0.0,-0.6622,-0.7063,0.0,-0.8068,-0.8293,-0.8174,0.0,0.0,0.0,0.0,-0.781,-0.7782,-0.7811,-0.8208,-0.8654,-0.874,-0.8905,-0.939,-1.067,0.0,0.0,0.0,0.0,0.0,0.0,0.0,0.0,0.0,0.0,0.0,0.0,0.0,0.0,0.0,0.0,0.0,0.0,0.0,0.0,0.0,0.0,0.0,0.0,0.0,0.0,0.0,-1.3233,-1.2881,-1.2881,-1.2881,-1.2881,-1.2881,-1.3105,-1.3223,-1.3232,0.0,0.0,0.0,0.0,0.0,-1.4228,-1.4619,-1.4922,-1.5089,-1.4915,-1.4392,-1.3674,-1.3674,-1.2879,-1.1934,0.0,0.0,0.0,0.0,0.0,0.0,0.0,0.0,0.0,0.0,0.0,0.0,0.0,0.0,0.0,0.0,0.0,0.0,0.0,0.0,0.0,0.0,0.0,0.0,-0.337,-0.4077,-0.4991,-0.6104,-0.6115,-0.6595,-0.7504,-0.7278,-0.6387,-0.4946,-0.3704,0.0,0.0,0.0,0.0,0.0,-0.3987,0.0,0.0,0.0,0.0,0.0,0.0,0.0,0.0,-0.7418,-0.7826,-0.7739,-0.768,0.0,0.0,0.0,0.0,0.0,-0.7469,-0.8202,-0.8972,-0.9034,-0.9377,-0.9956,-1.1017,0.0,0.0,0.0,0.0,0.0,0.0,0.0,0.0,0.0,0.0,0.0,0.0,0.0,0.0,0.0,0.0,0.0,0.0,0.0,0.0,0.0,0.0,0.0,0.0,0.0,0.0,0.0,-1.2881,-1.2881,-1.2881,-1.2881,-1.2881,-1.2881,-1.2881,-1.2881,-1.2881,-1.2881,0.0,0.0,0.0,0.0,-1.3401,-1.4125,-1.4518,-1.4503,-1.4203,-1.3647,-1.2874,-1.2862,-1.1911,-1.0721,0.0,0.0,0.0,0.0,0.0,0.0,0.0,0.0,0.0,0.0,0.0,0.0,0.0,0.0,0.0,0.0,0.0,0.0,0.0,0.0,0.0,0.0,0.0,-0.3121,-0.3712,-0.4062,-0.4865,-0.6105,-0.5884,-0.6084,-0.6686,-0.6587,-0.566,-0.4068,-0.3291,-0.2897,0.0,0.0,0.0,-0.3418,0.0,0.0,0.0,0.0,0.0,0.0,0.0,0.0,0.0,-0.7295,-0.765,-0.753,-0.7469,0.0,0.0,0.0,0.0,0.0,-0.6993,-0.8062,-0.902,-0.8488,-0.8776,-0.9377,0.0,0.0,0.0,0.0,0.0,0.0,0.0,0.0,0.0,0.0,0.0,0.0,0.0,0.0,0.0,0.0,0.0,0.0,0.0,0.0,0.0,0.0,0.0,0.0,0.0,0.0,0.0,0.0,0.0,-1.2881,-1.2881,-1.2881,-1.2881,-1.2881,-1.2881,-1.2881,-1.2881,-1.2881,-1.2881,0.0,0.0,-1.2273,-1.2672,-1.28,-1.3048,-1.3387,-1.3621,-1.3197,-1.2478,-1.2096,-1.1413,-1.0631,0.0,0.0,0.0,0.0,0.0,0.0,0.0,0.0,0.0,0.0,0.0,0.0,0.0,0.0,0.0,0.0,0.0,0.0,0.0,0.0,0.0,0.0,-0.3442,-0.367,-0.3907,-0.4349,-0.5115,-0.6214,-0.613,-0.6183,-0.6367,-0.536,-0.4409,-0.3543,-0.2682,-0.2247,-0.2165,-0.2348,-0.2564,-0.2832,0.0,0.0,0.0,0.0,0.0,0.0,0.0,0.0,0.0,0.0,-0.6884,-0.7064,-0.7042,0.0,0.0,0.0,0.0,0.0,-0.6757,-0.7752,-0.8675,-0.8292,-0.9453,0.0,0.0,0.0,0.0,0.0,0.0,0.0,0.0,0.0,0.0,0.0,0.0,0.0,0.0,0.0,0.0,0.0,0.0,0.0,0.0,0.0,0.0,0.0,0.0,0.0,0.0,0.0,0.0,0.0,0.0,0.0,-1.2295,-1.2715,-1.2881,-1.2881,-1.2881,-1.2666,-1.2344,-1.2725,-1.2461,-1.1801,0.0,-1.1935,-1.1627,-1.2104,-1.2251,-1.2251,-1.2187,-1.1994,-1.174,-1.129,-1.0926,-1.0624,0.0,0.0,0.0,0.0,0.0,0.0,0.0,0.0,0.0,0.0,0.0,0.0,0.0,0.0,0.0,0.0,0.0,0.0,0.0,0.0,-0.2302,-0.3845,-0.4221,-0.4437,-0.4518,-0.4908,-0.5508,-0.6325,-0.6214,-0.6051,-0.5799,-0.4219,-0.3294,-0.2938,-0.2034,-0.1578,-0.1504,-0.17,-0.1974,-0.2289,0.0,0.0,0.0,0.0,0.0,0.0,0.0,0.0,0.0,0.0,0.0,0.0,0.0,0.0,0.0,-0.6778,-0.6621,-0.6443,-0.6552,-0.7388,-0.823,-0.828,0.0,0.0,0.0,0.0,0.0,0.0,0.0,0.0,0.0,0.0,0.0,0.0,0.0,0.0,0.0,0.0,0.0,0.0,0.0,0.0,0.0,0.0,0.0,0.0,0.0,0.0,0.0,0.0,0.0,0.0,0.0,0.0,-1.1566,-1.2147,-1.251,-1.2657,-1.2657,-1.2246,-1.1566,-1.2147,-1.1841,-1.083,-1.1541,-1.1353,-1.0608,-1.1271,-1.139,-1.1064,-1.0879,-1.0818,-1.0901,-1.0506,-1.0401,-1.0454,0.0,0.0,0.0,0.0,0.0,0.0,0.0,0.0,0.0,0.0,0.0,0.0,0.0,0.0,0.0,0.0,0.0,0.0,0.0,0.0,-0.35,-0.311,-0.4275,-0.5288,-0.6023,-0.5837,-0.5947,-0.6394,-0.5772,-0.5107,-0.4421,-0.3549,-0.2726,-0.1973,-0.1397,-0.105,-0.0878,-0.1076,-0.142,-0.186,-0.207,0.0,0.0,0.0,0.0,0.0,0.0,0.0,0.0,0.0,0.0,0.0,0.0,0.0,-0.6512,-0.654,-0.6336,-0.6141,-0.6218,-0.6923,-0.7794,-0.8418,0.0,0.0,0.0,0.0,0.0,0.0,0.0,0.0,0.0,0.0,0.0,0.0,0.0,0.0,0.0,0.0,0.0,0.0,0.0,0.0,0.0,0.0,0.0,0.0,0.0,0.0,0.0,0.0,0.0,0.0,0.0,0.0,-1.0864,-1.0914,-1.1266,-1.1864,-1.1864,-1.1516,-1.0864,-1.0914,-1.0922,-1.0771,-1.0241,-0.994,-0.9865,-0.9918,-0.9925,-0.9933,-1.0217,-1.0107,-0.9829,-0.9798,-0.992,-1.0147,0.0,0.0,0.0,0.0,0.0,0.0,0.0,0.0,0.0,0.0,0.0,0.0,0.0,0.0,0.0,0.0,0.0,0.0,0.0,0.0,-0.324,-0.3841,-0.4192,-0.4876,-0.5921,-0.6128,-0.6226,-0.6213,-0.5332,-0.4653,-0.4168,-0.3479,-0.2645,-0.1676,-0.0935,-0.0609,-0.0625,-0.0734,-0.101,-0.1391,-0.1678,-0.1939,0.0,0.0,0.0,0.0,0.0,0.0,0.0,0.0,-0.5296,-0.576,-0.6141,-0.6284,-0.6319,-0.6325,-0.6183,-0.605,-0.6068,-0.7405,-0.8631,-0.8051,0.0,0.0,0.0,0.0,0.0,0.0,0.0,0.0,0.0,0.0,0.0,0.0,0.0,0.0,0.0,0.0,0.0,0.0,0.0,0.0,0.0,0.0,0.0,0.0,0.0,0.0,0.0,0.0,0.0,0.0,0.0,0.0,0.0,-1.061,-1.0712,-1.0568,-1.0965,-1.0813,-1.021,-1.0618,-1.0364,-0.9562,-0.9718,-0.9562,-0.9159,-0.9159,-0.9159,-0.9187,-0.95,-0.9521,-0.9426,-0.9619,-0.9753,-0.9846,0.0,0.0,0.0,0.0,0.0,0.0,0.0,0.0,0.0,0.0,0.0,0.0,0.0,0.0,0.0,0.0,0.0,0.0,0.0,0.0,-0.2855,-0.3662,-0.4039,-0.4627,-0.5473,-0.6221,-0.6352,-0.5834,-0.4831,-0.4093,-0.3591,-0.2984,-0.2277,-0.149,-0.0561,-0.0164,-0.0221,-0.0306,-0.0569,-0.0943,-0.132,-0.158,0.0,0.0,0.0,0.0,0.0,0.0,0.0,0.0,-0.4705,-0.5166,-0.5747,-0.5977,-0.602,-0.6057,-0.6061,-0.6134,-0.6408,-0.7576,-0.862,0.0,0.0,0.0,0.0,0.0,0.0,0.0,0.0,0.0,0.0,0.0,0.0,0.0,0.0,0.0,0.0,0.0,0.0,0.0,0.0,0.0,0.0,0.0,0.0,0.0,0.0,0.0,0.0,0.0,0.0,0.0,0.0,0.0,0.0,-0.9917,-0.9909,-0.9517,-0.9969,-0.9917,-0.951,-0.9961,-0.9666,-0.8804,-0.9263,-0.9211,-0.8804,-0.8804,-0.8804,-0.8824,-0.9025,-0.905,-0.9132,-0.9332,-0.9466,-0.9546,0.0,0.0,0.0,0.0,0.0,0.0,0.0,0.0,0.0,0.0,0.0,0.0,0.0,0.0,0.0,0.0,0.0,0.0,0.0,-0.1953,-0.2548,-0.2209,-0.3793,-0.4719,-0.4785,-0.6079,-0.6295,-0.5311,-0.4303,-0.3366,-0.2495,-0.1889,-0.1546,-0.1344,-0.0282,0.0269,0.0401,0.0266,-0.007,-0.0546,-0.1008,-0.128,-0.1464,0.0,0.0,0.0,0.0,0.0,0.0,0.0,-0.4465,-0.4901,-0.5585,-0.5708,-0.5633,-0.5756,-0.5974,-0.6393,-0.7259,-0.7256,-0.7424,0.0,0.0,0.0,0.0,0.0,0.0,0.0,0.0,0.0,0.0,0.0,0.0,0.0,0.0,0.0,0.0,0.0,0.0,0.0,0.0,0.0,0.0,0.0,0.0,0.0,0.0,0.0,0.0,0.0,0.0,0.0,0.0,0.0,0.0,-0.8798,-0.8798,-0.8804,-0.8804,-0.8804,-0.8804,-0.8804,-0.8804,-0.8804,-0.8804,-0.8804,-0.8804,-0.8804,-0.8804,-0.8804,-0.8804,-0.8804,-0.8804,-0.8804,-0.8985,-0.9183,0.0,0.0,0.0,0.0,0.0,0.0,0.0,0.0,0.0,0.0,0.0,0.0,0.0,0.0,0.0,0.0,0.0,0.0,0.0,-0.1861,-0.2432,-0.2141,-0.3193,-0.3812,-0.3881,-0.4331,-0.4863,-0.5514,-0.493,-0.397,-0.2702,-0.2621,-0.2161,-0.1344,0.0,0.0489,0.0938,0.047,-0.005,-0.0604,-0.098,-0.1275,-0.1519,0.0,0.0,0.0,0.0,0.0,0.0,0.0,0.0,0.0,-0.5258,-0.5595,-0.5644,-0.5547,-0.5672,-0.5954,-0.6393,-0.7381,0.0,0.0,0.0,0.0,0.0,0.0,0.0,0.0,0.0,0.0,0.0,0.0,0.0,0.0,0.0,0.0,0.0,0.0,0.0,0.0,0.0,0.0,0.0,0.0,0.0,0.0,0.0,0.0,0.0,0.0,0.0,0.0,0.0,0.0,0.0,0.0,-0.8297,-0.8504,-0.8504,-0.8611,-0.8804,-0.8804,-0.8804,-0.8804,-0.8804,-0.8804,-0.8804,-0.8804,-0.8804,-0.8804,-0.8804,-0.8804,-0.8804,-0.8804,-0.8864,-0.8938,0.0,0.0,0.0,0.0,0.0,0.0,0.0,0.0,0.0,0.0,0.0093,0.012,0.0,0.0,0.0,0.0,0.0,0.0,0.0,0.0,-0.2112,-0.1947,-0.2774,-0.3434,-0.3849,-0.3845,-0.4256,-0.5123,-0.451,-0.3767,-0.2907,-0.2668,-0.2214,-0.1513,0.0,0.0509,0.1388,0.0593,-0.0179,-0.0898,-0.1033,-0.1234,-0.1462,0.0,0.0,0.0,0.0,0.0,0.0,0.0,0.0,0.0,-0.4999,-0.5368,-0.5485,-0.5572,-0.5683,-0.5961,-0.6834,0.0,0.0,0.0,0.0,0.0,0.0,0.0,0.0,0.0,0.0,0.0,0.0,0.0,0.0,0.0,0.0,0.0,0.0,0.0,0.0,0.0,0.0,0.0,0.0,0.0,0.0,0.0,0.0,0.0,0.0,0.0,0.0,0.0,0.0,0.0,0.0,0.0,0.0,-0.8203,-0.8317,-0.8464,-0.8637,-0.8751,-0.8804,-0.8804,-0.8804,-0.8804,-0.8804,-0.8804,-0.8804,-0.8804,-0.8804,-0.8804,-0.8804,-0.8804,-0.8593,-0.8374,0.0,0.0,0.0037,0.0037,0.0,0.0,0.0,0.0,0.0,0.0,0.0239,0.0291,0.0,0.0,0.0,0.0,0.0,0.0,0.0,0.0,-0.1673,-0.1683,-0.2509,-0.3368,-0.4239,-0.4159,-0.4152,-0.4249,-0.3499,-0.3139,0.0,0.0,-0.1888,-0.1715,0.0,0.0351,0.1573,0.0631,-0.0363,-0.1269,-0.1139,-0.1177,-0.1326,-0.158,0.0,0.0,0.0,0.0,0.0,0.0,0.0,0.0,-0.4752,-0.5059,-0.5137,-0.566,-0.5862,-0.6239,0.0,0.0,0.0,0.0,0.0,0.0,0.0,0.0,0.0,0.0,0.0,0.0,0.0,0.0,0.0,0.0,0.0,0.0,0.0,0.0,0.0,0.0,0.0,0.0,0.0,0.0,0.0,0.0,0.0,0.0,0.0,0.0,0.0,0.0,0.0,0.0,0.0,0.0,0.0,0.0,-0.819,-0.835,-0.8383,-0.8671,-0.8804,-0.8804,-0.8804,-0.8804,-0.8804,-0.8804,-0.8804,-0.8804,-0.8752,-0.8699,-0.8699,-0.8646,-0.8156,-0.7616,0.0,0.0,0.0316,0.0316,0.0,0.0,0.0,0.0,0.0,0.0,0.0,0.0,0.0,0.0,0.0,0.0,0.0,0.0,0.0,0.0,-0.1487,-0.1545,-0.2278,-0.2828,-0.3136,-0.3316,-0.3334,-0.3141,-0.3846,0.0,0.0,0.0,0.0,-0.1447,0.0,-0.0106,0.0384,0.0368,-0.0221,-0.1132,-0.1046,-0.1129,-0.1309,-0.1428,-0.1611,0.0,0.0,0.0,0.0,0.0,0.0,0.0,-0.4465,-0.4716,-0.4636,-0.5068,-0.5497,-0.5975,0.0,0.0,0.0,0.0,0.0,0.0,0.0,0.0,0.0,0.0,0.0,0.0,0.0,0.0,0.0,0.0,0.0,0.0,0.0,0.0,0.0,0.0,0.0,0.0,0.0,0.0,0.0,0.0,0.0,0.0,0.0,0.0,0.0,0.0,0.0,0.0,-0.7178,-0.7178,-0.7335,0.0,-0.7876,-0.815,-0.8383,-0.8671,-0.8804,-0.8804,-0.8804,-0.8804,-0.8804,-0.8804,-0.8804,-0.8752,-0.8156,-0.7943,-0.7883,-0.7289,-0.6966,-0.6858,0.0,0.0,0.0,0.0,0.0,0.0,0.0,0.0,0.0,0.0,0.0,0.0,0.0,0.0,0.0,0.0,-0.0435,-0.0502,-0.0637,-0.1002,-0.1336,-0.1632,-0.2037,-0.2345,-0.251,-0.272,-0.2767,-0.2664,0.0,0.0,0.0,0.0,0.0,-0.1876,0.0,-0.045,-0.0275,0.0059,-0.0323,-0.1143,-0.1069,-0.1171,-0.1347,-0.1283,-0.1356,-0.1511,-0.1546,0.0,0.0,0.0,0.0,0.0,0.0,0.0,-0.465,-0.514,-0.5356,-0.5621,0.0,0.0,0.0,0.0,0.0,0.0,0.0,0.0,0.0,0.0,0.0,0.0,0.0,0.0,0.0,0.0,0.0,0.0,0.0,0.0,0.0,0.0,0.0,0.0,0.0,0.0,0.0,0.0,0.0,0.0,0.0,0.0,0.0,0.0,0.0,0.0,-0.6979,-0.6979,-0.7101,-0.7261,-0.7715,-0.8156,-0.8584,-0.8738,-0.8804,-0.8804,-0.8804,-0.8804,-0.8804,-0.8804,-0.8593,-0.8209,-0.783,-0.7509,-0.7128,-0.675,-0.6367,-0.6091,0.0,0.0,0.0,0.0,0.0,0.0,0.0,0.0,0.0,0.0,0.0,0.0,0.0,0.0,0.0055,0.0,0.0,0.0,-0.0615,-0.0856,-0.1212,-0.1708,-0.1806,-0.1933,-0.2124,-0.2265,-0.2363,0.0,0.0,0.0,0.0,0.0,0.0,-0.2344,0.0,-0.0551,-0.0441,-0.0098,-0.0353,-0.0993,-0.0978,-0.1078,-0.123,-0.1058,-0.1054,-0.1167,-0.1276,-0.1514,-0.1857,-0.2405,0.0,0.0,0.0,0.0,-0.4635,-0.523,-0.5261,-0.5363,0.0,0.0,0.0,0.0,0.0,0.0,0.0,0.0,0.0,0.0,0.0,0.0,0.0,0.0,0.0,0.0,0.0,0.0,0.0,0.0,0.0,0.0,0.0,0.0,0.0,0.0,0.0,0.0,0.0,0.0,0.0,0.0,0.0,0.0,0.0,-0.6727,-0.6979,-0.6979,-0.6979,-0.6985,-0.7589,-0.813,-0.8657,-0.8657,-0.8711,-0.8804,-0.8751,-0.8705,-0.8593,-0.8593,-0.8156,-0.7503,-0.7396,-0.6961,-0.6421,-0.6258,-0.5878,-0.5324,0.0,0.0,0.0,0.0,0.0,0.0,0.0,0.0,0.0,0.0,0.1077,0.0983,0.0,0.0483,0.0397,0.0067,-0.0178,-0.0324,-0.0357,0.0,0.0,-0.1437,-0.1571,-0.1704,-0.1844,-0.1989,-0.2081,0.0,0.0,0.0,0.0,0.0,0.0,-0.1935,0.0,0.0,0.0104,0.0208,0.0098,-0.0177,-0.0338,-0.05,-0.0613,-0.0599,-0.0723,-0.0943,-0.0961,-0.1107,-0.1424,-0.223,-0.2334,0.0,0.0,0.0,0.0,-0.4409,-0.5011,-0.5558,0.0,0.0,0.0,0.0,0.0,0.0,0.0,0.0,0.0,0.0,0.0,0.0,0.0,0.0,0.0,0.0,0.0,0.0,0.0,0.0,0.0,0.0,0.0,0.0,0.0,0.0,0.0,0.0,0.0,0.0,0.0,0.0,-0.633,-0.658,-0.6587,0.0,-0.6979,-0.6979,-0.6979,-0.6985,-0.7361,-0.7709,-0.8001,-0.8001,-0.8323,-0.8791,-0.8544,-0.8204,-0.783,-0.783,-0.7396,-0.6696,-0.6032,-0.576,-0.5597,-0.5007,-0.4736,-0.4625,0.0,0.0,0.0,0.0,0.0,0.0,0.0,0.0,0.0,0.0,0.0,0.1196,0.0936,0.0718,0.0544,0.039,0.02,-0.0022,-0.0279,-0.0646,-0.0933,-0.111,-0.1179,-0.1319,-0.1565,-0.1677,-0.1803,0.0,0.0,0.0,0.0,-0.1987,-0.1796,0.0,0.0,0.0,0.0,0.0918,0.0759,0.0164,0.0122,0.0259,0.0465,0.0081,-0.0,0.0019,-0.0242,-0.0658,-0.1138,-0.1444,-0.186,-0.2328,-0.2892,0.0,0.0,0.0,0.0,0.0,0.0,0.0,0.0,0.0,0.0,0.0,0.0,0.0,0.0,0.0,0.0,0.0,0.0,0.0,0.0,0.0,0.0,0.0,0.0,0.0,0.0,0.0,0.0,0.0,0.0,0.0,0.0,0.0,0.0,0.0,0.0,-0.5786,-0.5907,-0.6371,-0.6384,0.0,-0.6979,-0.6979,-0.7108,-0.7275,-0.7446,-0.7629,-0.7875,-0.7749,-0.776,-0.7847,-0.7721,-0.7422,-0.6979,-0.6979,-0.6574,-0.5928,-0.5651,-0.5273,-0.4893,-0.4625,-0.4519,-0.4519,0.0,0.0,0.0,0.0,0.0,0.0,0.0,0.0,0.0,0.0,0.0,0.1469,0.1367,0.0,0.0,0.0,0.0502,0.0211,-0.0245,-0.0513,-0.0704,-0.0841,-0.0852,-0.0973,-0.1239,-0.1368,0.0,0.0,0.0,0.0,-0.2395,-0.1957,-0.1806,0.0,-0.1296,0.0,0.0,0.0,0.0,0.0572,0.0772,0.108,0.1379,0.0,0.116,0.099,0.0606,0.0,0.0,0.0,0.0,0.0,0.0,0.0,0.0,0.0,0.0,0.0,0.0,0.0,0.0,0.0,0.0,0.0,0.0,0.0,0.0,0.0,0.0,0.0,0.0,0.0,0.0,0.0,0.0,0.0,0.0,0.0,0.0,0.0,0.0,0.0,0.0,0.0,0.0,0.0,0.0,0.0,-0.5611,-0.5397,-0.5584,-0.6176,-0.6196,-0.6471,-0.7014,-0.6852,-0.692,-0.7178,-0.6995,-0.7109,-0.7464,-0.7096,-0.6838,-0.6661,-0.6872,-0.664,-0.6098,-0.6098,-0.58,-0.5273,-0.5273,-0.4948,-0.4519,-0.4519,-0.4519,-0.4519,0.0,0.0,0.0,0.0,0.0,0.0,0.0,0.0,0.0,0.0,0.0,0.1914,0.1528,0.1405,0.1201,0.0818,0.0548,0.0222,-0.0178,-0.0222,-0.0379,-0.0693,-0.0715,0.0,-0.0824,0.0,0.0,0.0,0.0,0.0,-0.211,-0.1774,-0.181,-0.214,-0.1285,-0.0588,-0.0017,0.0,0.0,0.0,0.1872,0.1945,0.1846,0.0,0.0,0.0,0.0,0.0,0.0,0.0,0.0,0.0,0.0,0.0,0.0,0.0,0.0,0.0,0.0,0.0,0.0,0.0,0.0,0.0,0.0,0.0,0.0,0.0,0.0,0.0,0.0,0.0,0.0,0.0,0.0,0.0,0.0,0.0,0.0,0.0,0.0,0.0,0.0,0.0,0.0,0.0,0.0,0.0,-0.5349,-0.5322,-0.5584,-0.6176,-0.6196,-0.6471,-0.7014,-0.6477,-0.6233,-0.6245,-0.5674,-0.5723,-0.6263,-0.568,-0.5415,-0.544,-0.6248,-0.6144,-0.5379,-0.5379,-0.5018,-0.457,-0.457,-0.4515,-0.4519,-0.4519,-0.4519,-0.4519,0.0,0.0,0.0,0.0,0.0,0.0,0.0,0.0,0.0,0.0,0.0,0.0,0.0,0.148,0.1264,0.1068,0.077,0.0479,0.02,0.0022,-0.0167,-0.0368,-0.0424,0.0,0.0,0.0,0.0,0.0,0.0,-0.1691,-0.2026,-0.1873,-0.1781,-0.1731,-0.1113,-0.0557,-0.0051,0.0831,0.0,0.0,0.1602,0.1806,0.1756,0.0,0.0,0.0,0.0,0.0,0.0,0.0,0.0,0.0,0.0,0.0,0.0,0.0,0.0,0.0,0.0,0.0,0.0,0.0,0.0,0.0,0.0,0.0,0.0,0.0,0.0,0.0,0.0,0.0,0.0,0.0,0.0,0.0,0.0,0.0,0.0,0.0,0.0,0.0,0.0,0.0,0.0,0.0,0.0,0.0,-0.5564,-0.5558,-0.5738,-0.6182,-0.6377,-0.6467,-0.6471,-0.5916,-0.561,-0.561,-0.5394,-0.5389,-0.561,-0.5394,-0.5087,-0.4739,-0.5032,-0.4864,-0.4338,-0.4338,-0.4289,-0.4189,-0.4287,-0.4324,-0.4334,-0.4429,-0.4519,-0.4519,0.0,0.0,0.0,0.0,0.0,0.0,0.0,0.0,0.0,0.0,0.0,0.0,0.0,0.0,0.1324,0.1116,0.0913,0.0673,0.0381,0.02,0.0033,-0.0122,-0.02,0.0,0.0,0.0,0.0,0.0,0.0,0.0,0.0,-0.1859,-0.1775,-0.1573,-0.109,-0.0625,0.0,0.0,0.0,0.0836,0.0,0.1844,0.168,0.0,0.0,0.0,0.0,0.0,0.0,0.0,0.0,0.0,0.0,0.0,0.0,0.0,0.0,0.0,0.0,0.0,0.0,0.0,0.0,0.0,0.0,0.0,0.0,0.0,0.0,0.0,0.0,0.0,0.0,0.0,0.0,0.0,0.0,0.0,0.0,0.0,0.0,0.0,0.0,0.0,0.0,0.0,0.0,0.0,-0.543,-0.5519,-0.5704,-0.6028,-0.6104,-0.6079,-0.5916,-0.5303,-0.5,-0.5,-0.4831,-0.4831,-0.5,-0.4831,-0.4613,-0.4387,-0.422,-0.401,-0.3792,-0.3792,-0.388,-0.4036,-0.4137,-0.4197,-0.4214,-0.4409,-0.4519,-0.4519,0.0,0.0,0.0,0.0,0.0,0.0,0.0,0.0,0.0,0.0,0.0,0.0,0.0,0.0,0.0,0.0972,0.097,0.0798,0.0351,0.0312,0.0222,0.0022,-0.0056,0.0,0.0,0.0,0.0,0.0,0.0,0.0,0.0,0.0,-0.1796,-0.1766,-0.1238,-0.0789,-0.0372,0.0,0.0851,0.116,0.0,0.2146,0.1639,0.0,0.0,0.0,0.3715,0.391,0.0,0.0,0.0,0.0,0.0,0.0,0.0,0.0,0.0,0.0,0.0,0.0,0.0,0.0,0.0,0.0,0.0,0.0,0.0,0.0,0.0,0.0,0.0,0.0,0.0,0.0,0.0,0.0,0.0,0.0,0.0,0.0,0.0,0.0,0.0,0.0,0.0,0.0,0.0,-0.4417,-0.4882,-0.5134,-0.5423,-0.5676,-0.5408,-0.5265,-0.5265,-0.4696,-0.4391,-0.4391,-0.3836,-0.388,-0.4347,-0.3836,-0.388,-0.4347,-0.384,-0.3656,-0.3785,-0.3785,-0.3873,-0.4022,-0.4123,-0.4184,-0.4207,-0.4402,-0.4515,-0.4519,0.0,0.0,0.0,0.0,0.0,0.0,0.0,0.0,0.0,0.0,0.0,0.0,0.0,0.0,0.2227,0.1604,0.1161,0.0875,0.0743,0.0512,0.039,0.0435,0.0279,0.0133,0.0,0.0,0.0,0.0,0.0,0.0,0.0,0.0,0.0,0.0,-0.12,-0.0984,-0.0775,0.0207,0.0,0.0,0.1558,0.1823,0.0,0.0,0.0,0.0,0.0,0.3427,0.0,0.0,0.3304,0.2684,0.0,0.0,0.0,0.0,0.0,0.0,-0.2137,0.0,0.0,0.0,0.0,0.0,0.0,0.0,0.0,0.0,0.0,0.0,0.0,0.0,0.0,0.0,0.0,0.0,0.0,0.0,0.0,0.0,0.0,0.0,0.0,0.0,0.0,0.0,0.0,-0.4412,-0.4888,-0.4971,-0.5152,-0.5424,-0.4928,-0.4648,-0.4648,-0.4096,-0.384,-0.384,-0.3667,-0.3667,-0.3796,-0.3667,-0.3667,-0.3796,-0.3667,-0.3602,-0.3639,-0.3639,-0.3663,-0.3717,-0.3863,-0.3985,-0.405,-0.4253,-0.4372,-0.4519,0.0,0.0,0.0,0.0,0.0,0.0,0.0,0.0,0.0,0.0,0.0,0.0,0.0,0.0,0.0,0.2041,0.1509,0.1149,0.1034,0.0787,0.0719,0.0888,0.0701,0.0509,0.0338,0.0,0.0,0.0,0.0,0.0,0.0,0.0,0.0,0.0,-0.126,-0.1166,0.0,0.0,0.0,0.0,0.1216,0.0,0.0,0.2511,0.2788,0.0,0.0,0.0,0.3551,0.4166,0.4018,0.0,0.0,0.0,0.0,0.0,0.0,0.0,0.0,0.0,0.0,0.0,0.0,0.0,-0.4731,-0.5085,0.0,0.0,0.0,0.0,0.0,0.0,0.0,0.0,0.0,0.0,0.0,0.0,0.0,0.0,0.0,0.0,0.0,0.0,0.0,0.0,-0.402,-0.4033,-0.4675,-0.4488,-0.4546,-0.4908,-0.4351,-0.4049,-0.4049,-0.3751,-0.3581,-0.3581,-0.3581,-0.3581,-0.3581,-0.3581,-0.3581,-0.3581,-0.3581,-0.3581,-0.3581,-0.3585,-0.3585,-0.3595,-0.3695,-0.3754,-0.385,-0.4104,-0.4256,-0.4372,0.0,0.0,0.2598,0.2598,0.2577,0.0,0.0,0.0,0.0,0.0,0.0,0.0,0.0,0.0,0.0,0.0,0.1957,0.1603,0.1336,0.1203,0.1194,0.1349,0.1172,0.1013,0.0857,0.0638,0.0,0.0,0.0,0.0,0.0,0.0,0.0,0.0,-0.1316,-0.1282,0.0,0.0,0.0,0.0113,0.0991,0.1407,0.0,0.0,0.2495,0.0,0.342,0.3796,0.3943,0.5027,0.4991,0.0,0.0,0.0,0.0,0.0,0.0332,0.0,0.0,0.0,0.0,0.0,0.0,0.0,-0.4328,-0.4631,-0.4831,0.0,0.0,0.0,0.0,0.0,0.0,0.0,0.0,0.0,0.0,0.0,0.0,0.0,0.0,0.0,0.0,0.0,0.0,-0.3495,-0.3279,-0.3468,-0.4287,-0.388,-0.384,-0.4303,-0.3836,-0.3581,-0.3581,-0.3581,-0.3581,-0.3581,-0.3581,-0.3581,-0.3581,-0.3581,-0.3581,-0.3581,-0.3581,-0.3534,-0.3401,-0.3547,-0.3499,-0.3411,-0.3398,-0.346,-0.3633,-0.4014,-0.406,-0.401,0.3003,0.2781,0.2598,0.2598,0.0,0.0,0.0,0.0,0.0,0.0,0.0,0.0,0.0,0.0,0.0,0.0,0.2437,0.2348,0.202,0.1985,0.1883,0.1715,0.1616,0.1455,0.1207,0.0839,0.0,0.0,0.0,0.0,0.0,0.0,0.0,0.0,-0.1109,-0.1125,0.0,0.0,0.0,-0.0291,0.0685,0.0,0.1416,0.2168,0.2582,0.284,0.3565,0.3741,0.377,0.0,0.474,0.4567,0.0,0.0,0.0,0.0,0.0,0.0,0.0,0.0,0.0,0.0,0.0,0.0,-0.3394,-0.3799,-0.4203,0.0,0.0,0.0,0.0,0.0,0.0,0.0,0.0,0.0,0.0,0.0,0.0,0.0,0.0,0.0,0.0,0.0,-0.3239,-0.304,-0.3193,-0.3423,-0.3741,-0.3667,-0.3667,-0.3751,-0.3667,-0.3581,-0.3581,-0.3581,-0.3581,-0.3581,-0.3581,-0.3581,-0.3581,-0.3581,-0.3581,-0.3581,-0.3581,-0.304,-0.2233,-0.3194,-0.301,-0.2144,-0.2162,-0.2725,-0.363,-0.371,-0.3259,-0.2594,0.2828,0.3358,0.3784,0.3592,0.0,0.0,0.0,0.0,0.0,0.0,0.0,0.0,0.0,0.0,0.0,0.0,0.0,0.0,0.0,0.0,0.2431,0.2264,0.1983,0.1793,0.1649,0.1228,0.065,0.0,0.0,0.0,0.0,0.0,0.0,0.0,0.0,0.0,0.0,0.0,-0.0659,-0.0238,0.0346,0.0,0.1431,0.2234,0.2788,0.3155,0.3541,0.3881,0.4175,0.4746,0.4755,0.0,0.0,0.3886,0.2697,0.0,0.1855,0.1235,0.0,0.0,0.0,-0.1114,0.0,0.0,0.0,-0.3314,-0.3821,0.0,0.0,0.0,0.0,0.0,0.0,0.0,0.0,0.0,0.0,0.0,0.0,0.0,0.0,0.0,0.0,0.0,-0.3505,-0.3117,-0.3337,-0.3497,-0.3578,-0.3581,-0.3581,-0.3581,-0.3581,-0.3581,-0.3581,-0.3581,-0.3581,-0.3581,-0.3581,-0.3581,-0.3581,-0.3585,-0.3588,-0.3588,-0.3595,-0.3236,-0.2739,-0.3344,-0.3251,-0.2563,-0.1386,-0.1267,-0.1939,-0.3152,-0.3283,-0.2742,0.3132,0.4174,0.4971,0.4567,0.0,0.0,0.0,0.0,0.0,0.0,0.0,0.0,0.0,0.0,0.0,0.0,0.0,0.0,0.0,0.0,0.0,0.3012,0.2476,0.2108,0.1967,0.1559,0.1038,0.0401,0.0,0.0,0.0,0.0,0.0,0.0,0.0,0.0,0.0,0.0,0.0,-0.0025,0.0,0.0752,0.146,0.2219,0.2853,0.3344,0.3672,0.4202,0.4787,0.5247,0.0,0.4506,0.5319,0.4532,0.0,0.0,0.0,0.0,0.0,0.0,0.0,0.0,0.0,-0.1295,0.0,0.0,0.0,-0.3145,0.0,0.0,0.0,0.0,0.0,0.0,0.0,0.0,0.0,0.0,0.0,0.0,0.0,0.0,0.0,0.0,-0.3643,-0.329,-0.3437,-0.353,-0.3619,-0.3581,-0.3581,-0.3581,-0.3581,-0.3581,-0.3581,-0.3581,-0.3581,-0.3585,-0.3585,-0.3493,-0.3265,-0.3274,-0.3369,-0.3602,-0.3612,-0.3615,-0.3571,-0.3077,-0.2895,-0.271,-0.0762,0.0,-0.0224,-0.2203,-0.2898,-0.2637,0.4825,0.4981,0.4971,0.4567,0.0,0.0,0.0,0.0,0.0,0.0,0.0,0.0,0.0,0.0,0.0,0.0,0.0,0.0,0.4941,0.0,0.0,0.0,0.3267,0.249,0.1847,0.1586,0.1121,0.0401,0.0,0.0,0.0,0.0,0.0,0.0,-0.1012,0.0,0.0,0.0,-0.0102,0.0,0.0584,0.097,0.0,0.1738,0.2472,0.3392,0.4204,0.4786,0.5267,0.0,0.5368,0.4916,0.0,0.425,0.0,0.0,0.0,0.0,0.0,0.0,0.0,0.0,0.0464,0.0,0.0,0.0,-0.2169,-0.272,0.0,0.0,0.0,0.0,0.0,0.0,0.0,0.0,0.0,0.0,0.0,0.0,0.0,0.0,0.0,0.0,0.0,-0.3124,-0.3193,-0.3349,-0.3602,-0.3581,-0.3581,-0.3581,-0.3581,-0.3581,-0.3581,-0.3581,-0.3585,-0.3595,-0.3595,-0.3049,-0.2008,-0.201,-0.2598,-0.3612,-0.3615,-0.3619,-0.3446,-0.1305,-0.0405,-0.036,-0.009,0.0,-0.0045,-0.0314,-0.0405,-0.0362,0.5108,0.5108,0.4853,0.4048,0.0,0.0,0.0,0.0,0.0,0.0,0.0,0.0,0.0,0.0,0.0,0.0,0.0,0.5994,0.0,0.0,0.0,0.0,0.0,0.0,0.2905,0.2367,0.172,0.0983,0.0446,0.0,0.0,0.0,0.0,0.0,-0.0294,0.0,0.0809,0.0,0.0,0.0,0.0,0.0,0.0,0.2232,0.2884,0.3821,0.4698,0.5119,0.5426,0.0,0.5699,0.0,0.0,0.0,0.0,0.0,0.0,0.0,0.0,0.0,0.0,0.0,0.0,0.0,0.0,0.0,-0.1534,0.0,0.0,0.0,0.0,0.0,0.0,0.0,0.0,0.0,0.0,0.0,0.0,0.0,0.0,0.0,0.0,0.0,0.0,0.0,0.0,-0.3729,-0.3609,-0.388,-0.3924,-0.3626,-0.3581,-0.3581,-0.3581,-0.2922,-0.2572,-0.2549,-0.3246,-0.3343,-0.2781,-0.1396,-0.1051,-0.1526,-0.1532,-0.1495,-0.144,-0.0405,0.0,0.0,0.0,0.0,0.0,0.0,0.0,0.0,0.5108,0.0,0.0,0.0,0.0,0.0,0.0,0.0,0.0,0.0,0.0,0.0,0.8836,0.8306,0.0,0.0,0.0,0.729,0.0,0.0,0.5949,0.0,0.0,0.0,0.0,0.0,0.2295,0.1516,0.0968,0.0,0.0,0.0,0.0,0.0,0.0,0.0887,0.1612,0.0,0.0,0.2183,0.2187,0.2404,0.2692,0.3092,0.3666,0.4422,0.5254,0.565,0.5883,0.6655,0.6195,0.0,0.7258,0.0,0.0,0.0,0.0,0.0,0.3794,0.0,0.0,0.0,0.0,0.0,0.0,0.0,0.0,0.0,0.0,0.0,0.0,0.0,0.0,0.0,0.0,0.0,0.0,0.0,0.0,0.0,0.0,0.0,0.0,0.0,0.0,0.0,0.0,0.0,-0.3825,-0.4176,-0.4132,-0.3622,-0.3581,-0.3445,-0.3129,-0.256,-0.1951,-0.1295,-0.2175,-0.2605,-0.2563,-0.0812,0.0,0.0,0.0,0.0,0.0,0.0,0.0,0.0,0.0,0.0,0.0,0.0,0.0,0.0,0.5108,0.5108,0.0,0.0,0.0,0.0,0.0,0.0,0.0,0.0,0.0,0.0,0.0,0.0,0.0,0.0,0.0,0.8737,0.826,0.0,0.7327,0.0,0.0,0.5505,0.0,0.0,0.0,0.1778,0.0,0.0,0.0,0.0,0.0,0.0,0.0,0.0751,0.1408,0.2903,0.3196,0.2728,0.3092,0.3166,0.3187,0.0,0.4744,0.5144,0.5917,0.0,0.0,0.6983,0.6996,0.0,0.0,0.0,0.0,0.0,0.0,0.0,0.0,0.0,0.0,0.3968,0.0,0.0,0.0,0.0,0.0636,0.0,0.0,0.0,0.0,0.0,0.0,0.0,0.0,0.0,0.0,0.0,0.0,0.0,0.0,0.0,0.0,0.0,0.0,0.0,0.0,0.0,-0.4362,-0.4387,-0.4132,-0.3622,-0.3581,-0.3037,-0.1875,-0.2965,-0.2382,-0.0045,-0.009,-0.0132,-0.0127,-0.0042,0.0,0.0,0.0,0.0,0.0,0.0,0.0,0.0,0.0,0.0,0.0,0.0,0.0,0.0,0.5108,0.0,0.0,0.0,0.0,0.0,0.0,0.6162,0.0,0.0,0.0,0.0,0.0,0.0,0.7695,0.0,0.0,0.9172,0.9583,0.8348,0.0,0.0,0.0,0.6211,0.0,0.0,0.0,0.0,0.0,0.0,0.0,0.0,0.0,0.0,0.0,0.1468,0.0,0.0,0.0,0.0,0.0,0.3965,0.383,0.0,0.0,0.4902,0.5799,0.6491,0.0,0.8033,0.7985,0.7742,0.8812,0.8347,0.7415,0.7297,0.681,0.0,0.0,0.0,0.6109,0.4992,0.0,0.0,0.0,0.0,0.0,0.0,0.0,0.0,0.0,0.0,0.0,0.0,0.0,0.0,0.0,0.0,0.0,0.0,0.0,0.0,0.0,0.0,0.0,0.0,0.0,0.0,0.0,-0.5,-0.4739,-0.4136,-0.3803,-0.3001,-0.183,-0.1394,-0.0786,0.0,0.0,0.0,0.0,0.0,0.0,0.0,0.0,0.0,0.0,0.0,0.0,0.0,0.0,0.0,0.0,0.0,0.0,0.0,0.5928,0.0,0.0,0.0,0.0,0.0,0.0,0.0,0.0,0.0,0.7056,0.0,0.7695,0.0,0.7695,0.0,0.8201,0.8916,0.9775,0.9123,0.0,0.9079,0.7939,0.0,0.0,0.0,0.0,0.0,0.0,0.2959,0.0,0.0,0.0,0.0,0.0,0.0,0.0,0.0,0.3849,0.0,0.0,0.4173,0.0,0.0,0.3557,0.4724,0.0,0.7008,0.7891,0.8517,0.8729,0.8858,0.9772,0.9432,0.8656,0.8447,0.787,0.7132,0.6505,0.6709,0.0,0.5871,0.6015,0.0,0.451,0.0,0.0,0.0,0.0,0.0,0.0,0.0,0.0,0.0,0.0,0.0,0.0,-0.031,0.0,0.0,0.0,0.0,0.0,0.0,0.0,0.0,0.0,0.0,0.0,0.0,-0.4696,-0.4136,-0.3762,-0.3004,-0.183,-0.061,0.0,0.0,0.0,0.0,0.0,0.0,0.0,0.0,0.0,0.0,0.0,0.0,0.0,0.0,0.0,0.0,0.0,0.0,0.0,0.0,0.7368,0.7637,0.0,0.0,0.5926,0.0,0.0,0.0,0.7053,0.0,0.7695,0.7695,0.7695,0.7754,0.7783,0.7695,0.7783,0.0,0.8887,0.9756,0.0,0.0,0.9079,0.899,0.94,0.0,0.0,0.0,0.0,0.0,0.0,0.0,0.0,0.0,0.1507,0.0,0.2338,0.2946,0.3721,0.4561,0.5173,0.3994,0.1822,0.129,0.0,0.4557,0.615,0.7749,0.8972,0.8532,0.9235,1.0205,0.9729,0.9932,1.0079,0.9013,0.8699,0.844,0.7079,0.6732,0.6729,0.6679,0.0,0.0,0.0,0.0,0.5043,0.0,0.0,0.0,0.0,0.0,0.0,0.0,0.0,0.0,0.0,0.0,0.0,0.0,0.0,0.0,0.0,0.0,0.0,0.0,0.0,0.0,0.0,0.0,0.0,-0.3667,-0.3636,-0.3004,-0.183,-0.0583,0.0,0.0,0.0,0.0,0.0,0.0,0.0,0.0,0.0,0.0,0.0,0.0,0.0,0.0,0.0,0.0,0.0,0.0,0.0,0.0,0.6171,0.681,0.7473,0.0,0.7225,0.7695,0.0,0.0,0.0,0.0,0.7695,0.7695,0.7695,0.8679,0.8899,0.7812,0.8706,0.0,0.0,0.0,0.0,0.9592,0.9194,0.9095,0.94,0.7957,0.0,0.7254,0.0,0.0,0.4462,0.0,0.0,0.0,0.0,0.0,0.2034,0.2809,0.4382,0.6331,0.6507,0.5166,0.0,0.0,0.146,0.206,0.2843,0.4664,0.7009,0.9077,1.0041,1.0205,0.9729,0.9932,1.0099,0.9088,0.9011,0.9133,0.8359,0.8447,0.8593,0.7967,0.8048,0.8106,0.0,0.0,0.0,0.0,0.0,0.0,0.0,0.0,0.0,0.0,0.0,0.0,0.0,0.0,0.0,0.0,0.0,0.0,0.0,0.0,0.0,0.0,0.0,0.0,0.0,0.0,0.0,-0.4216,-0.3806,-0.3004,-0.183,-0.0583,0.0,0.0,0.0,0.0,0.0,0.0,0.0,0.0,0.0,0.0,0.0,0.0,0.0,0.0,0.0,0.0,0.0,0.0,0.0,0.0,0.6591,0.0,0.0,0.7695,0.0,0.0,0.7695,0.0,0.0,0.874,0.9573,0.0,0.8938,0.9477,0.9569,0.8734,0.941,0.0,0.0,0.0,0.0,0.9551,0.9534,0.9587,0.9754,0.8797,0.0,0.7897,0.0,0.0,0.489,0.0,0.0,0.0,0.0,0.191,0.0,0.3039,0.4233,0.5551,0.6574,0.0,0.0,0.1356,0.0828,0.1383,0.3575,0.4859,0.5902,0.8627,0.9746,0.9922,0.9492,0.9521,0.9597,0.8976,0.8999,0.9136,0.8795,0.8918,0.9107,0.885,0.8991,0.9067,0.8468,0.8317,0.8335,0.0,0.0,0.0,0.0,0.0,0.0,0.0,0.0,0.0,0.0,0.0,0.0,0.0,0.0,0.0,0.0,0.0,0.0,0.0,0.0,0.0,0.0,0.0,0.0,-0.3941,-0.3705,-0.3294,-0.26,-0.0868,0.0,0.0,0.1078,0.1562,0.1538,0.0485,0.0283,0.0766,0.0243,0.0,0.0,0.0,0.0629,0.1485,0.0405,0.0,0.0,0.0,0.0,0.0,0.0,0.0,0.0,0.0,0.0,0.0,0.0,0.7841,0.0,0.9756,0.0,1.1989,1.0415,1.0038,0.9905,0.9905,0.0,0.9738,0.9331,0.9089,0.9136,0.9567,1.0057,1.0337,1.0421,0.9788,0.0,0.0,0.0,0.0,0.0,0.0,0.0,0.0,0.0,0.0,0.0,0.3671,0.3774,0.0,0.5252,0.4854,0.2822,0.0777,0.0402,0.1517,0.57,0.644,0.5769,0.7939,0.9053,0.9437,0.9053,0.8955,0.8969,0.8858,0.8839,0.8818,0.8819,0.8802,0.893,0.9397,0.9561,0.9502,0.9088,0.9211,0.9464,0.9658,0.9291,0.9763,0.0,0.0,0.0,0.0,0.0,0.0,0.0,0.0,0.0,0.0,0.0,0.0,0.0,0.0,0.0,0.0,0.0,0.0,0.0,0.0,0.0,0.0,-0.3517,0.0,-0.3615,0.0,0.014,0.0494,0.2613,0.3578,0.3514,0.1426,0.0962,0.1757,0.0839,0.0388,0.0223,0.0224,0.1484,0.3167,0.1213,0.0359,0.0223,0.0224,0.0224,0.0225,0.0,0.0,0.0,0.0,0.0,0.8172,0.9619,0.8633,0.7812,0.8104,0.8882,0.0,0.9932,0.9934,0.9905,0.9905,0.9905,0.0,0.0,0.0,0.0,1.0149,1.0656,1.1126,1.1519,1.0393,0.9688,0.0,0.0,0.0,0.0,0.0,0.0,0.0,0.0,0.0,0.3057,0.517,0.0,0.0651,0.1056,0.0976,0.0571,0.0159,0.0081,0.0577,0.3507,0.5723,0.7413,0.8555,0.9014,0.9043,0.8623,0.873,0.898,0.8989,0.8973,0.9025,0.9364,0.9441,0.9478,0.9552,0.9858,1.0118,1.005,1.0079,1.0261,1.064,1.1006,1.1314,1.1593,0.0,0.0,0.0,0.0,0.0,0.0,0.0,0.0,0.0,0.0,0.0,0.0,0.0,0.0,0.0,0.0,0.0,0.0,0.0,0.0,0.0,0.0,0.0,0.0,0.0,0.0,0.2976,0.3385,0.3618,0.3587,0.3156,0.2558,0.1838,0.2644,0.2409,0.1472,0.1474,0.1743,0.2192,0.2737,0.2373,0.1472,0.1474,0.1474,0.134,0.0,0.0,0.0,0.0,0.0,0.0,0.0,1.1092,0.0,1.0544,1.081,1.1166,1.1565,1.0596,0.9905,0.9905,1.0494,1.0616,0.9944,0.9905,0.9951,1.0092,1.0713,0.0,1.1296,1.1158,1.058,0.9557,0.0,0.0,0.0,0.0,0.0,0.0,0.0,0.3282,0.0,0.0,0.0,0.3802,0.1088,0.0,0.0,0.0,0.0,0.0518,0.4463,0.667,0.7793,0.8467,0.8682,0.8643,0.8469,0.8359,0.8389,0.8613,0.8682,0.877,0.9189,0.9271,0.932,0.9534,0.9758,1.0,1.0225,1.0283,1.0428,1.0905,1.1664,1.2155,1.2014,1.1023,0.0,0.0,0.0,0.0,0.0,0.0,0.0,0.0,0.0,0.0,0.0,0.0,0.0,0.0,0.0,0.0,0.0,0.0,0.0,0.0,0.0,0.0,0.0,0.0,0.0,0.3615,0.3609,0.3605,0.3609,0.3609,0.3301,0.2773,0.3351,0.3256,0.2724,0.2729,0.2729,0.2771,0.3366,0.323,0.2724,0.2729,0.2732,0.2462,0.0,0.7695,0.0,0.0,0.9052,0.0,0.0,1.3198,1.3198,1.3198,1.3198,1.3023,1.2547,1.1189,1.031,1.031,1.0973,1.0973,0.997,1.0135,1.0185,0.9905,1.0706,1.1103,1.0977,1.1937,1.1492,0.0,0.0,0.0,0.0,0.0,0.0,0.0,0.0,0.0,0.0,0.0,0.7046,0.7555,0.3733,0.1309,0.0117,0.1216,0.1634,0.2169,0.6236,0.7695,0.7754,0.8125,0.8242,0.8242,0.8242,0.8008,0.7783,0.8252,0.8311,0.833,0.876,0.8877,0.8975,0.9359,0.9524,0.9709,1.0186,1.0283,1.039,1.0802,1.1666,1.2388,1.2407,1.1688,0.0,0.0,0.0,0.0,0.0,0.0,0.0,0.0,0.0,0.0,0.0,0.0,0.0,0.0,0.0,0.0,0.0,0.0,0.0,0.0,0.0,0.0,-0.0,0.0,0.1578,0.0,0.3462,0.3588,0.3581,0.3581,0.3581,0.3581,0.3592,0.3588,0.3581,0.3592,0.3588,0.3581,0.3592,0.3588,0.3581,0.3592,0.3612,0.3362,0.0,0.0,0.0,0.0,0.0,0.0,0.0,1.3198,1.3198,1.3198,1.3198,1.2434,1.0433,1.1051,1.1615,1.1615,1.0688,1.0021,0.9905,1.0973,1.1113,0.9944,1.1016,1.1616,1.1545,1.2556,1.2143,0.0,0.0,0.0,0.0,0.0,0.0,0.0,0.0,0.0,0.0,0.7361,0.7992,0.8312,0.9043,0.5576,0.0506,0.5195,0.6975,0.7044,0.753,0.7695,0.7705,0.7744,0.7754,0.7754,0.7754,0.7734,0.7783,0.8252,0.8096,0.7881,0.832,0.8469,0.8535,0.8955,0.932,0.9709,1.0186,1.0283,1.0322,1.0361,1.1092,1.1719,1.1755,1.229,1.2051,0.0,0.0,0.0,0.0,0.0,0.0,0.0,0.0,0.0,0.0,0.0,0.0,0.0,0.0,0.0,0.0,0.0,0.0,-0.3469,0.0,-0.0128,-0.0,0.2171,0.0,0.1966,0.3084,0.3581,0.3581,0.3581,0.3581,0.3581,0.3581,0.3581,0.3581,0.3581,0.3581,0.3581,0.3581,0.3581,0.3581,0.3581,0.3663,0.3775,0.0,0.0,0.0,0.0,0.0,0.0,0.0,1.3198,1.2993,1.2417,1.2359,1.201,1.1155,1.149,1.1805,1.1805,1.1318,1.1043,1.1043,1.1512,1.1557,1.1066,1.1039,1.1295,1.1822,1.2095,1.1957,0.0,0.0,0.0,0.0,0.0,0.0,0.0,0.0,0.7191,0.7303,0.8431,0.8919,0.9004,0.9507,0.7431,0.4121,0.5063,0.6377,0.7695,0.7695,0.7695,0.7695,0.7695,0.7695,0.7695,0.7695,0.7695,0.7734,0.7939,0.7832,0.7734,0.7939,0.7988,0.8096,0.8525,0.8945,0.9365,0.9795,1.0316,1.072,1.0685,1.1357,1.2163,1.285,1.2523,1.2044,0.0,0.0,0.0,0.0,0.0,0.0,0.0,0.0,0.0,0.0,0.0,0.0,0.0,0.0,0.0,0.0,0.0,0.0,-0.2371,0.0,-0.0792,0.2141,0.3109,0.3367,0.2904,0.3353,0.3581,0.3581,0.3581,0.3581,0.3581,0.3581,0.3581,0.3581,0.3581,0.3581,0.3581,0.3581,0.3581,0.3592,0.3676,0.3741,0.3805,1.1961,0.0,1.6522,0.0,1.5982,1.4989,1.3436,1.3198,1.2849,1.1932,1.1805,1.1805,1.1805,1.1805,1.1805,1.1805,1.1805,1.1805,1.1805,1.1805,1.1805,1.1805,1.115,0.0,1.153,1.1638,1.1832,1.211,1.1287,0.0,0.0,0.0,0.0,0.0,0.8375,0.8407,0.8246,0.9395,0.961,0.9194,0.9435,0.8673,0.7281,0.5957,0.658,0.8138,0.8052,0.8023,0.8023,0.8023,0.8023,0.7994,0.7783,0.7783,0.7841,0.7725,0.7783,0.7841,0.7725,0.7695,0.7832,0.8428,0.8879,0.9347,0.9906,1.064,1.1263,1.1297,1.1787,1.2493,1.3375,1.2669,1.2155,1.2607,0.0,0.0,0.0,0.0,0.0,0.0,0.0,0.7882,0.0,0.0,0.0,0.0,0.0,0.0,0.0,0.0,0.0,0.0,0.0,0.0,0.0,0.3667,0.3655,0.3581,0.3581,0.3581,0.3581,0.3581,0.3581,0.3581,0.3581,0.3581,0.3581,0.3581,0.3581,0.3581,0.3581,0.3605,0.3653,0.3754,0.3846,0.3941,1.6831,1.6441,1.6522,1.6522,1.4675,1.3235,1.3198,1.3198,1.2849,1.1932,1.1805,1.1805,1.1805,1.1805,1.1805,1.1805,1.1805,1.1805,1.1805,1.1805,1.1805,0.0,0.0,1.102,1.0422,1.1464,1.2032,1.209,0.0,0.0,1.0554,0.0,0.8585,0.8675,0.8675,0.8832,0.9152,1.0229,0.9916,0.8781,0.9644,0.9667,0.9162,0.9138,0.9162,0.9131,0.8871,0.8789,0.8789,0.8789,0.8789,0.8651,0.7947,0.7976,0.8205,0.7812,0.7976,0.8205,0.7812,0.7695,0.79,0.8789,0.9355,0.9919,1.0798,1.1394,1.1892,1.2194,1.2252,1.2363,1.2803,1.292,1.2725,1.2258,0.0,0.0,0.0,0.0,0.0,0.0,0.8896,0.8509,0.7863,0.0,0.0,0.0,0.0,0.0,0.0,0.0,0.0,0.0,0.0856,0.0,0.3574,0.3794,0.378,0.3581,0.3581,0.3581,0.3581,0.3581,0.3581,0.3581,0.3581,0.3581,0.3581,0.3581,0.3581,0.3581,0.3581,0.3666,0.3788,0.3792,0.3982,0.419,1.6151,1.6018,1.5647,1.4446,1.3661,1.3615,1.4783,1.3431,1.239,1.2838,1.2889,1.2889,1.2889,1.2235,1.1805,0.0,1.1805,1.1805,0.0,1.1805,1.1805,1.1805,1.149,1.1618,1.2307,1.2112,1.2442,1.3337,0.0,0.0,0.0,1.0407,1.0203,1.0205,1.0562,1.0626,1.043,1.1141,1.0949,1.0143,1.0432,1.0219,0.9659,0.9422,0.9343,0.9289,0.8926,0.8789,0.8789,0.8789,0.9041,0.9225,0.8648,0.8382,0.829,0.8148,0.8004,0.787,0.7725,0.7695,0.7832,0.8437,0.9142,0.9869,1.0456,1.1703,1.2749,1.2845,1.3087,1.3238,1.2991,1.2656,1.2393,1.2209,1.1887,0.0,0.0,0.0,0.0,0.0,0.0,0.9257,0.0,0.7982,0.0,0.0,0.0,0.0,0.0,0.0,0.0,0.0,0.1815,0.0,0.3807,0.3843,0.3785,0.3581,0.3581,0.3581,0.3581,0.3581,0.3581,0.3581,0.3581,0.3636,0.3724,0.3724,0.3785,0.388,0.388,0.3843,0.3816,0.4026,0.4046,0.407,1.5799,1.5799,1.5448,1.4374,1.3346,1.3048,1.4127,1.3221,1.2649,1.3295,1.3396,1.3396,1.3396,1.2455,0.0,1.2376,1.203,1.1805,1.1805,1.1805,1.1805,1.1805,1.1601,1.1916,1.2833,0.0,0.0,1.3557,1.2743,1.2059,1.1568,1.1568,1.1432,1.1242,1.1348,1.1351,1.1297,1.1406,1.1279,1.096,1.081,1.0476,1.0034,0.9712,0.9581,0.9555,0.9304,0.9224,0.9247,0.9446,0.9728,1.0003,0.9874,0.9609,0.9208,0.8672,0.8336,0.8139,0.7999,0.7822,0.7841,0.8467,0.9315,1.0245,1.1227,1.2491,1.338,1.2942,1.3368,1.3585,1.2828,1.2447,1.218,1.218,1.1992,1.1758,1.1626,0.0,0.0,0.0,0.0,0.0,0.0,0.8227,0.0,0.0,0.0,0.0,0.0,0.0,0.0,0.3044,0.3061,0.0,0.3886,0.3933,0.3829,0.3581,0.3581,0.3581,0.3581,0.3636,0.3632,0.3585,0.3636,0.368,0.3717,0.3771,0.3846,0.3938,0.3995,0.3995,0.3985,0.4127,0.417,0.4212,1.5799,1.5649,0.0,0.0,1.3509,0.0,1.1918,1.2762,1.3396,1.3396,1.3396,1.3396,1.3396,1.2514,1.2316,1.3312,0.0,0.0,0.0,1.1918,1.1918,1.1918,1.1833,1.1993,1.2352,1.2874,1.3109,1.3019,1.3127,1.2975,1.2532,1.2425,1.2176,1.1788,1.1203,1.1271,1.1796,1.1169,1.1082,1.1315,1.091,1.0623,1.0409,1.0072,0.9944,0.9982,0.9956,0.9981,1.0094,1.0581,1.0781,1.0906,1.1425,1.137,1.0833,0.9451,0.9004,0.8891,0.8567,0.8156,0.8018,0.8871,0.9861,1.1081,1.2824,1.3667,1.3764,1.2709,1.3238,1.3549,1.2526,1.2273,1.218,1.218,1.2161,1.2041,1.1665,0.0,0.0,0.0,0.0,0.0,0.0,0.7864,0.8008,0.0,0.0,0.0,0.0,0.0,0.4335,0.448,0.4484,0.4341,0.3902,0.3989,0.3894,0.3609,0.3609,0.3609,0.3615,0.3737,0.3721,0.3602,0.3724,0.3714,0.3622,0.3751,0.3819,0.3853,0.3995,0.408,0.4197,0.4207,0.4341,0.4501,0.0,0.0,1.2747,1.2747,1.2898,1.3016,1.3016,1.3243,1.3396,1.3396,1.3396,1.3396,1.3396,1.3157,1.3122,1.3379,1.3157,1.3016,1.3016,1.3016,1.3016,1.3016,1.2235,1.217,1.2978,1.2639,1.2743,1.3381,1.3147,1.3038,1.2923,1.1739,1.1421,1.1777,1.1376,1.1503,1.2028,1.2067,1.192,1.1603,1.1509,1.1195,1.0753,1.0409,1.0534,1.0859,1.0602,1.0809,1.1211,1.1337,1.1663,1.1964,1.1676,1.1866,1.1915,1.0833,1.0021,0.9487,0.9422,0.9066,0.8928,0.9836,1.1077,1.2234,1.3032,1.3963,1.4522,1.384,1.4132,1.4279,1.3618,1.2802,1.218,1.218,1.1943,1.1724,1.1616,1.1895,0.0,0.0,1.0632,1.0082,0.9134,0.8749,0.8313,0.0,0.0,0.0,0.0,0.0,0.4778,0.4515,0.4522,0.4379,0.4147,0.4143,0.405,0.3917,0.3917,0.3917,0.3914,0.3829,0.3775,0.3737,0.3663,0.3737,0.3917,0.3951,0.41,0.4361,0.4345,0.4314,0.4207,0.4372,0.4365,0.4314,1.4711,1.3521,1.2533,1.2533,1.2998,1.3396,1.3396,1.3396,1.3396,1.3396,1.3396,1.3396,1.3396,1.3396,1.3396,1.3396,1.2944,1.2889,1.3363,1.3396,1.3396,1.3396,1.261,1.2499,1.3173,1.273,1.2773,1.3361,1.2988,1.2797,1.2816,1.1976,1.177,1.2082,1.1666,1.1764,1.226,1.1912,1.1836,1.1883,1.149,1.1235,1.1048,1.075,1.0807,1.108,1.1216,1.1329,1.151,1.2054,1.2297,1.2404,1.2354,1.2543,1.2716,1.2164,1.1211,1.032,1.032,1.0013,0.9979,1.1145,1.2175,1.3071,1.3814,1.4638,1.5039,1.4273,1.4421,1.4461,1.3696,1.2791,1.218,1.218,1.1846,1.1577,1.1448,1.1593,0.0,1.0655,1.0447,1.0046,0.9228,0.8912,0.8604,0.8116,0.0,0.0,0.6222,0.5602,0.5023,0.4512,0.4519,0.4392,0.4197,0.4127,0.4253,0.4508,0.4168,0.4165,0.4508,0.4151,0.3924,0.3792,0.3785,0.3832,0.3921,0.3992,0.4155,0.4372,0.4436,0.4412,0.4355,0.4433,0.4412,0.4358,1.3396,1.3479,1.3576,1.3576,1.3576,1.3528,1.3413,1.3396,1.3396,1.3396,1.3396,1.3396,1.3396,1.3396,1.3396,1.3396,1.2572,1.2435,1.3346,1.3396,1.3396,1.3396,1.2962,1.286,1.3171,1.2985,1.2951,1.313,1.2689,1.2513,1.2595,1.2362,1.2348,1.2484,1.1908,1.1948,1.2389,1.1426,1.1452,1.2062,1.1343,1.1244,1.15,1.1212,1.1218,1.144,1.1994,1.1926,1.1755,1.279,1.2877,1.2584,1.3048,1.3198,1.3198,1.3198,1.236,1.1388,1.132,1.1137,1.1213,1.2495,1.3155,1.3786,1.4687,1.5291,1.5433,1.4405,1.4451,1.4427,1.3525,1.2838,1.2434,1.2365,1.2133,1.1801,1.1397,0.0,1.0962,1.0084,0.9865,0.951,0.8857,0.8844,0.8851,0.8811,0.8246,0.7543,0.0,0.5982,0.5328,0.4515,0.4519,0.4457,0.4383,0.4302,0.4584,0.5327,0.4684,0.4684,0.5131,0.4606,0.4205,0.3866,0.3948,0.3938,0.387,0.3975,0.4073,0.4241,0.4412,0.4519,0.4519,0.4519,0.4519,0.4519,1.3396,1.3906,1.4325,1.4325,1.4325,1.4114,1.3512,1.3396,1.3396,1.3396,1.3396,1.3396,1.3396,1.3396,1.3396,1.3396,1.3243,1.3226,1.3379,1.3396,1.3396,1.3396,1.3329,1.3206,1.3032,1.311,1.3054,1.2856,1.2512,1.2584,1.3059,1.1757,1.1621,1.2471,1.1689,1.1694,1.2223,1.1826,1.1755,1.1852,1.1704,1.2007,1.252,1.2197,1.271,1.3585,1.3445,1.3435,1.3517,1.3703,1.3452,1.3085,1.3173,1.3198,1.3198,1.3198,1.3067,1.2785,1.2377,1.2579,1.2923,1.3152,1.3949,1.4687,1.4852,1.5291,1.5504,1.4827,1.4716,1.463,1.446,1.3943,1.3398,1.3003,1.3257,1.3129,1.2163,0.0,1.1446,1.0712,1.0167,0.951,0.8857,0.9025,0.9072,0.8824,0.8923,0.8288,0.6707,0.648,0.5823,0.4519,0.4519,0.4776,0.5283,0.5259,0.5623,0.6376,0.627,0.5944,0.5449,0.523,0.4784,0.4113,0.3927,0.3961,0.4117,0.4013,0.4182,0.4433,0.4508,0.4519,0.4519,0.4519,0.4519,0.4519,1.3991,1.4275,1.4488,1.4488,1.4488,1.4263,1.3511,1.3396,1.3396,1.3396,1.3761,1.3833,1.3446,1.3396,1.3396,1.3396,1.3396,1.3396,1.3396,1.3396,1.3396,1.3396,1.3396,1.3208,1.2797,1.2706,1.2675,1.2681,1.2246,1.2251,1.2641,1.2156,1.199,1.2134,1.2103,1.2056,1.1989,1.1837,1.1805,1.1835,1.2179,1.2531,1.2822,1.3035,1.3462,1.3967,1.4209,1.4154,1.4045,1.4156,1.3934,1.3514,1.3301,1.3198,1.3198,1.3198,1.3198,1.3163,1.2943,1.3056,1.3374,1.3987,1.4523,1.5067,1.5618,1.5957,1.6048,1.5752,1.5445,1.5186,1.5186,1.4411,1.3752,1.3531,1.3155,0.0,0.0,1.2222,1.1922,1.0685,1.0753,1.0432,0.916,0.9305,0.9359,0.9065,0.9312,0.889,0.7555,0.7102,0.6317,0.5058,0.5058,0.5164,0.5487,0.5873,0.6475,0.7182,0.6804,0.6421,0.6086,0.5618,0.4949,0.4187,0.4046,0.4066,0.419,0.412,0.427,0.4519,0.4519,0.4519,0.4519,0.4519,0.4519,0.4519,1.4488,1.4488,1.4488,1.4488,1.4488,1.4313,1.3728,1.3653,1.3653,1.3653,1.4141,1.4288,1.3731,1.3495,1.3396,1.3396,1.3396,1.3396,1.3396,1.3396,1.3396,1.3396,1.3396,1.3191,1.2687,1.2491,1.2471,1.261,1.2195,1.2086,1.2307,1.2711,1.2667,1.2262,1.2712,1.2697,1.2372,1.2199,1.2185,1.2314,1.2846,1.313,1.3325,1.384,1.4139,1.4333,1.4842,1.4727,1.4356,1.4583,1.431,1.3835,1.3493,1.3377,1.3396,1.3235,1.3286,1.3396,1.3235,1.3286,1.3659,1.4664,1.5004,1.5316,1.6296,1.6522,1.6479,1.6337,1.5908,1.5588,1.5588,1.4732,1.3971,1.3864,0.0,0.0,0.0,1.2572,1.2401,1.0872,1.1225,1.0988,0.9464,0.9552,0.9586,0.9359,0.9613,0.9363,0.833,0.7688,0.687,0.5764,0.5597,0.5597,0.576,0.6475,0.7235,0.7937,0.7402,0.702,0.6858,0.6253,0.547,0.4502,0.4467,0.4369,0.4241,0.421,0.4331,0.4519,0.4519,0.4519,0.4519,0.4519,0.4519,0.4519,1.4488,1.4488,1.4488,1.4488,1.4488,1.4476,1.4429,1.4429,1.4429,1.4429,1.4464,1.4476,1.4429,1.3803,1.3396,1.3396,1.3396,1.3396,1.3396,1.3396,1.3396,1.3396,1.3396,1.3277,1.2995,1.2942,1.2832,1.261,1.2572,1.2553,1.2588,1.2993,1.3312,1.3562,1.329,1.352,1.407,1.3396,1.3313,1.3675,1.372,1.4094,1.4648,1.4692,1.5124,1.5664,1.5709,1.5404,1.5032,1.5059,1.4533,1.3901,1.3868,1.3943,1.3921,1.3348,1.3596,1.3909,1.3336,1.3609,1.4173,1.4765,1.5254,1.5781,1.6384,1.6522,1.6337,1.5776,1.5632,1.5588,1.5588,1.505,1.4507,1.4159,0.0,0.0,1.2969,1.2969,1.2779,1.1909,1.1107,1.0346,0.9735,0.9673,0.9679,0.9653,0.992,0.9648,0.8651,0.8297,0.7655,0.6539,0.5873,0.5814,0.6534,0.7235,0.7996,0.8699,0.8646,0.8262,0.7616,0.7557,0.673,0.5404,0.5299,0.4953,0.4491,0.4304,0.4331,0.4519,0.4519,0.4519,0.4519,0.4519,0.4519,0.4519,1.4488,1.4488,1.4488,1.4488,1.4488,1.4488,1.4488,1.4488,1.4488,1.4488,1.4488,1.4325,1.3862,1.3576,1.3396,1.3396,1.3396,1.4449,1.6888,1.4775,1.3396,1.3396,1.3396,1.3346,1.3243,1.3534,1.371,1.3766,1.3443,1.3593,1.4194,1.3685,1.3542,1.3721,1.4003,1.3942,1.3643,1.3798,1.3857,1.3855,1.4259,1.4573,1.4842,1.5274,1.5589,1.5799,1.5799,1.5697,1.5477,1.5195,1.4942,1.4701,1.4368,1.4196,1.4035,1.3846,1.416,1.4551,1.4312,1.4186,1.4299,1.5205,1.5279,1.5417,1.6308,1.6522,1.6423,1.6194,1.6151,1.6051,1.5676,1.5303,1.489,1.4385,0.0,1.4079,1.3682,1.3946,1.3849,1.3046,1.284,1.2225,1.0814,1.0869,1.0732,1.002,1.0227,1.0137,0.9541,0.8685,0.7784,0.6966,0.6872,0.7015,0.7289,0.799,0.854,0.8804,0.8804,0.8427,0.7723,0.7723,0.7128,0.614,0.5632,0.5321,0.5105,0.4562,0.4682,0.5109,0.5109,0.5386,0.5828,0.5828,0.5828,0.5828,1.4488,1.4488,1.4488,1.4488,1.4488,1.4488,1.4488,1.4488,1.4488,1.4488,1.4488,1.4313,1.3789,1.3761,1.3761,1.3761,1.3528,1.4552,1.7273,1.4912,1.3549,1.387,1.387,1.3938,1.4091,1.4398,1.4666,1.4851,1.4473,1.464,1.53,1.4463,1.4286,1.464,1.4773,1.4693,1.452,1.4796,1.4787,1.4637,1.5091,1.5206,1.5169,1.5619,1.5799,1.5799,1.5799,1.5799,1.5741,1.5418,1.5427,1.5496,1.5109,1.4924,1.4902,1.5042,1.5376,1.5633,1.5633,1.5389,1.5218,1.5585,1.5564,1.5592,1.6338,1.6522,1.6522,1.6522,1.666,1.6598,1.5939,1.5705,1.5367,1.4721,1.4455,1.4336,1.4336,1.4707,1.4687,1.3874,1.3943,1.3372,1.1616,1.154,1.1272,1.0322,1.0448,1.0428,1.0134,0.9258,0.8546,0.7943,0.8086,0.8172,0.8172,0.8579,0.8804,0.8804,0.8804,0.8533,0.8049,0.8049,0.767,0.6912,0.6145,0.5873,0.5814,0.5113,0.5222,0.5873,0.5873,0.6145,0.6588,0.6588,0.6588,0.6588,1.4488,1.4488,1.4488,1.4488,1.4488,1.4488,1.4488,1.4488,1.4488,1.4488,1.4488,1.4488,1.4488,1.4488,1.4488,1.4488,1.3833,1.3396,1.3413,1.3413,1.387,1.4868,1.4902,1.5122,1.5578,1.5595,1.5612,1.5612,1.5612,1.5612,1.5612,1.5259,1.5683,1.6644,1.5595,1.5923,1.723,1.6515,1.6249,1.6301,1.6301,1.608,1.5799,1.5799,1.5799,1.5799,1.5799,1.5799,1.5814,1.5814,1.5949,1.6117,1.6117,1.6269,1.6617,1.7157,1.7288,1.7308,1.7316,1.7314,1.7057,1.5964,1.6111,1.6494,1.6511,1.6522,1.6522,1.6522,1.6986,1.7194,1.6432,1.6256,1.5935,1.5247,1.4938,1.4785,1.4785,1.5146,1.5108,1.4332,1.3996,1.3316,1.192,1.1533,1.1127,1.0661,1.0624,1.0428,1.0134,1.0114,0.998,0.9693,0.9392,0.9183,0.9183,0.8951,0.8804,0.8804,0.8804,0.8804,0.8804,0.8804,0.8427,0.767,0.6912,0.6588,0.6534,0.5814,0.5928,0.6588,0.6588,0.6588,0.6642,0.6642,0.6642,0.6642,1.4488,1.4488,1.4488,1.4488,1.4488,1.4488,1.4488,1.4488,1.4488,1.4488,1.4488,1.4488,1.4488,1.4488,1.4488,1.4488,1.4301,1.4394,1.4924,1.4641,1.4968,1.6106,1.5341,1.4885,1.4834,1.5832,1.6377,1.6377,1.6377,1.6627,1.7134,1.5987,1.5886,1.6699,1.6357,1.6342,1.6548,1.6851,1.6708,1.6301,1.6301,1.608,1.5799,1.5799,1.5799,1.5799,1.5799,1.6069,1.6428,1.6428,1.6858,1.7311,1.7029,1.7192,1.7454,1.7322,1.7573,1.7871,1.7853,1.8124,1.819,1.7089,1.6678,1.6494,1.6511,1.6522,1.6635,1.7036,1.7262,1.7306,1.7039,1.6811,1.642,1.5743,1.5437,1.5225,1.5225,1.5332,1.541,1.552,1.5453,1.5046,1.4056,1.3335,1.2469,1.1538,1.0926,1.0584,1.0434,1.0234,1.0074,0.9987,0.9499,0.9183,0.9183,0.8951,0.8804,0.8804,0.8804,0.8804,0.8804,0.8804,0.8699,0.8427,0.767,0.7396,0.7289,0.6583,0.6691,0.7396,0.7396,0.767,0.8156,0.8156,0.8156,0.8156,1.4488,1.4488,1.4488,1.4488,1.4488,1.4488,1.4488,1.4488,1.4488,1.4488,1.4488,1.4488,1.4488,1.4488,1.4488,1.4488,1.4907,1.5098,1.4934,1.4899,1.5193,1.5919,1.5739,1.5663,1.5795,1.6678,1.7134,1.7134,1.7134,1.7354,1.7777,1.6593,1.6424,1.7117,1.6834,1.6761,1.6864,1.7319,1.7101,1.6501,1.6501,1.6219,1.5799,1.5799,1.5799,1.5829,1.6069,1.6383,1.6756,1.701,1.7574,1.8214,1.8245,1.8404,1.8513,1.8058,1.8314,1.8688,1.8458,1.8817,1.8968,1.7867,1.7357,1.7037,1.6604,1.6697,1.6961,1.7313,1.7727,1.7927,1.7579,1.7536,1.7295,1.6517,1.6079,1.5878,1.5889,1.5781,1.583,1.6269,1.6328,1.5999,1.5232,1.419,1.2948,1.1435,1.0973,1.0681,1.0631,1.0388,1.0294,1.0294,0.9833,0.9528,0.9528,0.9185,0.8918,0.8804,0.8804,0.8804,0.8804,0.8804,0.8804,0.8752,0.8049,0.7883,0.8103,0.7343,0.745,0.8156,0.8156,0.8427,0.8804,0.8804,0.8804,0.8804,1.4488,1.4488,1.4488,1.4488,1.4488,1.4488,1.4488,1.4488,1.4488,1.4488,1.4488,1.4488,1.4488,1.4441,1.4514,1.4763,1.5821,1.5825,1.4257,1.4632,1.4969,1.5107,1.614,1.7033,1.7794,1.7811,1.7811,1.7811,1.7811,1.7811,1.7794,1.7101,1.7151,1.7777,1.7084,1.7151,1.7766,1.7766,1.7361,1.6763,1.6763,1.6367,1.5799,1.5799,1.5799,1.5873,1.6413,1.6697,1.6906,1.7623,1.8298,1.8897,1.9495,1.969,1.9603,1.9132,1.9332,1.9603,1.9095,1.9281,1.9369,1.838,1.8094,1.7814,1.6765,1.6974,1.74,1.7451,1.8292,1.8821,1.8154,1.8394,1.8394,1.7451,1.6885,1.6578,1.6674,1.6377,1.6289,1.6738,1.6787,1.645,1.5771,1.4443,1.2885,1.0973,1.0947,1.0915,1.0648,1.0678,1.0665,1.0665,1.0287,1.0114,1.0114,0.9502,0.9132,0.8844,0.8818,0.8804,0.8804,0.8804,0.8804,0.8752,0.8103,0.8156,0.8752,0.8049,0.8209,0.8804,0.8804,0.8804,0.8804,0.8804,0.8804,0.8804,1.4488,1.4488,1.4488,1.4488,1.4488,1.4488,1.4488,1.4488,1.4488,1.4488,1.4488,1.4488,1.4488,1.3991,1.4555,1.6875,1.8021,1.7945,1.6342,1.5931,1.6251,1.7409,1.6959,1.7033,1.7794,1.7811,1.7811,1.7811,1.7811,1.7811,1.7811,1.7642,1.7659,1.7772,1.7642,1.7507,1.7415,1.7415,1.7027,1.6409,1.6409,1.6163,1.5799,1.5799,1.5799,1.5829,1.5963,1.6637,1.7652,1.8867,1.9346,1.9495,1.963,1.969,1.969,1.9566,1.9603,1.969,1.9566,1.9281,1.893,1.8263,1.8153,1.7893,1.6739,1.6974,1.7501,1.794,1.8555,1.9096,1.9331,1.9012,1.8557,1.8123,1.7498,1.6937,1.6713,1.665,1.6748,1.7187,1.7246,1.7171,1.7031,1.5177,1.3549,1.2505,1.1694,1.1303,1.1243,1.1022,1.0902,1.0902,1.0388,1.0114,1.0114,0.9766,0.9439,0.909,0.8918,0.8804,0.8804,0.8804,0.8804,0.8804,0.8646,0.8646,0.8804,0.8646,0.8646,0.8804,0.8804,0.8804,0.8804,0.8804,0.8804,0.8804,1.4488,1.4488,1.4488,1.4488,1.4488,1.4488,1.4488,1.5802,1.6793,1.6793,1.5454,1.4488,1.4488,1.553,1.6849,1.8372,1.8996,1.8864,1.7792,1.7064,1.6971,1.7616,1.7369,1.7405,1.7794,1.7811,1.7811,1.7811,1.7811,1.7811,1.7811,1.7811,1.7811,1.7811,1.7811,1.7704,1.7526,1.7526,1.715,1.6528,1.6528,1.6246,1.5799,1.5799,1.5799,1.5888,1.6488,1.755,1.8762,1.945,1.969,1.969,1.969,1.969,1.969,1.969,1.969,1.969,1.969,1.9716,1.9651,1.908,1.9003,1.8585,1.6858,1.7375,1.8179,1.8191,1.8844,1.9484,1.9748,1.9698,1.9437,1.8699,1.832,1.792,1.7376,1.7168,1.7207,1.7627,1.7686,1.7455,1.6836,1.5493,1.4122,1.3005,1.2102,1.1577,1.143,1.1149,1.0995,1.0995,1.0561,1.0327,1.0327,1.0033,0.9813,0.9595,0.9365,0.9225,0.9218,0.9078,0.9011,0.9005,0.8871,0.8804,0.8804,0.8804,0.8804,0.8804,0.8804,0.8804,0.8804,0.8804,0.8804,0.8804,1.5325,1.4885,1.4488,1.4488,1.4946,1.5325,1.5325,1.7582,1.9305,1.9305,1.6977,1.5123,1.4561,1.7362,1.9305,1.9305,1.9305,1.9097,1.8623,1.7984,1.7484,1.7216,1.7603,1.7811,1.7811,1.7811,1.7811,1.7811,1.7811,1.7811,1.7811,1.7811,1.7811,1.7811,1.7811,1.7766,1.7704,1.7704,1.7361,1.6789,1.6738,1.6382,1.5885,1.5947,1.5963,1.6099,1.7296,1.8493,1.954,1.9645,1.969,1.969,1.969,1.969,1.969,1.969,1.969,1.969,1.969,2.0109,2.0463,2.0005,1.9908,1.9385,1.7393,1.7999,1.8845,1.8442,1.9196,1.9949,1.9949,2.0426,2.0459,1.9264,1.9284,1.912,1.8352,1.7972,1.7873,1.8162,1.8076,1.7581,1.652,1.5817,1.4915,1.3656,1.2844,1.2318,1.2061,1.1762,1.1661,1.1661,1.1189,1.0882,1.0882,1.0403,1.0194,1.0187,0.9947,0.978,0.9679,0.9426,0.9263,0.9243,0.9005,0.8884,0.8878,0.8831,0.8838,0.8878,0.8824,0.8871,0.8958,0.8958,0.8925,0.8884,1.8647,1.6408,1.4488,1.4488,1.6793,1.8647,1.8647,1.9014,1.9305,1.9305,1.8922,1.7582,1.4799,1.7362,1.9305,1.9305,1.9305,1.9097,1.8623,1.8497,1.8311,1.8052,1.7898,1.7811,1.7811,1.7811,1.7811,1.7811,1.7811,1.7811,1.7811,1.7811,1.7811,1.7811,1.7811,1.7635,1.7368,1.7368,1.715,1.6763,1.6474,1.6313,1.6253,1.6473,1.6577,1.6682,1.7428,1.8208,1.8927,1.9495,1.969,1.969,1.969,1.969,1.969,1.969,1.969,1.969,1.969,1.9855,2.0005,1.9926,1.9931,1.9774,1.8961,1.8909,1.8958,1.8932,1.9786,2.0605,2.0605,2.1004,2.1023,1.9855,2.03,2.0362,1.9291,1.9058,1.9038,1.91,1.8462,1.792,1.7784,1.6964,1.6305,1.6138,1.5267,1.4719,1.467,1.4393,1.4198,1.4198,1.2856,1.2156,1.2156,1.1087,1.0501,1.0501,1.0524,1.0174,0.9686,0.9646,0.9626,0.9606,0.9312,0.913,0.9103,0.8911,0.8958,0.9103,0.8905,0.9118,0.9566,0.9566,0.9406,0.9163,1.9361,1.8151,1.7179,1.7179,1.6867,1.7215,1.9014,1.9305,1.9305,1.9305,1.9305,1.8757,1.7344,1.8445,1.9305,1.9305,1.9305,1.9097,1.8623,1.8585,1.841,1.7992,1.7861,1.7811,1.7811,1.7811,1.7811,1.7811,1.7811,1.7811,1.7811,1.7811,1.8031,1.842,1.842,1.8569,1.8809,1.8809,1.8473,1.7967,1.7801,1.727,1.6576,1.7058,1.704,1.6846,1.7876,1.8687,1.9286,1.9585,1.969,1.969,1.969,1.969,1.969,1.969,1.9959,2.0258,2.0258,2.0852,2.1462,2.1462,2.1484,2.1315,2.0702,2.0514,2.0283,1.9573,2.0112,2.0806,2.1066,2.1581,2.1703,2.107,2.1522,2.1684,2.1007,2.0939,2.0747,2.0213,1.9333,1.8633,1.8379,1.7698,1.7125,1.6664,1.5917,1.5441,1.5242,1.4886,1.4678,1.4678,1.3916,1.3207,1.2689,1.1977,1.1311,1.0795,1.0698,1.049,1.0167,1.0,0.9927,0.9913,0.9613,0.9486,0.9479,0.9352,0.9372,0.9479,0.9345,0.9352,0.9452,0.9619,0.9492,0.923]}]]